<?xml version="1.0" encoding="UTF-8" standalone="no" ?>
<gpx xmlns="http://www.topografix.com/GPX/1/1" creator="MapSource 6.14.1" version="1.1" xmlns:xsi="http://www.w3.org/2001/XMLSchema-instance" xsi:schemaLocation="http://www.garmin.com/xmlschemas/GpxExtensions/v3 http://www.garmin.com/xmlschemas/GpxExtensionsv3.xsd http://www.topografix.com/GPX/1/1 http://www.topografix.com/GPX/1/1/gpx.xsd">

  <metadata>
    <link href="http://www.garmin.com">
      <text>Garmin International</text>
    </link>
    <time>2010-05-09T12:01:41Z</time>
    <bounds maxlat="35.1974246" maxlon="24.4765673" minlat="35.1516981" minlon="24.4597553"/>
  </metadata>

  <trk>
    <name>2010-05-06T07:27:56Z</name>
    <extensions>
      <gpxx:TrackExtension xmlns:gpxx="http://www.garmin.com/xmlschemas/GpxExtensions/v3">
        <gpxx:DisplayColor>White</gpxx:DisplayColor>
      </gpxx:TrackExtension>
    </extensions>
    <trkseg>
      <trkpt lat="35.1961514" lon="24.4657808">
        <ele>153.9483643</ele>
        <time>2010-05-06T07:27:56Z</time>
      </trkpt>
      <trkpt lat="35.1962002" lon="24.4658210">
        <ele>150.1030273</ele>
        <time>2010-05-06T07:28:11Z</time>
      </trkpt>
      <trkpt lat="35.1962966" lon="24.4658514">
        <ele>158.2741699</ele>
        <time>2010-05-06T07:28:18Z</time>
      </trkpt>
      <trkpt lat="35.1963354" lon="24.4658511">
        <ele>159.2354736</ele>
        <time>2010-05-06T07:28:23Z</time>
      </trkpt>
      <trkpt lat="35.1963765" lon="24.4658223">
        <ele>159.7161865</ele>
        <time>2010-05-06T07:28:28Z</time>
      </trkpt>
      <trkpt lat="35.1964872" lon="24.4657968">
        <ele>157.3128662</ele>
        <time>2010-05-06T07:28:44Z</time>
      </trkpt>
      <trkpt lat="35.1964915" lon="24.4658089">
        <ele>157.3128662</ele>
        <time>2010-05-06T07:30:16Z</time>
      </trkpt>
      <trkpt lat="35.1964691" lon="24.4658928">
        <ele>165.0034180</ele>
        <time>2010-05-06T07:30:23Z</time>
      </trkpt>
      <trkpt lat="35.1964958" lon="24.4658801">
        <ele>168.3680420</ele>
        <time>2010-05-06T07:30:28Z</time>
      </trkpt>
      <trkpt lat="35.1965157" lon="24.4658749">
        <ele>169.3294678</ele>
        <time>2010-05-06T07:30:32Z</time>
      </trkpt>
      <trkpt lat="35.1964856" lon="24.4659337">
        <ele>152.0257568</ele>
        <time>2010-05-06T07:31:17Z</time>
      </trkpt>
      <trkpt lat="35.1963302" lon="24.4662442">
        <ele>152.0257568</ele>
        <time>2010-05-06T07:31:59Z</time>
      </trkpt>
      <trkpt lat="35.1964837" lon="24.4659630">
        <ele>163.0808105</ele>
        <time>2010-05-06T07:32:45Z</time>
      </trkpt>
      <trkpt lat="35.1965224" lon="24.4659573">
        <ele>163.5615234</ele>
        <time>2010-05-06T07:32:50Z</time>
      </trkpt>
      <trkpt lat="35.1965507" lon="24.4659304">
        <ele>169.3294678</ele>
        <time>2010-05-06T07:33:22Z</time>
      </trkpt>
      <trkpt lat="35.1966250" lon="24.4659202">
        <ele>170.2906494</ele>
        <time>2010-05-06T07:33:30Z</time>
      </trkpt>
      <trkpt lat="35.1966780" lon="24.4658939">
        <ele>170.2906494</ele>
        <time>2010-05-06T07:33:38Z</time>
      </trkpt>
      <trkpt lat="35.1968486" lon="24.4659869">
        <ele>172.6939697</ele>
        <time>2010-05-06T07:33:47Z</time>
      </trkpt>
      <trkpt lat="35.1967631" lon="24.4660905">
        <ele>224.1245117</ele>
        <time>2010-05-06T07:34:56Z</time>
      </trkpt>
      <trkpt lat="35.1968570" lon="24.4660739">
        <ele>262.5771484</ele>
        <time>2010-05-06T07:46:02Z</time>
      </trkpt>
      <trkpt lat="35.1968948" lon="24.4660958">
        <ele>261.1352539</ele>
        <time>2010-05-06T07:46:08Z</time>
      </trkpt>
      <trkpt lat="35.1969067" lon="24.4661092">
        <ele>261.6159668</ele>
        <time>2010-05-06T07:46:20Z</time>
      </trkpt>
      <trkpt lat="35.1969710" lon="24.4660961">
        <ele>249.5994873</ele>
        <time>2010-05-06T07:46:43Z</time>
      </trkpt>
      <trkpt lat="35.1970224" lon="24.4661097">
        <ele>247.1960449</ele>
        <time>2010-05-06T07:46:49Z</time>
      </trkpt>
      <trkpt lat="35.1970524" lon="24.4661796">
        <ele>244.3122559</ele>
        <time>2010-05-06T07:46:56Z</time>
      </trkpt>
      <trkpt lat="35.1970186" lon="24.4662533">
        <ele>246.2348633</ele>
        <time>2010-05-06T07:47:03Z</time>
      </trkpt>
      <trkpt lat="35.1970408" lon="24.4662311">
        <ele>145.2963867</ele>
        <time>2010-05-06T07:48:02Z</time>
      </trkpt>
      <trkpt lat="35.1970238" lon="24.4662215">
        <ele>141.4510498</ele>
        <time>2010-05-06T07:48:54Z</time>
      </trkpt>
      <trkpt lat="35.1970238" lon="24.4662170">
        <ele>140.9704590</ele>
        <time>2010-05-06T07:49:07Z</time>
      </trkpt>
      <trkpt lat="35.1970461" lon="24.4661774">
        <ele>154.9095459</ele>
        <time>2010-05-06T07:49:48Z</time>
      </trkpt>
      <trkpt lat="35.1970865" lon="24.4661522">
        <ele>151.5449219</ele>
        <time>2010-05-06T07:49:54Z</time>
      </trkpt>
      <trkpt lat="35.1971378" lon="24.4661636">
        <ele>151.0642090</ele>
        <time>2010-05-06T07:50:00Z</time>
      </trkpt>
      <trkpt lat="35.1971720" lon="24.4661596">
        <ele>152.5063477</ele>
        <time>2010-05-06T07:50:04Z</time>
      </trkpt>
      <trkpt lat="35.1972254" lon="24.4661712">
        <ele>152.0257568</ele>
        <time>2010-05-06T07:50:10Z</time>
      </trkpt>
      <trkpt lat="35.1972755" lon="24.4661870">
        <ele>151.5449219</ele>
        <time>2010-05-06T07:50:15Z</time>
      </trkpt>
      <trkpt lat="35.1972952" lon="24.4661966">
        <ele>151.0642090</ele>
        <time>2010-05-06T07:50:17Z</time>
      </trkpt>
      <trkpt lat="35.1973637" lon="24.4662149">
        <ele>150.1030273</ele>
        <time>2010-05-06T07:50:24Z</time>
      </trkpt>
      <trkpt lat="35.1974246" lon="24.4662587">
        <ele>146.2578125</ele>
        <time>2010-05-06T07:51:26Z</time>
      </trkpt>
      <trkpt lat="35.1974049" lon="24.4662226">
        <ele>147.2189941</ele>
        <time>2010-05-06T07:51:31Z</time>
      </trkpt>
      <trkpt lat="35.1973895" lon="24.4662080">
        <ele>154.9095459</ele>
        <time>2010-05-06T07:52:30Z</time>
      </trkpt>
      <trkpt lat="35.1972593" lon="24.4662164">
        <ele>156.3515625</ele>
        <time>2010-05-06T07:52:46Z</time>
      </trkpt>
      <trkpt lat="35.1972057" lon="24.4662031">
        <ele>155.8709717</ele>
        <time>2010-05-06T07:52:51Z</time>
      </trkpt>
      <trkpt lat="35.1971140" lon="24.4662101">
        <ele>177.9812012</ele>
        <time>2010-05-06T07:52:59Z</time>
      </trkpt>
      <trkpt lat="35.1970545" lon="24.4661854">
        <ele>167.8873291</ele>
        <time>2010-05-06T07:53:06Z</time>
      </trkpt>
      <trkpt lat="35.1970305" lon="24.4661634">
        <ele>166.9260254</ele>
        <time>2010-05-06T07:53:10Z</time>
      </trkpt>
      <trkpt lat="35.1969984" lon="24.4661318">
        <ele>168.3680420</ele>
        <time>2010-05-06T07:53:16Z</time>
      </trkpt>
      <trkpt lat="35.1969254" lon="24.4661191">
        <ele>177.5006104</ele>
        <time>2010-05-06T07:53:23Z</time>
      </trkpt>
      <trkpt lat="35.1969062" lon="24.4661190">
        <ele>179.9038086</ele>
        <time>2010-05-06T07:53:25Z</time>
      </trkpt>
      <trkpt lat="35.1968116" lon="24.4661077">
        <ele>199.1301270</ele>
        <time>2010-05-06T07:53:34Z</time>
      </trkpt>
      <trkpt lat="35.1967611" lon="24.4661119">
        <ele>213.5500488</ele>
        <time>2010-05-06T07:53:40Z</time>
      </trkpt>
      <trkpt lat="35.1966984" lon="24.4661052">
        <ele>233.2570801</ele>
        <time>2010-05-06T07:53:47Z</time>
      </trkpt>
      <trkpt lat="35.1966484" lon="24.4661165">
        <ele>252.9639893</ele>
        <time>2010-05-06T07:53:53Z</time>
      </trkpt>
      <trkpt lat="35.1965286" lon="24.4661766">
        <ele>299.5880127</ele>
        <time>2010-05-06T07:54:02Z</time>
      </trkpt>
      <trkpt lat="35.1964872" lon="24.4662228">
        <ele>334.1954346</ele>
        <time>2010-05-06T07:54:05Z</time>
      </trkpt>
      <trkpt lat="35.1963634" lon="24.4663338">
        <ele>381.7806396</ele>
        <time>2010-05-06T07:54:13Z</time>
      </trkpt>
      <trkpt lat="35.1962810" lon="24.4663489">
        <ele>420.2333984</ele>
        <time>2010-05-06T07:54:20Z</time>
      </trkpt>
      <trkpt lat="35.1962505" lon="24.4663442">
        <ele>436.0952148</ele>
        <time>2010-05-06T07:54:24Z</time>
      </trkpt>
      <trkpt lat="35.1962060" lon="24.4663606">
        <ele>447.1502686</ele>
        <time>2010-05-06T07:54:31Z</time>
      </trkpt>
      <trkpt lat="35.1961893" lon="24.4663468">
        <ele>449.5537109</ele>
        <time>2010-05-06T07:54:35Z</time>
      </trkpt>
      <trkpt lat="35.1962334" lon="24.4662456">
        <ele>480.3159180</ele>
        <time>2010-05-06T07:55:04Z</time>
      </trkpt>
      <trkpt lat="35.1961976" lon="24.4663019">
        <ele>489.9290771</ele>
        <time>2010-05-06T07:55:08Z</time>
      </trkpt>
      <trkpt lat="35.1961228" lon="24.4663770">
        <ele>492.8129883</ele>
        <time>2010-05-06T07:55:14Z</time>
      </trkpt>
      <trkpt lat="35.1960743" lon="24.4663988">
        <ele>499.0615234</ele>
        <time>2010-05-06T07:55:18Z</time>
      </trkpt>
      <trkpt lat="35.1959748" lon="24.4664480">
        <ele>519.7298584</ele>
        <time>2010-05-06T07:55:26Z</time>
      </trkpt>
      <trkpt lat="35.1959754" lon="24.4664610">
        <ele>539.4368896</ele>
        <time>2010-05-06T07:55:32Z</time>
      </trkpt>
      <trkpt lat="35.1960013" lon="24.4664737">
        <ele>557.7021484</ele>
        <time>2010-05-06T07:55:36Z</time>
      </trkpt>
      <trkpt lat="35.1959925" lon="24.4664606">
        <ele>548.0888672</ele>
        <time>2010-05-06T07:56:19Z</time>
      </trkpt>
      <trkpt lat="35.1959586" lon="24.4664630">
        <ele>547.6081543</ele>
        <time>2010-05-06T07:56:23Z</time>
      </trkpt>
      <trkpt lat="35.1959273" lon="24.4664641">
        <ele>545.2048340</ele>
        <time>2010-05-06T07:56:27Z</time>
      </trkpt>
      <trkpt lat="35.1959341" lon="24.4663666">
        <ele>479.8350830</ele>
        <time>2010-05-06T07:56:31Z</time>
      </trkpt>
      <trkpt lat="35.1959260" lon="24.4662595">
        <ele>357.7478027</ele>
        <time>2010-05-06T07:56:37Z</time>
      </trkpt>
      <trkpt lat="35.1958822" lon="24.4662066">
        <ele>248.6381836</ele>
        <time>2010-05-06T07:56:45Z</time>
      </trkpt>
      <trkpt lat="35.1959040" lon="24.4661558">
        <ele>243.8315430</ele>
        <time>2010-05-06T07:56:47Z</time>
      </trkpt>
      <trkpt lat="35.1959944" lon="24.4659382">
        <ele>181.8264160</ele>
        <time>2010-05-06T07:56:55Z</time>
      </trkpt>
      <trkpt lat="35.1961245" lon="24.4658200">
        <ele>141.4510498</ele>
        <time>2010-05-06T07:57:03Z</time>
      </trkpt>
      <trkpt lat="35.1961728" lon="24.4658217">
        <ele>140.9704590</ele>
        <time>2010-05-06T07:57:11Z</time>
      </trkpt>
      <trkpt lat="35.1961575" lon="24.4657925">
        <ele>152.5063477</ele>
        <time>2010-05-06T07:57:18Z</time>
      </trkpt>
      <trkpt lat="35.1961294" lon="24.4657388">
        <ele>170.2906494</ele>
        <time>2010-05-06T07:57:37Z</time>
      </trkpt>
      <trkpt lat="35.1961312" lon="24.4657124">
        <ele>170.2906494</ele>
        <time>2010-05-06T07:57:47Z</time>
      </trkpt>
      <trkpt lat="35.1961027" lon="24.4657012">
        <ele>172.2132568</ele>
        <time>2010-05-06T07:57:52Z</time>
      </trkpt>
      <trkpt lat="35.1960628" lon="24.4656731">
        <ele>173.6552734</ele>
        <time>2010-05-06T07:57:59Z</time>
      </trkpt>
      <trkpt lat="35.1960376" lon="24.4656627">
        <ele>174.1358643</ele>
        <time>2010-05-06T07:58:04Z</time>
      </trkpt>
      <trkpt lat="35.1960056" lon="24.4656609">
        <ele>175.5778809</ele>
        <time>2010-05-06T07:58:12Z</time>
      </trkpt>
      <trkpt lat="35.1959680" lon="24.4656635">
        <ele>174.6165771</ele>
        <time>2010-05-06T07:58:19Z</time>
      </trkpt>
      <trkpt lat="35.1959367" lon="24.4656643">
        <ele>172.6939697</ele>
        <time>2010-05-06T07:58:25Z</time>
      </trkpt>
      <trkpt lat="35.1958994" lon="24.4656829">
        <ele>169.8100586</ele>
        <time>2010-05-06T07:58:31Z</time>
      </trkpt>
      <trkpt lat="35.1958773" lon="24.4656670">
        <ele>169.3294678</ele>
        <time>2010-05-06T07:58:35Z</time>
      </trkpt>
      <trkpt lat="35.1958424" lon="24.4656397">
        <ele>166.4453125</ele>
        <time>2010-05-06T07:58:41Z</time>
      </trkpt>
      <trkpt lat="35.1957993" lon="24.4656176">
        <ele>163.0808105</ele>
        <time>2010-05-06T07:58:47Z</time>
      </trkpt>
      <trkpt lat="35.1957587" lon="24.4655969">
        <ele>160.1968994</ele>
        <time>2010-05-06T07:58:54Z</time>
      </trkpt>
      <trkpt lat="35.1957469" lon="24.4656057">
        <ele>158.2741699</ele>
        <time>2010-05-06T07:59:00Z</time>
      </trkpt>
      <trkpt lat="35.1957343" lon="24.4656255">
        <ele>156.3515625</ele>
        <time>2010-05-06T07:59:06Z</time>
      </trkpt>
      <trkpt lat="35.1957180" lon="24.4656202">
        <ele>155.8709717</ele>
        <time>2010-05-06T07:59:10Z</time>
      </trkpt>
      <trkpt lat="35.1956977" lon="24.4656193">
        <ele>153.4676514</ele>
        <time>2010-05-06T07:59:17Z</time>
      </trkpt>
      <trkpt lat="35.1956604" lon="24.4656077">
        <ele>149.6223145</ele>
        <time>2010-05-06T07:59:25Z</time>
      </trkpt>
      <trkpt lat="35.1956338" lon="24.4655954">
        <ele>149.1416016</ele>
        <time>2010-05-06T07:59:45Z</time>
      </trkpt>
      <trkpt lat="35.1955952" lon="24.4655854">
        <ele>150.1030273</ele>
        <time>2010-05-06T07:59:51Z</time>
      </trkpt>
      <trkpt lat="35.1955522" lon="24.4655641">
        <ele>150.1030273</ele>
        <time>2010-05-06T07:59:56Z</time>
      </trkpt>
      <trkpt lat="35.1954823" lon="24.4655632">
        <ele>151.0642090</ele>
        <time>2010-05-06T08:00:04Z</time>
      </trkpt>
      <trkpt lat="35.1954667" lon="24.4655597">
        <ele>150.5836182</ele>
        <time>2010-05-06T08:00:12Z</time>
      </trkpt>
      <trkpt lat="35.1954489" lon="24.4655591">
        <ele>145.2963867</ele>
        <time>2010-05-06T08:00:33Z</time>
      </trkpt>
      <trkpt lat="35.1954336" lon="24.4655678">
        <ele>155.8709717</ele>
        <time>2010-05-06T08:01:20Z</time>
      </trkpt>
      <trkpt lat="35.1954324" lon="24.4655581">
        <ele>152.9869385</ele>
        <time>2010-05-06T08:01:49Z</time>
      </trkpt>
      <trkpt lat="35.1953838" lon="24.4655328">
        <ele>147.2189941</ele>
        <time>2010-05-06T08:01:57Z</time>
      </trkpt>
      <trkpt lat="35.1953116" lon="24.4655066">
        <ele>145.2963867</ele>
        <time>2010-05-06T08:02:06Z</time>
      </trkpt>
      <trkpt lat="35.1952474" lon="24.4654850">
        <ele>145.7770996</ele>
        <time>2010-05-06T08:02:14Z</time>
      </trkpt>
      <trkpt lat="35.1952032" lon="24.4654498">
        <ele>146.7384033</ele>
        <time>2010-05-06T08:02:22Z</time>
      </trkpt>
      <trkpt lat="35.1951625" lon="24.4654162">
        <ele>148.1804199</ele>
        <time>2010-05-06T08:02:30Z</time>
      </trkpt>
      <trkpt lat="35.1951172" lon="24.4653703">
        <ele>150.1030273</ele>
        <time>2010-05-06T08:02:38Z</time>
      </trkpt>
      <trkpt lat="35.1950834" lon="24.4653105">
        <ele>151.0642090</ele>
        <time>2010-05-06T08:02:47Z</time>
      </trkpt>
      <trkpt lat="35.1950671" lon="24.4652581">
        <ele>152.0257568</ele>
        <time>2010-05-06T08:02:56Z</time>
      </trkpt>
      <trkpt lat="35.1950555" lon="24.4652056">
        <ele>152.9869385</ele>
        <time>2010-05-06T08:03:04Z</time>
      </trkpt>
      <trkpt lat="35.1950482" lon="24.4651683">
        <ele>152.5063477</ele>
        <time>2010-05-06T08:03:10Z</time>
      </trkpt>
      <trkpt lat="35.1950389" lon="24.4651297">
        <ele>153.4676514</ele>
        <time>2010-05-06T08:03:17Z</time>
      </trkpt>
      <trkpt lat="35.1950307" lon="24.4650929">
        <ele>154.9095459</ele>
        <time>2010-05-06T08:03:22Z</time>
      </trkpt>
      <trkpt lat="35.1950161" lon="24.4650236">
        <ele>156.8321533</ele>
        <time>2010-05-06T08:03:30Z</time>
      </trkpt>
      <trkpt lat="35.1949983" lon="24.4649337">
        <ele>158.7547607</ele>
        <time>2010-05-06T08:03:39Z</time>
      </trkpt>
      <trkpt lat="35.1949690" lon="24.4648410">
        <ele>160.6774902</ele>
        <time>2010-05-06T08:03:47Z</time>
      </trkpt>
      <trkpt lat="35.1949330" lon="24.4647671">
        <ele>162.1195068</ele>
        <time>2010-05-06T08:03:55Z</time>
      </trkpt>
      <trkpt lat="35.1949061" lon="24.4646795">
        <ele>162.6000977</ele>
        <time>2010-05-06T08:04:05Z</time>
      </trkpt>
      <trkpt lat="35.1948663" lon="24.4645857">
        <ele>162.6000977</ele>
        <time>2010-05-06T08:04:15Z</time>
      </trkpt>
      <trkpt lat="35.1948223" lon="24.4644682">
        <ele>163.0808105</ele>
        <time>2010-05-06T08:04:26Z</time>
      </trkpt>
      <trkpt lat="35.1947815" lon="24.4643626">
        <ele>162.6000977</ele>
        <time>2010-05-06T08:04:36Z</time>
      </trkpt>
      <trkpt lat="35.1947532" lon="24.4643255">
        <ele>161.1582031</ele>
        <time>2010-05-06T08:04:40Z</time>
      </trkpt>
      <trkpt lat="35.1946738" lon="24.4642637">
        <ele>159.2354736</ele>
        <time>2010-05-06T08:04:49Z</time>
      </trkpt>
      <trkpt lat="35.1945380" lon="24.4641755">
        <ele>153.9483643</ele>
        <time>2010-05-06T08:05:02Z</time>
      </trkpt>
      <trkpt lat="35.1944549" lon="24.4641646">
        <ele>152.0257568</ele>
        <time>2010-05-06T08:05:10Z</time>
      </trkpt>
      <trkpt lat="35.1943543" lon="24.4641630">
        <ele>147.2189941</ele>
        <time>2010-05-06T08:05:19Z</time>
      </trkpt>
      <trkpt lat="35.1942562" lon="24.4641984">
        <ele>142.8930664</ele>
        <time>2010-05-06T08:05:29Z</time>
      </trkpt>
      <trkpt lat="35.1941588" lon="24.4642533">
        <ele>141.9317627</ele>
        <time>2010-05-06T08:05:39Z</time>
      </trkpt>
      <trkpt lat="35.1940671" lon="24.4643055">
        <ele>141.9317627</ele>
        <time>2010-05-06T08:05:48Z</time>
      </trkpt>
      <trkpt lat="35.1939819" lon="24.4643098">
        <ele>141.9317627</ele>
        <time>2010-05-06T08:05:56Z</time>
      </trkpt>
      <trkpt lat="35.1938762" lon="24.4642533">
        <ele>142.8930664</ele>
        <time>2010-05-06T08:06:07Z</time>
      </trkpt>
      <trkpt lat="35.1937769" lon="24.4641957">
        <ele>143.8543701</ele>
        <time>2010-05-06T08:06:17Z</time>
      </trkpt>
      <trkpt lat="35.1936727" lon="24.4641347">
        <ele>143.8543701</ele>
        <time>2010-05-06T08:06:27Z</time>
      </trkpt>
      <trkpt lat="35.1935448" lon="24.4640697">
        <ele>143.8543701</ele>
        <time>2010-05-06T08:06:39Z</time>
      </trkpt>
      <trkpt lat="35.1934511" lon="24.4640309">
        <ele>142.8930664</ele>
        <time>2010-05-06T08:06:48Z</time>
      </trkpt>
      <trkpt lat="35.1933346" lon="24.4639817">
        <ele>142.4124756</ele>
        <time>2010-05-06T08:06:59Z</time>
      </trkpt>
      <trkpt lat="35.1932186" lon="24.4639417">
        <ele>141.4510498</ele>
        <time>2010-05-06T08:07:09Z</time>
      </trkpt>
      <trkpt lat="35.1930922" lon="24.4639117">
        <ele>140.4898682</ele>
        <time>2010-05-06T08:07:20Z</time>
      </trkpt>
      <trkpt lat="35.1930334" lon="24.4638964">
        <ele>138.5672607</ele>
        <time>2010-05-06T08:07:26Z</time>
      </trkpt>
      <trkpt lat="35.1930233" lon="24.4638985">
        <ele>141.9317627</ele>
        <time>2010-05-06T08:07:39Z</time>
      </trkpt>
      <trkpt lat="35.1930039" lon="24.4639044">
        <ele>140.9704590</ele>
        <time>2010-05-06T08:07:48Z</time>
      </trkpt>
      <trkpt lat="35.1929480" lon="24.4638797">
        <ele>139.0478516</ele>
        <time>2010-05-06T08:07:54Z</time>
      </trkpt>
      <trkpt lat="35.1928989" lon="24.4638575">
        <ele>138.0865479</ele>
        <time>2010-05-06T08:07:59Z</time>
      </trkpt>
      <trkpt lat="35.1928576" lon="24.4638367">
        <ele>137.6058350</ele>
        <time>2010-05-06T08:08:03Z</time>
      </trkpt>
      <trkpt lat="35.1927456" lon="24.4638117">
        <ele>135.6831055</ele>
        <time>2010-05-06T08:08:13Z</time>
      </trkpt>
      <trkpt lat="35.1926160" lon="24.4637911">
        <ele>133.2799072</ele>
        <time>2010-05-06T08:08:23Z</time>
      </trkpt>
      <trkpt lat="35.1924976" lon="24.4637818">
        <ele>131.3572998</ele>
        <time>2010-05-06T08:08:33Z</time>
      </trkpt>
      <trkpt lat="35.1923571" lon="24.4637767">
        <ele>130.8767090</ele>
        <time>2010-05-06T08:08:44Z</time>
      </trkpt>
      <trkpt lat="35.1922338" lon="24.4637843">
        <ele>130.8767090</ele>
        <time>2010-05-06T08:08:54Z</time>
      </trkpt>
      <trkpt lat="35.1921240" lon="24.4637984">
        <ele>131.3572998</ele>
        <time>2010-05-06T08:09:03Z</time>
      </trkpt>
      <trkpt lat="35.1920132" lon="24.4638103">
        <ele>132.3186035</ele>
        <time>2010-05-06T08:09:12Z</time>
      </trkpt>
      <trkpt lat="35.1918928" lon="24.4638315">
        <ele>133.2799072</ele>
        <time>2010-05-06T08:09:21Z</time>
      </trkpt>
      <trkpt lat="35.1917566" lon="24.4638775">
        <ele>134.7219238</ele>
        <time>2010-05-06T08:09:32Z</time>
      </trkpt>
      <trkpt lat="35.1916573" lon="24.4639226">
        <ele>135.6831055</ele>
        <time>2010-05-06T08:09:40Z</time>
      </trkpt>
      <trkpt lat="35.1915230" lon="24.4639756">
        <ele>138.0865479</ele>
        <time>2010-05-06T08:09:51Z</time>
      </trkpt>
      <trkpt lat="35.1914475" lon="24.4639832">
        <ele>141.9317627</ele>
        <time>2010-05-06T08:09:58Z</time>
      </trkpt>
      <trkpt lat="35.1913952" lon="24.4640057">
        <ele>145.2963867</ele>
        <time>2010-05-06T08:10:06Z</time>
      </trkpt>
      <trkpt lat="35.1913564" lon="24.4640274">
        <ele>150.5836182</ele>
        <time>2010-05-06T08:10:24Z</time>
      </trkpt>
      <trkpt lat="35.1913377" lon="24.4640237">
        <ele>150.5836182</ele>
        <time>2010-05-06T08:10:28Z</time>
      </trkpt>
      <trkpt lat="35.1912475" lon="24.4640251">
        <ele>151.5449219</ele>
        <time>2010-05-06T08:10:39Z</time>
      </trkpt>
      <trkpt lat="35.1911765" lon="24.4640305">
        <ele>152.5063477</ele>
        <time>2010-05-06T08:10:48Z</time>
      </trkpt>
      <trkpt lat="35.1911153" lon="24.4640207">
        <ele>152.9869385</ele>
        <time>2010-05-06T08:10:54Z</time>
      </trkpt>
      <trkpt lat="35.1910793" lon="24.4639942">
        <ele>152.9869385</ele>
        <time>2010-05-06T08:10:58Z</time>
      </trkpt>
      <trkpt lat="35.1909642" lon="24.4639082">
        <ele>154.4289551</ele>
        <time>2010-05-06T08:11:11Z</time>
      </trkpt>
      <trkpt lat="35.1909065" lon="24.4638692">
        <ele>155.3902588</ele>
        <time>2010-05-06T08:11:19Z</time>
      </trkpt>
      <trkpt lat="35.1909011" lon="24.4638584">
        <ele>155.8709717</ele>
        <time>2010-05-06T08:11:43Z</time>
      </trkpt>
      <trkpt lat="35.1909077" lon="24.4638676">
        <ele>149.1416016</ele>
        <time>2010-05-06T08:12:19Z</time>
      </trkpt>
      <trkpt lat="35.1908813" lon="24.4638054">
        <ele>141.4510498</ele>
        <time>2010-05-06T08:12:48Z</time>
      </trkpt>
      <trkpt lat="35.1908330" lon="24.4637759">
        <ele>142.8930664</ele>
        <time>2010-05-06T08:12:56Z</time>
      </trkpt>
      <trkpt lat="35.1907880" lon="24.4637440">
        <ele>143.3736572</ele>
        <time>2010-05-06T08:13:05Z</time>
      </trkpt>
      <trkpt lat="35.1907684" lon="24.4637280">
        <ele>144.3352051</ele>
        <time>2010-05-06T08:13:18Z</time>
      </trkpt>
      <trkpt lat="35.1907181" lon="24.4636706">
        <ele>143.3736572</ele>
        <time>2010-05-06T08:13:27Z</time>
      </trkpt>
      <trkpt lat="35.1906421" lon="24.4636217">
        <ele>141.9317627</ele>
        <time>2010-05-06T08:13:36Z</time>
      </trkpt>
      <trkpt lat="35.1905596" lon="24.4636083">
        <ele>141.9317627</ele>
        <time>2010-05-06T08:13:44Z</time>
      </trkpt>
      <trkpt lat="35.1904726" lon="24.4635899">
        <ele>141.9317627</ele>
        <time>2010-05-06T08:13:52Z</time>
      </trkpt>
      <trkpt lat="35.1903667" lon="24.4635429">
        <ele>142.4124756</ele>
        <time>2010-05-06T08:14:01Z</time>
      </trkpt>
      <trkpt lat="35.1902582" lon="24.4634933">
        <ele>144.8157959</ele>
        <time>2010-05-06T08:14:10Z</time>
      </trkpt>
      <trkpt lat="35.1901544" lon="24.4634576">
        <ele>147.2189941</ele>
        <time>2010-05-06T08:14:20Z</time>
      </trkpt>
      <trkpt lat="35.1901367" lon="24.4634597">
        <ele>146.7384033</ele>
        <time>2010-05-06T08:14:24Z</time>
      </trkpt>
      <trkpt lat="35.1900759" lon="24.4634409">
        <ele>147.2189941</ele>
        <time>2010-05-06T08:14:31Z</time>
      </trkpt>
      <trkpt lat="35.1900633" lon="24.4634197">
        <ele>147.6997070</ele>
        <time>2010-05-06T08:14:36Z</time>
      </trkpt>
      <trkpt lat="35.1900530" lon="24.4634139">
        <ele>147.6997070</ele>
        <time>2010-05-06T08:14:41Z</time>
      </trkpt>
      <trkpt lat="35.1900493" lon="24.4634266">
        <ele>148.6610107</ele>
        <time>2010-05-06T08:14:53Z</time>
      </trkpt>
      <trkpt lat="35.1900121" lon="24.4634296">
        <ele>151.0642090</ele>
        <time>2010-05-06T08:15:27Z</time>
      </trkpt>
      <trkpt lat="35.1899525" lon="24.4634312">
        <ele>151.0642090</ele>
        <time>2010-05-06T08:15:34Z</time>
      </trkpt>
      <trkpt lat="35.1898826" lon="24.4634247">
        <ele>151.5449219</ele>
        <time>2010-05-06T08:15:43Z</time>
      </trkpt>
      <trkpt lat="35.1898209" lon="24.4634223">
        <ele>151.5449219</ele>
        <time>2010-05-06T08:15:51Z</time>
      </trkpt>
      <trkpt lat="35.1897713" lon="24.4634229">
        <ele>152.0257568</ele>
        <time>2010-05-06T08:15:58Z</time>
      </trkpt>
      <trkpt lat="35.1897114" lon="24.4634252">
        <ele>152.9869385</ele>
        <time>2010-05-06T08:16:06Z</time>
      </trkpt>
      <trkpt lat="35.1896640" lon="24.4634271">
        <ele>153.4676514</ele>
        <time>2010-05-06T08:16:12Z</time>
      </trkpt>
      <trkpt lat="35.1896035" lon="24.4634306">
        <ele>153.9483643</ele>
        <time>2010-05-06T08:16:19Z</time>
      </trkpt>
      <trkpt lat="35.1895313" lon="24.4634315">
        <ele>154.9095459</ele>
        <time>2010-05-06T08:16:28Z</time>
      </trkpt>
      <trkpt lat="35.1894512" lon="24.4634359">
        <ele>154.9095459</ele>
        <time>2010-05-06T08:16:37Z</time>
      </trkpt>
      <trkpt lat="35.1893911" lon="24.4634174">
        <ele>155.3902588</ele>
        <time>2010-05-06T08:16:44Z</time>
      </trkpt>
      <trkpt lat="35.1893169" lon="24.4633897">
        <ele>155.8709717</ele>
        <time>2010-05-06T08:16:53Z</time>
      </trkpt>
      <trkpt lat="35.1892452" lon="24.4633672">
        <ele>158.2741699</ele>
        <time>2010-05-06T08:17:01Z</time>
      </trkpt>
      <trkpt lat="35.1891751" lon="24.4633529">
        <ele>157.7935791</ele>
        <time>2010-05-06T08:17:09Z</time>
      </trkpt>
      <trkpt lat="35.1890895" lon="24.4633419">
        <ele>157.7935791</ele>
        <time>2010-05-06T08:17:19Z</time>
      </trkpt>
      <trkpt lat="35.1890144" lon="24.4633316">
        <ele>156.3515625</ele>
        <time>2010-05-06T08:17:27Z</time>
      </trkpt>
      <trkpt lat="35.1889341" lon="24.4633255">
        <ele>155.8709717</ele>
        <time>2010-05-06T08:17:36Z</time>
      </trkpt>
      <trkpt lat="35.1888725" lon="24.4633214">
        <ele>155.8709717</ele>
        <time>2010-05-06T08:17:44Z</time>
      </trkpt>
      <trkpt lat="35.1888158" lon="24.4633058">
        <ele>156.3515625</ele>
        <time>2010-05-06T08:17:52Z</time>
      </trkpt>
      <trkpt lat="35.1887684" lon="24.4632672">
        <ele>157.3128662</ele>
        <time>2010-05-06T08:17:59Z</time>
      </trkpt>
      <trkpt lat="35.1887177" lon="24.4632128">
        <ele>159.2354736</ele>
        <time>2010-05-06T08:18:07Z</time>
      </trkpt>
      <trkpt lat="35.1886720" lon="24.4631353">
        <ele>160.6774902</ele>
        <time>2010-05-06T08:18:17Z</time>
      </trkpt>
      <trkpt lat="35.1886343" lon="24.4630477">
        <ele>161.6389160</ele>
        <time>2010-05-06T08:18:29Z</time>
      </trkpt>
      <trkpt lat="35.1886247" lon="24.4630223">
        <ele>161.6389160</ele>
        <time>2010-05-06T08:18:37Z</time>
      </trkpt>
      <trkpt lat="35.1886399" lon="24.4629759">
        <ele>161.6389160</ele>
        <time>2010-05-06T08:18:53Z</time>
      </trkpt>
      <trkpt lat="35.1886508" lon="24.4629189">
        <ele>161.1582031</ele>
        <time>2010-05-06T08:19:00Z</time>
      </trkpt>
      <trkpt lat="35.1886631" lon="24.4628126">
        <ele>160.6774902</ele>
        <time>2010-05-06T08:19:11Z</time>
      </trkpt>
      <trkpt lat="35.1886685" lon="24.4626874">
        <ele>160.1968994</ele>
        <time>2010-05-06T08:19:22Z</time>
      </trkpt>
      <trkpt lat="35.1886552" lon="24.4625924">
        <ele>159.7161865</ele>
        <time>2010-05-06T08:19:31Z</time>
      </trkpt>
      <trkpt lat="35.1886368" lon="24.4625241">
        <ele>158.7547607</ele>
        <time>2010-05-06T08:19:39Z</time>
      </trkpt>
      <trkpt lat="35.1886010" lon="24.4624361">
        <ele>156.8321533</ele>
        <time>2010-05-06T08:19:49Z</time>
      </trkpt>
      <trkpt lat="35.1885564" lon="24.4623599">
        <ele>155.8709717</ele>
        <time>2010-05-06T08:19:58Z</time>
      </trkpt>
      <trkpt lat="35.1885300" lon="24.4622436">
        <ele>153.4676514</ele>
        <time>2010-05-06T08:20:09Z</time>
      </trkpt>
      <trkpt lat="35.1885330" lon="24.4621131">
        <ele>151.0642090</ele>
        <time>2010-05-06T08:20:20Z</time>
      </trkpt>
      <trkpt lat="35.1885347" lon="24.4620864">
        <ele>150.5836182</ele>
        <time>2010-05-06T08:20:22Z</time>
      </trkpt>
      <trkpt lat="35.1885447" lon="24.4619487">
        <ele>148.1804199</ele>
        <time>2010-05-06T08:20:33Z</time>
      </trkpt>
      <trkpt lat="35.1885861" lon="24.4618404">
        <ele>146.7384033</ele>
        <time>2010-05-06T08:20:42Z</time>
      </trkpt>
      <trkpt lat="35.1886322" lon="24.4617657">
        <ele>145.7770996</ele>
        <time>2010-05-06T08:20:50Z</time>
      </trkpt>
      <trkpt lat="35.1887026" lon="24.4616408">
        <ele>144.8157959</ele>
        <time>2010-05-06T08:21:02Z</time>
      </trkpt>
      <trkpt lat="35.1887236" lon="24.4615452">
        <ele>144.3352051</ele>
        <time>2010-05-06T08:21:11Z</time>
      </trkpt>
      <trkpt lat="35.1887435" lon="24.4614615">
        <ele>143.3736572</ele>
        <time>2010-05-06T08:21:19Z</time>
      </trkpt>
      <trkpt lat="35.1887492" lon="24.4614455">
        <ele>144.3352051</ele>
        <time>2010-05-06T08:21:33Z</time>
      </trkpt>
      <trkpt lat="35.1887497" lon="24.4614214">
        <ele>146.2578125</ele>
        <time>2010-05-06T08:21:56Z</time>
      </trkpt>
      <trkpt lat="35.1887549" lon="24.4614187">
        <ele>145.7770996</ele>
        <time>2010-05-06T08:22:01Z</time>
      </trkpt>
      <trkpt lat="35.1887578" lon="24.4613746">
        <ele>144.3352051</ele>
        <time>2010-05-06T08:22:10Z</time>
      </trkpt>
      <trkpt lat="35.1887689" lon="24.4612719">
        <ele>142.4124756</ele>
        <time>2010-05-06T08:22:19Z</time>
      </trkpt>
      <trkpt lat="35.1887650" lon="24.4611470">
        <ele>139.0478516</ele>
        <time>2010-05-06T08:22:30Z</time>
      </trkpt>
      <trkpt lat="35.1887507" lon="24.4611125">
        <ele>138.5672607</ele>
        <time>2010-05-06T08:22:33Z</time>
      </trkpt>
      <trkpt lat="35.1887041" lon="24.4610384">
        <ele>136.1639404</ele>
        <time>2010-05-06T08:22:41Z</time>
      </trkpt>
      <trkpt lat="35.1886435" lon="24.4609455">
        <ele>134.7219238</ele>
        <time>2010-05-06T08:22:50Z</time>
      </trkpt>
      <trkpt lat="35.1885890" lon="24.4608261">
        <ele>131.8378906</ele>
        <time>2010-05-06T08:23:01Z</time>
      </trkpt>
      <trkpt lat="35.1885658" lon="24.4606853">
        <ele>129.9152832</ele>
        <time>2010-05-06T08:23:12Z</time>
      </trkpt>
      <trkpt lat="35.1885628" lon="24.4605054">
        <ele>127.0313721</ele>
        <time>2010-05-06T08:23:25Z</time>
      </trkpt>
      <trkpt lat="35.1885379" lon="24.4603552">
        <ele>124.1473389</ele>
        <time>2010-05-06T08:23:36Z</time>
      </trkpt>
      <trkpt lat="35.1884760" lon="24.4601972">
        <ele>121.7441406</ele>
        <time>2010-05-06T08:23:48Z</time>
      </trkpt>
      <trkpt lat="35.1884150" lon="24.4600519">
        <ele>120.7828369</ele>
        <time>2010-05-06T08:23:59Z</time>
      </trkpt>
      <trkpt lat="35.1883467" lon="24.4598880">
        <ele>119.8214111</ele>
        <time>2010-05-06T08:24:12Z</time>
      </trkpt>
      <trkpt lat="35.1883312" lon="24.4598719">
        <ele>119.3408203</ele>
        <time>2010-05-06T08:24:15Z</time>
      </trkpt>
      <trkpt lat="35.1882734" lon="24.4597922">
        <ele>118.8601074</ele>
        <time>2010-05-06T08:24:23Z</time>
      </trkpt>
      <trkpt lat="35.1882002" lon="24.4597553">
        <ele>116.9375000</ele>
        <time>2010-05-06T08:24:30Z</time>
      </trkpt>
      <trkpt lat="35.1880851" lon="24.4597568">
        <ele>113.5729980</ele>
        <time>2010-05-06T08:24:40Z</time>
      </trkpt>
      <trkpt lat="35.1879663" lon="24.4597738">
        <ele>111.1695557</ele>
        <time>2010-05-06T08:24:50Z</time>
      </trkpt>
      <trkpt lat="35.1878629" lon="24.4597903">
        <ele>109.2469482</ele>
        <time>2010-05-06T08:24:59Z</time>
      </trkpt>
      <trkpt lat="35.1877240" lon="24.4598419">
        <ele>107.8050537</ele>
        <time>2010-05-06T08:25:11Z</time>
      </trkpt>
      <trkpt lat="35.1876904" lon="24.4598641">
        <ele>107.8050537</ele>
        <time>2010-05-06T08:25:14Z</time>
      </trkpt>
      <trkpt lat="35.1876080" lon="24.4599221">
        <ele>107.3243408</ele>
        <time>2010-05-06T08:25:22Z</time>
      </trkpt>
      <trkpt lat="35.1875137" lon="24.4600268">
        <ele>105.8824463</ele>
        <time>2010-05-06T08:25:33Z</time>
      </trkpt>
      <trkpt lat="35.1874355" lon="24.4601776">
        <ele>104.9210205</ele>
        <time>2010-05-06T08:25:45Z</time>
      </trkpt>
      <trkpt lat="35.1873954" lon="24.4603521">
        <ele>103.4790039</ele>
        <time>2010-05-06T08:25:57Z</time>
      </trkpt>
      <trkpt lat="35.1873742" lon="24.4604847">
        <ele>100.5950928</ele>
        <time>2010-05-06T08:26:07Z</time>
      </trkpt>
      <trkpt lat="35.1873360" lon="24.4606259">
        <ele>99.1530762</ele>
        <time>2010-05-06T08:26:17Z</time>
      </trkpt>
      <trkpt lat="35.1872848" lon="24.4607673">
        <ele>98.1918945</ele>
        <time>2010-05-06T08:26:27Z</time>
      </trkpt>
      <trkpt lat="35.1872552" lon="24.4609000">
        <ele>98.6724854</ele>
        <time>2010-05-06T08:26:37Z</time>
      </trkpt>
      <trkpt lat="35.1872090" lon="24.4609799">
        <ele>99.6337891</ele>
        <time>2010-05-06T08:26:45Z</time>
      </trkpt>
      <trkpt lat="35.1870962" lon="24.4610529">
        <ele>100.1145020</ele>
        <time>2010-05-06T08:26:56Z</time>
      </trkpt>
      <trkpt lat="35.1869849" lon="24.4611198">
        <ele>100.5950928</ele>
        <time>2010-05-06T08:27:07Z</time>
      </trkpt>
      <trkpt lat="35.1868614" lon="24.4612392">
        <ele>98.1918945</ele>
        <time>2010-05-06T08:27:21Z</time>
      </trkpt>
      <trkpt lat="35.1867464" lon="24.4613229">
        <ele>95.7884521</ele>
        <time>2010-05-06T08:27:33Z</time>
      </trkpt>
      <trkpt lat="35.1866305" lon="24.4613626">
        <ele>94.8271484</ele>
        <time>2010-05-06T08:27:43Z</time>
      </trkpt>
      <trkpt lat="35.1864838" lon="24.4613896">
        <ele>94.8271484</ele>
        <time>2010-05-06T08:27:55Z</time>
      </trkpt>
      <trkpt lat="35.1863512" lon="24.4614053">
        <ele>94.3465576</ele>
        <time>2010-05-06T08:28:06Z</time>
      </trkpt>
      <trkpt lat="35.1862283" lon="24.4614243">
        <ele>93.8658447</ele>
        <time>2010-05-06T08:28:16Z</time>
      </trkpt>
      <trkpt lat="35.1860902" lon="24.4614618">
        <ele>92.9045410</ele>
        <time>2010-05-06T08:28:27Z</time>
      </trkpt>
      <trkpt lat="35.1859488" lon="24.4615073">
        <ele>90.9819336</ele>
        <time>2010-05-06T08:28:39Z</time>
      </trkpt>
      <trkpt lat="35.1858168" lon="24.4615472">
        <ele>90.9819336</ele>
        <time>2010-05-06T08:28:50Z</time>
      </trkpt>
      <trkpt lat="35.1857095" lon="24.4615755">
        <ele>90.9819336</ele>
        <time>2010-05-06T08:28:59Z</time>
      </trkpt>
      <trkpt lat="35.1855669" lon="24.4616032">
        <ele>90.5013428</ele>
        <time>2010-05-06T08:29:11Z</time>
      </trkpt>
      <trkpt lat="35.1854422" lon="24.4616265">
        <ele>91.9432373</ele>
        <time>2010-05-06T08:29:22Z</time>
      </trkpt>
      <trkpt lat="35.1853996" lon="24.4616465">
        <ele>92.4239502</ele>
        <time>2010-05-06T08:29:29Z</time>
      </trkpt>
      <trkpt lat="35.1853862" lon="24.4616487">
        <ele>91.9432373</ele>
        <time>2010-05-06T08:29:42Z</time>
      </trkpt>
      <trkpt lat="35.1853519" lon="24.4616496">
        <ele>92.4239502</ele>
        <time>2010-05-06T08:29:50Z</time>
      </trkpt>
      <trkpt lat="35.1853384" lon="24.4616648">
        <ele>91.9432373</ele>
        <time>2010-05-06T08:29:59Z</time>
      </trkpt>
      <trkpt lat="35.1853194" lon="24.4616671">
        <ele>91.9432373</ele>
        <time>2010-05-06T08:30:06Z</time>
      </trkpt>
      <trkpt lat="35.1853211" lon="24.4616656">
        <ele>92.9045410</ele>
        <time>2010-05-06T08:30:15Z</time>
      </trkpt>
      <trkpt lat="35.1853251" lon="24.4616647">
        <ele>91.9432373</ele>
        <time>2010-05-06T08:30:23Z</time>
      </trkpt>
      <trkpt lat="35.1853576" lon="24.4616657">
        <ele>92.4239502</ele>
        <time>2010-05-06T08:30:30Z</time>
      </trkpt>
      <trkpt lat="35.1853852" lon="24.4616740">
        <ele>92.4239502</ele>
        <time>2010-05-06T08:30:36Z</time>
      </trkpt>
      <trkpt lat="35.1854021" lon="24.4616744">
        <ele>93.3851318</ele>
        <time>2010-05-06T08:30:54Z</time>
      </trkpt>
      <trkpt lat="35.1853978" lon="24.4616656">
        <ele>94.3465576</ele>
        <time>2010-05-06T08:31:20Z</time>
      </trkpt>
      <trkpt lat="35.1853893" lon="24.4616710">
        <ele>94.3465576</ele>
        <time>2010-05-06T08:31:31Z</time>
      </trkpt>
      <trkpt lat="35.1853949" lon="24.4616669">
        <ele>94.3465576</ele>
        <time>2010-05-06T08:31:39Z</time>
      </trkpt>
      <trkpt lat="35.1853965" lon="24.4616712">
        <ele>94.8271484</ele>
        <time>2010-05-06T08:31:49Z</time>
      </trkpt>
      <trkpt lat="35.1853474" lon="24.4616689">
        <ele>94.8271484</ele>
        <time>2010-05-06T08:31:55Z</time>
      </trkpt>
      <trkpt lat="35.1851982" lon="24.4617089">
        <ele>96.2692871</ele>
        <time>2010-05-06T08:32:07Z</time>
      </trkpt>
      <trkpt lat="35.1850844" lon="24.4617637">
        <ele>94.3465576</ele>
        <time>2010-05-06T08:32:17Z</time>
      </trkpt>
      <trkpt lat="35.1850139" lon="24.4618011">
        <ele>93.8658447</ele>
        <time>2010-05-06T08:32:23Z</time>
      </trkpt>
      <trkpt lat="35.1849418" lon="24.4618423">
        <ele>92.9045410</ele>
        <time>2010-05-06T08:32:29Z</time>
      </trkpt>
      <trkpt lat="35.1848430" lon="24.4619036">
        <ele>91.9432373</ele>
        <time>2010-05-06T08:32:38Z</time>
      </trkpt>
      <trkpt lat="35.1847926" lon="24.4619274">
        <ele>91.4625244</ele>
        <time>2010-05-06T08:32:44Z</time>
      </trkpt>
      <trkpt lat="35.1847175" lon="24.4619771">
        <ele>90.5013428</ele>
        <time>2010-05-06T08:32:52Z</time>
      </trkpt>
      <trkpt lat="35.1846611" lon="24.4620109">
        <ele>90.5013428</ele>
        <time>2010-05-06T08:33:00Z</time>
      </trkpt>
      <trkpt lat="35.1846419" lon="24.4620050">
        <ele>90.9819336</ele>
        <time>2010-05-06T08:33:07Z</time>
      </trkpt>
      <trkpt lat="35.1846384" lon="24.4620185">
        <ele>90.9819336</ele>
        <time>2010-05-06T08:33:14Z</time>
      </trkpt>
      <trkpt lat="35.1845865" lon="24.4620453">
        <ele>90.5013428</ele>
        <time>2010-05-06T08:33:24Z</time>
      </trkpt>
      <trkpt lat="35.1844891" lon="24.4620853">
        <ele>90.9819336</ele>
        <time>2010-05-06T08:33:32Z</time>
      </trkpt>
      <trkpt lat="35.1843768" lon="24.4621361">
        <ele>90.0206299</ele>
        <time>2010-05-06T08:33:41Z</time>
      </trkpt>
      <trkpt lat="35.1842381" lon="24.4622454">
        <ele>88.5787354</ele>
        <time>2010-05-06T08:33:51Z</time>
      </trkpt>
      <trkpt lat="35.1841273" lon="24.4623439">
        <ele>87.6171875</ele>
        <time>2010-05-06T08:33:59Z</time>
      </trkpt>
      <trkpt lat="35.1840344" lon="24.4624397">
        <ele>86.6560059</ele>
        <time>2010-05-06T08:34:07Z</time>
      </trkpt>
      <trkpt lat="35.1839367" lon="24.4625385">
        <ele>85.2139893</ele>
        <time>2010-05-06T08:34:15Z</time>
      </trkpt>
      <trkpt lat="35.1837892" lon="24.4626825">
        <ele>83.7719727</ele>
        <time>2010-05-06T08:34:27Z</time>
      </trkpt>
      <trkpt lat="35.1836442" lon="24.4628233">
        <ele>81.8493652</ele>
        <time>2010-05-06T08:34:40Z</time>
      </trkpt>
      <trkpt lat="35.1835323" lon="24.4629222">
        <ele>80.4074707</ele>
        <time>2010-05-06T08:34:49Z</time>
      </trkpt>
      <trkpt lat="35.1834359" lon="24.4630108">
        <ele>78.9654541</ele>
        <time>2010-05-06T08:34:57Z</time>
      </trkpt>
      <trkpt lat="35.1833286" lon="24.4631343">
        <ele>77.5234375</ele>
        <time>2010-05-06T08:35:08Z</time>
      </trkpt>
      <trkpt lat="35.1833734" lon="24.4631856">
        <ele>77.0428467</ele>
        <time>2010-05-06T08:35:14Z</time>
      </trkpt>
      <trkpt lat="35.1834214" lon="24.4631787">
        <ele>76.5621338</ele>
        <time>2010-05-06T08:35:18Z</time>
      </trkpt>
      <trkpt lat="35.1835529" lon="24.4630966">
        <ele>75.6008301</ele>
        <time>2010-05-06T08:35:29Z</time>
      </trkpt>
      <trkpt lat="35.1836835" lon="24.4630510">
        <ele>74.6395264</ele>
        <time>2010-05-06T08:35:39Z</time>
      </trkpt>
      <trkpt lat="35.1838110" lon="24.4630147">
        <ele>74.1588135</ele>
        <time>2010-05-06T08:35:49Z</time>
      </trkpt>
      <trkpt lat="35.1839333" lon="24.4630034">
        <ele>73.6782227</ele>
        <time>2010-05-06T08:35:59Z</time>
      </trkpt>
      <trkpt lat="35.1840403" lon="24.4630519">
        <ele>72.2362061</ele>
        <time>2010-05-06T08:36:08Z</time>
      </trkpt>
      <trkpt lat="35.1841332" lon="24.4631680">
        <ele>69.3522949</ele>
        <time>2010-05-06T08:36:18Z</time>
      </trkpt>
      <trkpt lat="35.1841978" lon="24.4632452">
        <ele>67.4296875</ele>
        <time>2010-05-06T08:36:25Z</time>
      </trkpt>
      <trkpt lat="35.1842575" lon="24.4632973">
        <ele>65.9876709</ele>
        <time>2010-05-06T08:36:31Z</time>
      </trkpt>
      <trkpt lat="35.1843749" lon="24.4633580">
        <ele>64.0650635</ele>
        <time>2010-05-06T08:36:41Z</time>
      </trkpt>
      <trkpt lat="35.1844922" lon="24.4634134">
        <ele>62.6229248</ele>
        <time>2010-05-06T08:36:52Z</time>
      </trkpt>
      <trkpt lat="35.1845646" lon="24.4634874">
        <ele>60.7003174</ele>
        <time>2010-05-06T08:37:01Z</time>
      </trkpt>
      <trkpt lat="35.1845953" lon="24.4635255">
        <ele>60.2197266</ele>
        <time>2010-05-06T08:37:09Z</time>
      </trkpt>
      <trkpt lat="35.1845984" lon="24.4635306">
        <ele>61.1810303</ele>
        <time>2010-05-06T08:37:19Z</time>
      </trkpt>
      <trkpt lat="35.1846152" lon="24.4635649">
        <ele>60.7003174</ele>
        <time>2010-05-06T08:37:25Z</time>
      </trkpt>
      <trkpt lat="35.1846258" lon="24.4636139">
        <ele>61.1810303</ele>
        <time>2010-05-06T08:37:32Z</time>
      </trkpt>
      <trkpt lat="35.1846150" lon="24.4636716">
        <ele>61.6617432</ele>
        <time>2010-05-06T08:37:43Z</time>
      </trkpt>
      <trkpt lat="35.1846030" lon="24.4637366">
        <ele>61.1810303</ele>
        <time>2010-05-06T08:37:52Z</time>
      </trkpt>
      <trkpt lat="35.1845895" lon="24.4637492">
        <ele>61.6617432</ele>
        <time>2010-05-06T08:38:22Z</time>
      </trkpt>
      <trkpt lat="35.1845880" lon="24.4637514">
        <ele>62.1423340</ele>
        <time>2010-05-06T08:38:28Z</time>
      </trkpt>
      <trkpt lat="35.1845895" lon="24.4637467">
        <ele>61.6617432</ele>
        <time>2010-05-06T08:38:34Z</time>
      </trkpt>
      <trkpt lat="35.1845948" lon="24.4637497">
        <ele>61.1810303</ele>
        <time>2010-05-06T08:38:48Z</time>
      </trkpt>
      <trkpt lat="35.1845925" lon="24.4637528">
        <ele>61.1810303</ele>
        <time>2010-05-06T08:39:00Z</time>
      </trkpt>
      <trkpt lat="35.1846028" lon="24.4637497">
        <ele>63.5843506</ele>
        <time>2010-05-06T08:39:11Z</time>
      </trkpt>
      <trkpt lat="35.1846165" lon="24.4637699">
        <ele>62.1423340</ele>
        <time>2010-05-06T08:39:22Z</time>
      </trkpt>
      <trkpt lat="35.1846045" lon="24.4637661">
        <ele>61.1810303</ele>
        <time>2010-05-06T08:39:26Z</time>
      </trkpt>
      <trkpt lat="35.1845973" lon="24.4637543">
        <ele>61.1810303</ele>
        <time>2010-05-06T08:40:07Z</time>
      </trkpt>
      <trkpt lat="35.1846021" lon="24.4637594">
        <ele>61.1810303</ele>
        <time>2010-05-06T08:40:16Z</time>
      </trkpt>
      <trkpt lat="35.1845958" lon="24.4637543">
        <ele>63.5843506</ele>
        <time>2010-05-06T08:40:32Z</time>
      </trkpt>
      <trkpt lat="35.1845924" lon="24.4637638">
        <ele>65.5070801</ele>
        <time>2010-05-06T08:40:56Z</time>
      </trkpt>
      <trkpt lat="35.1845951" lon="24.4637715">
        <ele>65.0263672</ele>
        <time>2010-05-06T08:41:28Z</time>
      </trkpt>
      <trkpt lat="35.1845952" lon="24.4637854">
        <ele>63.1036377</ele>
        <time>2010-05-06T08:42:22Z</time>
      </trkpt>
      <trkpt lat="35.1846020" lon="24.4637791">
        <ele>60.7003174</ele>
        <time>2010-05-06T08:42:37Z</time>
      </trkpt>
      <trkpt lat="35.1845770" lon="24.4637911">
        <ele>67.4296875</ele>
        <time>2010-05-06T08:43:19Z</time>
      </trkpt>
      <trkpt lat="35.1845567" lon="24.4637935">
        <ele>72.2362061</ele>
        <time>2010-05-06T08:43:49Z</time>
      </trkpt>
      <trkpt lat="35.1845725" lon="24.4637827">
        <ele>67.9102783</ele>
        <time>2010-05-06T08:44:23Z</time>
      </trkpt>
      <trkpt lat="35.1846082" lon="24.4637772">
        <ele>55.8937988</ele>
        <time>2010-05-06T08:45:26Z</time>
      </trkpt>
      <trkpt lat="35.1846099" lon="24.4637715">
        <ele>58.7777100</ele>
        <time>2010-05-06T08:46:02Z</time>
      </trkpt>
      <trkpt lat="35.1845984" lon="24.4637710">
        <ele>63.5843506</ele>
        <time>2010-05-06T08:46:30Z</time>
      </trkpt>
      <trkpt lat="35.1846111" lon="24.4637719">
        <ele>62.1423340</ele>
        <time>2010-05-06T08:46:38Z</time>
      </trkpt>
      <trkpt lat="35.1846455" lon="24.4637937">
        <ele>59.7391357</ele>
        <time>2010-05-06T08:46:44Z</time>
      </trkpt>
      <trkpt lat="35.1846784" lon="24.4638589">
        <ele>57.8165283</ele>
        <time>2010-05-06T08:46:51Z</time>
      </trkpt>
      <trkpt lat="35.1846889" lon="24.4639414">
        <ele>56.3745117</ele>
        <time>2010-05-06T08:46:58Z</time>
      </trkpt>
      <trkpt lat="35.1846858" lon="24.4639796">
        <ele>55.8937988</ele>
        <time>2010-05-06T08:47:05Z</time>
      </trkpt>
      <trkpt lat="35.1846630" lon="24.4640165">
        <ele>53.9711914</ele>
        <time>2010-05-06T08:47:12Z</time>
      </trkpt>
      <trkpt lat="35.1846349" lon="24.4640701">
        <ele>53.0097656</ele>
        <time>2010-05-06T08:47:17Z</time>
      </trkpt>
      <trkpt lat="35.1846440" lon="24.4641192">
        <ele>53.0097656</ele>
        <time>2010-05-06T08:47:23Z</time>
      </trkpt>
      <trkpt lat="35.1846420" lon="24.4641609">
        <ele>53.0097656</ele>
        <time>2010-05-06T08:47:29Z</time>
      </trkpt>
      <trkpt lat="35.1846616" lon="24.4642468">
        <ele>51.0871582</ele>
        <time>2010-05-06T08:47:36Z</time>
      </trkpt>
      <trkpt lat="35.1846651" lon="24.4642808">
        <ele>51.0871582</ele>
        <time>2010-05-06T08:47:39Z</time>
      </trkpt>
      <trkpt lat="35.1846463" lon="24.4643511">
        <ele>51.5678711</ele>
        <time>2010-05-06T08:47:47Z</time>
      </trkpt>
      <trkpt lat="35.1845858" lon="24.4643506">
        <ele>52.0485840</ele>
        <time>2010-05-06T08:47:53Z</time>
      </trkpt>
      <trkpt lat="35.1844766" lon="24.4642972">
        <ele>53.0097656</ele>
        <time>2010-05-06T08:48:04Z</time>
      </trkpt>
      <trkpt lat="35.1844441" lon="24.4642924">
        <ele>53.4904785</ele>
        <time>2010-05-06T08:48:07Z</time>
      </trkpt>
      <trkpt lat="35.1844159" lon="24.4642750">
        <ele>53.9711914</ele>
        <time>2010-05-06T08:48:10Z</time>
      </trkpt>
      <trkpt lat="35.1843918" lon="24.4642465">
        <ele>53.4904785</ele>
        <time>2010-05-06T08:48:16Z</time>
      </trkpt>
      <trkpt lat="35.1843565" lon="24.4642050">
        <ele>53.0097656</ele>
        <time>2010-05-06T08:48:22Z</time>
      </trkpt>
      <trkpt lat="35.1843046" lon="24.4641993">
        <ele>51.5678711</ele>
        <time>2010-05-06T08:48:28Z</time>
      </trkpt>
      <trkpt lat="35.1842756" lon="24.4642245">
        <ele>52.0485840</ele>
        <time>2010-05-06T08:48:31Z</time>
      </trkpt>
      <trkpt lat="35.1842088" lon="24.4642725">
        <ele>50.6065674</ele>
        <time>2010-05-06T08:48:39Z</time>
      </trkpt>
      <trkpt lat="35.1841602" lon="24.4642934">
        <ele>49.6452637</ele>
        <time>2010-05-06T08:48:44Z</time>
      </trkpt>
      <trkpt lat="35.1840928" lon="24.4642753">
        <ele>50.1259766</ele>
        <time>2010-05-06T08:48:51Z</time>
      </trkpt>
      <trkpt lat="35.1840147" lon="24.4643034">
        <ele>49.6452637</ele>
        <time>2010-05-06T08:49:00Z</time>
      </trkpt>
      <trkpt lat="35.1839616" lon="24.4642952">
        <ele>49.6452637</ele>
        <time>2010-05-06T08:49:05Z</time>
      </trkpt>
      <trkpt lat="35.1838788" lon="24.4642800">
        <ele>51.5678711</ele>
        <time>2010-05-06T08:49:12Z</time>
      </trkpt>
      <trkpt lat="35.1838339" lon="24.4643022">
        <ele>51.5678711</ele>
        <time>2010-05-06T08:49:17Z</time>
      </trkpt>
      <trkpt lat="35.1837820" lon="24.4642994">
        <ele>50.6065674</ele>
        <time>2010-05-06T08:49:26Z</time>
      </trkpt>
      <trkpt lat="35.1837618" lon="24.4642911">
        <ele>50.6065674</ele>
        <time>2010-05-06T08:49:32Z</time>
      </trkpt>
      <trkpt lat="35.1837530" lon="24.4642869">
        <ele>53.0097656</ele>
        <time>2010-05-06T08:49:44Z</time>
      </trkpt>
      <trkpt lat="35.1837427" lon="24.4642794">
        <ele>54.4517822</ele>
        <time>2010-05-06T08:49:54Z</time>
      </trkpt>
      <trkpt lat="35.1837310" lon="24.4642791">
        <ele>54.4517822</ele>
        <time>2010-05-06T08:50:03Z</time>
      </trkpt>
      <trkpt lat="35.1837173" lon="24.4642750">
        <ele>53.9711914</ele>
        <time>2010-05-06T08:50:10Z</time>
      </trkpt>
      <trkpt lat="35.1836837" lon="24.4642760">
        <ele>52.5291748</ele>
        <time>2010-05-06T08:50:16Z</time>
      </trkpt>
      <trkpt lat="35.1836400" lon="24.4643110">
        <ele>50.1259766</ele>
        <time>2010-05-06T08:50:22Z</time>
      </trkpt>
      <trkpt lat="35.1836271" lon="24.4643281">
        <ele>48.6839600</ele>
        <time>2010-05-06T08:50:31Z</time>
      </trkpt>
      <trkpt lat="35.1836236" lon="24.4643340">
        <ele>49.6452637</ele>
        <time>2010-05-06T08:50:44Z</time>
      </trkpt>
      <trkpt lat="35.1836193" lon="24.4643382">
        <ele>51.0871582</ele>
        <time>2010-05-06T08:51:07Z</time>
      </trkpt>
      <trkpt lat="35.1836139" lon="24.4643631">
        <ele>50.6065674</ele>
        <time>2010-05-06T08:51:11Z</time>
      </trkpt>
      <trkpt lat="35.1836007" lon="24.4643785">
        <ele>50.1259766</ele>
        <time>2010-05-06T08:51:20Z</time>
      </trkpt>
      <trkpt lat="35.1836033" lon="24.4643598">
        <ele>50.1259766</ele>
        <time>2010-05-06T08:51:24Z</time>
      </trkpt>
      <trkpt lat="35.1836209" lon="24.4643532">
        <ele>49.6452637</ele>
        <time>2010-05-06T08:51:29Z</time>
      </trkpt>
      <trkpt lat="35.1836255" lon="24.4643149">
        <ele>49.1645508</ele>
        <time>2010-05-06T08:51:34Z</time>
      </trkpt>
      <trkpt lat="35.1835995" lon="24.4643034">
        <ele>48.6839600</ele>
        <time>2010-05-06T08:51:38Z</time>
      </trkpt>
      <trkpt lat="35.1835715" lon="24.4642359">
        <ele>51.0871582</ele>
        <time>2010-05-06T08:51:45Z</time>
      </trkpt>
      <trkpt lat="35.1835136" lon="24.4642057">
        <ele>54.4517822</ele>
        <time>2010-05-06T08:51:52Z</time>
      </trkpt>
      <trkpt lat="35.1834774" lon="24.4642386">
        <ele>55.8937988</ele>
        <time>2010-05-06T08:51:56Z</time>
      </trkpt>
      <trkpt lat="35.1834490" lon="24.4643018">
        <ele>56.3745117</ele>
        <time>2010-05-06T08:52:03Z</time>
      </trkpt>
      <trkpt lat="35.1834302" lon="24.4643126">
        <ele>55.8937988</ele>
        <time>2010-05-06T08:52:11Z</time>
      </trkpt>
      <trkpt lat="35.1833959" lon="24.4643045">
        <ele>56.8551025</ele>
        <time>2010-05-06T08:52:17Z</time>
      </trkpt>
      <trkpt lat="35.1833470" lon="24.4643227">
        <ele>57.8165283</ele>
        <time>2010-05-06T08:52:23Z</time>
      </trkpt>
      <trkpt lat="35.1833152" lon="24.4643863">
        <ele>58.2971191</ele>
        <time>2010-05-06T08:52:30Z</time>
      </trkpt>
      <trkpt lat="35.1832656" lon="24.4644416">
        <ele>56.8551025</ele>
        <time>2010-05-06T08:52:37Z</time>
      </trkpt>
      <trkpt lat="35.1832306" lon="24.4644278">
        <ele>57.3358154</ele>
        <time>2010-05-06T08:52:42Z</time>
      </trkpt>
      <trkpt lat="35.1831758" lon="24.4644196">
        <ele>58.2971191</ele>
        <time>2010-05-06T08:52:48Z</time>
      </trkpt>
      <trkpt lat="35.1831459" lon="24.4644449">
        <ele>58.2971191</ele>
        <time>2010-05-06T08:52:56Z</time>
      </trkpt>
      <trkpt lat="35.1831337" lon="24.4644550">
        <ele>57.8165283</ele>
        <time>2010-05-06T08:53:04Z</time>
      </trkpt>
      <trkpt lat="35.1831406" lon="24.4644614">
        <ele>55.8937988</ele>
        <time>2010-05-06T08:53:13Z</time>
      </trkpt>
      <trkpt lat="35.1831314" lon="24.4644854">
        <ele>54.9323730</ele>
        <time>2010-05-06T08:53:20Z</time>
      </trkpt>
      <trkpt lat="35.1831018" lon="24.4645169">
        <ele>54.9323730</ele>
        <time>2010-05-06T08:53:26Z</time>
      </trkpt>
      <trkpt lat="35.1830542" lon="24.4645413">
        <ele>54.4517822</ele>
        <time>2010-05-06T08:53:32Z</time>
      </trkpt>
      <trkpt lat="35.1830265" lon="24.4645573">
        <ele>54.4517822</ele>
        <time>2010-05-06T08:53:39Z</time>
      </trkpt>
      <trkpt lat="35.1829923" lon="24.4645833">
        <ele>54.4517822</ele>
        <time>2010-05-06T08:53:48Z</time>
      </trkpt>
      <trkpt lat="35.1829765" lon="24.4646133">
        <ele>53.9711914</ele>
        <time>2010-05-06T08:53:56Z</time>
      </trkpt>
      <trkpt lat="35.1829754" lon="24.4646302">
        <ele>53.9711914</ele>
        <time>2010-05-06T08:54:02Z</time>
      </trkpt>
      <trkpt lat="35.1829414" lon="24.4646583">
        <ele>56.8551025</ele>
        <time>2010-05-06T08:54:06Z</time>
      </trkpt>
      <trkpt lat="35.1828739" lon="24.4646608">
        <ele>57.3358154</ele>
        <time>2010-05-06T08:54:13Z</time>
      </trkpt>
      <trkpt lat="35.1828198" lon="24.4646736">
        <ele>57.3358154</ele>
        <time>2010-05-06T08:54:19Z</time>
      </trkpt>
      <trkpt lat="35.1827702" lon="24.4646831">
        <ele>54.4517822</ele>
        <time>2010-05-06T08:54:25Z</time>
      </trkpt>
      <trkpt lat="35.1827133" lon="24.4647018">
        <ele>54.4517822</ele>
        <time>2010-05-06T08:54:30Z</time>
      </trkpt>
      <trkpt lat="35.1826174" lon="24.4646731">
        <ele>54.9323730</ele>
        <time>2010-05-06T08:54:38Z</time>
      </trkpt>
      <trkpt lat="35.1825399" lon="24.4645760">
        <ele>54.9323730</ele>
        <time>2010-05-06T08:54:47Z</time>
      </trkpt>
      <trkpt lat="35.1824974" lon="24.4644576">
        <ele>54.4517822</ele>
        <time>2010-05-06T08:54:56Z</time>
      </trkpt>
      <trkpt lat="35.1824104" lon="24.4643784">
        <ele>55.4130859</ele>
        <time>2010-05-06T08:55:05Z</time>
      </trkpt>
      <trkpt lat="35.1823435" lon="24.4643260">
        <ele>55.4130859</ele>
        <time>2010-05-06T08:55:13Z</time>
      </trkpt>
      <trkpt lat="35.1823182" lon="24.4642972">
        <ele>56.3745117</ele>
        <time>2010-05-06T08:55:18Z</time>
      </trkpt>
      <trkpt lat="35.1822545" lon="24.4642818">
        <ele>56.3745117</ele>
        <time>2010-05-06T08:55:24Z</time>
      </trkpt>
      <trkpt lat="35.1822286" lon="24.4642763">
        <ele>56.3745117</ele>
        <time>2010-05-06T08:55:26Z</time>
      </trkpt>
      <trkpt lat="35.1821451" lon="24.4642201">
        <ele>55.8937988</ele>
        <time>2010-05-06T08:55:34Z</time>
      </trkpt>
      <trkpt lat="35.1821129" lon="24.4641971">
        <ele>55.8937988</ele>
        <time>2010-05-06T08:55:38Z</time>
      </trkpt>
      <trkpt lat="35.1819912" lon="24.4641228">
        <ele>55.4130859</ele>
        <time>2010-05-06T08:55:49Z</time>
      </trkpt>
      <trkpt lat="35.1819240" lon="24.4640341">
        <ele>54.9323730</ele>
        <time>2010-05-06T08:55:58Z</time>
      </trkpt>
      <trkpt lat="35.1818789" lon="24.4639191">
        <ele>52.5291748</ele>
        <time>2010-05-06T08:56:08Z</time>
      </trkpt>
      <trkpt lat="35.1818558" lon="24.4638513">
        <ele>51.5678711</ele>
        <time>2010-05-06T08:56:16Z</time>
      </trkpt>
      <trkpt lat="35.1818268" lon="24.4637361">
        <ele>49.1645508</ele>
        <time>2010-05-06T08:56:26Z</time>
      </trkpt>
      <trkpt lat="35.1817983" lon="24.4636590">
        <ele>47.7225342</ele>
        <time>2010-05-06T08:56:34Z</time>
      </trkpt>
      <trkpt lat="35.1817305" lon="24.4636170">
        <ele>46.7612305</ele>
        <time>2010-05-06T08:56:43Z</time>
      </trkpt>
      <trkpt lat="35.1816923" lon="24.4636492">
        <ele>45.7999268</ele>
        <time>2010-05-06T08:56:47Z</time>
      </trkpt>
      <trkpt lat="35.1816399" lon="24.4636968">
        <ele>43.8773193</ele>
        <time>2010-05-06T08:56:54Z</time>
      </trkpt>
      <trkpt lat="35.1816264" lon="24.4637084">
        <ele>43.3966064</ele>
        <time>2010-05-06T08:56:56Z</time>
      </trkpt>
      <trkpt lat="35.1816056" lon="24.4637977">
        <ele>42.4354248</ele>
        <time>2010-05-06T08:57:04Z</time>
      </trkpt>
      <trkpt lat="35.1816001" lon="24.4638257">
        <ele>42.4354248</ele>
        <time>2010-05-06T08:57:11Z</time>
      </trkpt>
      <trkpt lat="35.1815901" lon="24.4638291">
        <ele>42.4354248</ele>
        <time>2010-05-06T08:57:36Z</time>
      </trkpt>
      <trkpt lat="35.1815741" lon="24.4638114">
        <ele>42.9160156</ele>
        <time>2010-05-06T08:57:53Z</time>
      </trkpt>
      <trkpt lat="35.1815315" lon="24.4637378">
        <ele>43.3966064</ele>
        <time>2010-05-06T08:58:01Z</time>
      </trkpt>
      <trkpt lat="35.1815043" lon="24.4637078">
        <ele>43.8773193</ele>
        <time>2010-05-06T08:58:04Z</time>
      </trkpt>
      <trkpt lat="35.1814057" lon="24.4636201">
        <ele>43.8773193</ele>
        <time>2010-05-06T08:58:15Z</time>
      </trkpt>
      <trkpt lat="35.1813836" lon="24.4635854">
        <ele>43.3966064</ele>
        <time>2010-05-06T08:58:20Z</time>
      </trkpt>
      <trkpt lat="35.1813200" lon="24.4635378">
        <ele>41.9547119</ele>
        <time>2010-05-06T08:58:29Z</time>
      </trkpt>
      <trkpt lat="35.1812804" lon="24.4635395">
        <ele>41.4739990</ele>
        <time>2010-05-06T08:58:34Z</time>
      </trkpt>
      <trkpt lat="35.1812101" lon="24.4634700">
        <ele>42.9160156</ele>
        <time>2010-05-06T08:58:41Z</time>
      </trkpt>
      <trkpt lat="35.1810664" lon="24.4633824">
        <ele>46.7612305</ele>
        <time>2010-05-06T08:58:52Z</time>
      </trkpt>
      <trkpt lat="35.1809431" lon="24.4633254">
        <ele>47.7225342</ele>
        <time>2010-05-06T08:59:01Z</time>
      </trkpt>
      <trkpt lat="35.1808210" lon="24.4632688">
        <ele>49.1645508</ele>
        <time>2010-05-06T08:59:10Z</time>
      </trkpt>
      <trkpt lat="35.1806751" lon="24.4632522">
        <ele>51.5678711</ele>
        <time>2010-05-06T08:59:20Z</time>
      </trkpt>
      <trkpt lat="35.1805797" lon="24.4632194">
        <ele>52.5291748</ele>
        <time>2010-05-06T08:59:27Z</time>
      </trkpt>
      <trkpt lat="35.1805734" lon="24.4632068">
        <ele>52.0485840</ele>
        <time>2010-05-06T08:59:35Z</time>
      </trkpt>
      <trkpt lat="35.1805972" lon="24.4632098">
        <ele>51.0871582</ele>
        <time>2010-05-06T08:59:54Z</time>
      </trkpt>
      <trkpt lat="35.1806061" lon="24.4632126">
        <ele>52.0485840</ele>
        <time>2010-05-06T09:00:14Z</time>
      </trkpt>
      <trkpt lat="35.1806050" lon="24.4632116">
        <ele>52.5291748</ele>
        <time>2010-05-06T09:00:34Z</time>
      </trkpt>
      <trkpt lat="35.1805993" lon="24.4632120">
        <ele>52.5291748</ele>
        <time>2010-05-06T09:00:50Z</time>
      </trkpt>
      <trkpt lat="35.1805864" lon="24.4632178">
        <ele>52.0485840</ele>
        <time>2010-05-06T09:01:03Z</time>
      </trkpt>
      <trkpt lat="35.1805463" lon="24.4632209">
        <ele>51.5678711</ele>
        <time>2010-05-06T09:01:08Z</time>
      </trkpt>
      <trkpt lat="35.1804577" lon="24.4632290">
        <ele>52.0485840</ele>
        <time>2010-05-06T09:01:17Z</time>
      </trkpt>
      <trkpt lat="35.1803204" lon="24.4632265">
        <ele>52.0485840</ele>
        <time>2010-05-06T09:01:30Z</time>
      </trkpt>
      <trkpt lat="35.1802284" lon="24.4632308">
        <ele>52.0485840</ele>
        <time>2010-05-06T09:01:39Z</time>
      </trkpt>
      <trkpt lat="35.1801663" lon="24.4632497">
        <ele>51.5678711</ele>
        <time>2010-05-06T09:01:45Z</time>
      </trkpt>
      <trkpt lat="35.1800638" lon="24.4632875">
        <ele>51.5678711</ele>
        <time>2010-05-06T09:01:54Z</time>
      </trkpt>
      <trkpt lat="35.1799423" lon="24.4633212">
        <ele>50.1259766</ele>
        <time>2010-05-06T09:02:05Z</time>
      </trkpt>
      <trkpt lat="35.1798057" lon="24.4633486">
        <ele>47.7225342</ele>
        <time>2010-05-06T09:02:17Z</time>
      </trkpt>
      <trkpt lat="35.1796739" lon="24.4633618">
        <ele>46.2806396</ele>
        <time>2010-05-06T09:02:28Z</time>
      </trkpt>
      <trkpt lat="35.1795223" lon="24.4633548">
        <ele>46.2806396</ele>
        <time>2010-05-06T09:02:40Z</time>
      </trkpt>
      <trkpt lat="35.1793561" lon="24.4633423">
        <ele>45.7999268</ele>
        <time>2010-05-06T09:02:53Z</time>
      </trkpt>
      <trkpt lat="35.1792602" lon="24.4633540">
        <ele>43.8773193</ele>
        <time>2010-05-06T09:03:01Z</time>
      </trkpt>
      <trkpt lat="35.1790977" lon="24.4633767">
        <ele>42.4354248</ele>
        <time>2010-05-06T09:03:14Z</time>
      </trkpt>
      <trkpt lat="35.1789489" lon="24.4633621">
        <ele>41.9547119</ele>
        <time>2010-05-06T09:03:26Z</time>
      </trkpt>
      <trkpt lat="35.1788314" lon="24.4633633">
        <ele>40.9934082</ele>
        <time>2010-05-06T09:03:36Z</time>
      </trkpt>
      <trkpt lat="35.1786532" lon="24.4634326">
        <ele>41.4739990</ele>
        <time>2010-05-06T09:03:50Z</time>
      </trkpt>
      <trkpt lat="35.1784973" lon="24.4634673">
        <ele>41.9547119</ele>
        <time>2010-05-06T09:04:02Z</time>
      </trkpt>
      <trkpt lat="35.1783739" lon="24.4634616">
        <ele>41.9547119</ele>
        <time>2010-05-06T09:04:12Z</time>
      </trkpt>
      <trkpt lat="35.1782381" lon="24.4634698">
        <ele>41.4739990</ele>
        <time>2010-05-06T09:04:22Z</time>
      </trkpt>
      <trkpt lat="35.1780542" lon="24.4634760">
        <ele>41.4739990</ele>
        <time>2010-05-06T09:04:36Z</time>
      </trkpt>
      <trkpt lat="35.1779171" lon="24.4635099">
        <ele>40.9934082</ele>
        <time>2010-05-06T09:04:47Z</time>
      </trkpt>
      <trkpt lat="35.1777839" lon="24.4635609">
        <ele>40.5128174</ele>
        <time>2010-05-06T09:04:58Z</time>
      </trkpt>
      <trkpt lat="35.1776704" lon="24.4636113">
        <ele>40.0321045</ele>
        <time>2010-05-06T09:05:08Z</time>
      </trkpt>
      <trkpt lat="35.1775389" lon="24.4636626">
        <ele>39.0706787</ele>
        <time>2010-05-06T09:05:19Z</time>
      </trkpt>
      <trkpt lat="35.1774159" lon="24.4636916">
        <ele>39.0706787</ele>
        <time>2010-05-06T09:05:29Z</time>
      </trkpt>
      <trkpt lat="35.1772935" lon="24.4637102">
        <ele>39.5512695</ele>
        <time>2010-05-06T09:05:39Z</time>
      </trkpt>
      <trkpt lat="35.1771730" lon="24.4637217">
        <ele>40.0321045</ele>
        <time>2010-05-06T09:05:49Z</time>
      </trkpt>
      <trkpt lat="35.1770422" lon="24.4637414">
        <ele>40.9934082</ele>
        <time>2010-05-06T09:06:00Z</time>
      </trkpt>
      <trkpt lat="35.1769505" lon="24.4637765">
        <ele>40.5128174</ele>
        <time>2010-05-06T09:06:09Z</time>
      </trkpt>
      <trkpt lat="35.1768630" lon="24.4638125">
        <ele>40.0321045</ele>
        <time>2010-05-06T09:06:17Z</time>
      </trkpt>
      <trkpt lat="35.1767184" lon="24.4638834">
        <ele>40.5128174</ele>
        <time>2010-05-06T09:06:29Z</time>
      </trkpt>
      <trkpt lat="35.1767059" lon="24.4638899">
        <ele>40.5128174</ele>
        <time>2010-05-06T09:06:30Z</time>
      </trkpt>
      <trkpt lat="35.1766760" lon="24.4639046">
        <ele>40.0321045</ele>
        <time>2010-05-06T09:06:35Z</time>
      </trkpt>
      <trkpt lat="35.1765412" lon="24.4639902">
        <ele>40.5128174</ele>
        <time>2010-05-06T09:06:46Z</time>
      </trkpt>
      <trkpt lat="35.1763683" lon="24.4640885">
        <ele>40.5128174</ele>
        <time>2010-05-06T09:06:59Z</time>
      </trkpt>
      <trkpt lat="35.1761911" lon="24.4641924">
        <ele>40.9934082</ele>
        <time>2010-05-06T09:07:12Z</time>
      </trkpt>
      <trkpt lat="35.1759973" lon="24.4643043">
        <ele>40.9934082</ele>
        <time>2010-05-06T09:07:27Z</time>
      </trkpt>
      <trkpt lat="35.1758435" lon="24.4643900">
        <ele>40.9934082</ele>
        <time>2010-05-06T09:07:39Z</time>
      </trkpt>
      <trkpt lat="35.1757595" lon="24.4644333">
        <ele>40.5128174</ele>
        <time>2010-05-06T09:07:46Z</time>
      </trkpt>
      <trkpt lat="35.1756174" lon="24.4645196">
        <ele>38.1093750</ele>
        <time>2010-05-06T09:07:59Z</time>
      </trkpt>
      <trkpt lat="35.1754589" lon="24.4646302">
        <ele>37.1480713</ele>
        <time>2010-05-06T09:08:13Z</time>
      </trkpt>
      <trkpt lat="35.1753591" lon="24.4647032">
        <ele>36.1867676</ele>
        <time>2010-05-06T09:08:22Z</time>
      </trkpt>
      <trkpt lat="35.1753144" lon="24.4647664">
        <ele>34.7448730</ele>
        <time>2010-05-06T09:08:28Z</time>
      </trkpt>
      <trkpt lat="35.1752478" lon="24.4648832">
        <ele>33.7834473</ele>
        <time>2010-05-06T09:08:37Z</time>
      </trkpt>
      <trkpt lat="35.1751698" lon="24.4650017">
        <ele>33.7834473</ele>
        <time>2010-05-06T09:08:46Z</time>
      </trkpt>
      <trkpt lat="35.1751030" lon="24.4650810">
        <ele>34.2641602</ele>
        <time>2010-05-06T09:08:53Z</time>
      </trkpt>
      <trkpt lat="35.1750001" lon="24.4651934">
        <ele>34.7448730</ele>
        <time>2010-05-06T09:09:04Z</time>
      </trkpt>
      <trkpt lat="35.1749311" lon="24.4652676">
        <ele>35.2254639</ele>
        <time>2010-05-06T09:09:12Z</time>
      </trkpt>
      <trkpt lat="35.1748143" lon="24.4653623">
        <ele>35.2254639</ele>
        <time>2010-05-06T09:09:23Z</time>
      </trkpt>
      <trkpt lat="35.1746816" lon="24.4654498">
        <ele>35.2254639</ele>
        <time>2010-05-06T09:09:35Z</time>
      </trkpt>
      <trkpt lat="35.1745790" lon="24.4655124">
        <ele>35.2254639</ele>
        <time>2010-05-06T09:09:44Z</time>
      </trkpt>
      <trkpt lat="35.1744612" lon="24.4655954">
        <ele>33.3028564</ele>
        <time>2010-05-06T09:09:55Z</time>
      </trkpt>
      <trkpt lat="35.1743105" lon="24.4657104">
        <ele>33.3028564</ele>
        <time>2010-05-06T09:10:09Z</time>
      </trkpt>
      <trkpt lat="35.1741878" lon="24.4658165">
        <ele>31.8607178</ele>
        <time>2010-05-06T09:10:21Z</time>
      </trkpt>
      <trkpt lat="35.1740879" lon="24.4658956">
        <ele>31.3801270</ele>
        <time>2010-05-06T09:10:31Z</time>
      </trkpt>
      <trkpt lat="35.1739841" lon="24.4659645">
        <ele>31.8607178</ele>
        <time>2010-05-06T09:10:41Z</time>
      </trkpt>
      <trkpt lat="35.1739553" lon="24.4659889">
        <ele>31.8607178</ele>
        <time>2010-05-06T09:10:49Z</time>
      </trkpt>
      <trkpt lat="35.1739297" lon="24.4660087">
        <ele>32.3415527</ele>
        <time>2010-05-06T09:10:55Z</time>
      </trkpt>
      <trkpt lat="35.1739257" lon="24.4660146">
        <ele>32.8222656</ele>
        <time>2010-05-06T09:11:03Z</time>
      </trkpt>
      <trkpt lat="35.1739445" lon="24.4660082">
        <ele>32.8222656</ele>
        <time>2010-05-06T09:11:11Z</time>
      </trkpt>
      <trkpt lat="35.1739434" lon="24.4660151">
        <ele>33.3028564</ele>
        <time>2010-05-06T09:11:20Z</time>
      </trkpt>
      <trkpt lat="35.1739310" lon="24.4660450">
        <ele>33.3028564</ele>
        <time>2010-05-06T09:11:38Z</time>
      </trkpt>
      <trkpt lat="35.1739222" lon="24.4660801">
        <ele>33.7834473</ele>
        <time>2010-05-06T09:11:46Z</time>
      </trkpt>
      <trkpt lat="35.1739362" lon="24.4661354">
        <ele>33.3028564</ele>
        <time>2010-05-06T09:11:57Z</time>
      </trkpt>
      <trkpt lat="35.1739605" lon="24.4662256">
        <ele>33.7834473</ele>
        <time>2010-05-06T09:12:06Z</time>
      </trkpt>
      <trkpt lat="35.1739666" lon="24.4662294">
        <ele>32.8222656</ele>
        <time>2010-05-06T09:12:16Z</time>
      </trkpt>
      <trkpt lat="35.1739790" lon="24.4662497">
        <ele>32.8222656</ele>
        <time>2010-05-06T09:12:24Z</time>
      </trkpt>
      <trkpt lat="35.1739895" lon="24.4662611">
        <ele>32.3415527</ele>
        <time>2010-05-06T09:12:35Z</time>
      </trkpt>
      <trkpt lat="35.1740039" lon="24.4663412">
        <ele>32.3415527</ele>
        <time>2010-05-06T09:12:43Z</time>
      </trkpt>
      <trkpt lat="35.1740093" lon="24.4664051">
        <ele>32.3415527</ele>
        <time>2010-05-06T09:12:49Z</time>
      </trkpt>
      <trkpt lat="35.1740148" lon="24.4664495">
        <ele>32.8222656</ele>
        <time>2010-05-06T09:12:55Z</time>
      </trkpt>
      <trkpt lat="35.1740183" lon="24.4664479">
        <ele>32.8222656</ele>
        <time>2010-05-06T09:12:59Z</time>
      </trkpt>
      <trkpt lat="35.1724396" lon="24.4678424">
        <ele>31.3801270</ele>
        <time>2010-05-06T09:18:51Z</time>
      </trkpt>
      <trkpt lat="35.1724282" lon="24.4678496">
        <ele>31.3801270</ele>
        <time>2010-05-06T09:18:52Z</time>
      </trkpt>
      <trkpt lat="35.1723903" lon="24.4678803">
        <ele>29.9381104</ele>
        <time>2010-05-06T09:18:56Z</time>
      </trkpt>
      <trkpt lat="35.1723490" lon="24.4679037">
        <ele>29.4575195</ele>
        <time>2010-05-06T09:19:03Z</time>
      </trkpt>
      <trkpt lat="35.1723122" lon="24.4679372">
        <ele>33.7834473</ele>
        <time>2010-05-06T09:19:24Z</time>
      </trkpt>
      <trkpt lat="35.1722463" lon="24.4679984">
        <ele>31.8607178</ele>
        <time>2010-05-06T09:19:33Z</time>
      </trkpt>
      <trkpt lat="35.1722195" lon="24.4680224">
        <ele>31.8607178</ele>
        <time>2010-05-06T09:19:36Z</time>
      </trkpt>
      <trkpt lat="35.1721242" lon="24.4680850">
        <ele>29.9381104</ele>
        <time>2010-05-06T09:19:47Z</time>
      </trkpt>
      <trkpt lat="35.1720823" lon="24.4680947">
        <ele>31.3801270</ele>
        <time>2010-05-06T09:19:54Z</time>
      </trkpt>
      <trkpt lat="35.1720735" lon="24.4680827">
        <ele>31.8607178</ele>
        <time>2010-05-06T09:19:59Z</time>
      </trkpt>
      <trkpt lat="35.1720843" lon="24.4680832">
        <ele>31.8607178</ele>
        <time>2010-05-06T09:20:09Z</time>
      </trkpt>
      <trkpt lat="35.1720651" lon="24.4681464">
        <ele>33.7834473</ele>
        <time>2010-05-06T09:20:24Z</time>
      </trkpt>
      <trkpt lat="35.1719703" lon="24.4682593">
        <ele>33.3028564</ele>
        <time>2010-05-06T09:20:36Z</time>
      </trkpt>
      <trkpt lat="35.1718833" lon="24.4684095">
        <ele>33.3028564</ele>
        <time>2010-05-06T09:20:47Z</time>
      </trkpt>
      <trkpt lat="35.1718074" lon="24.4686097">
        <ele>33.3028564</ele>
        <time>2010-05-06T09:21:01Z</time>
      </trkpt>
      <trkpt lat="35.1717795" lon="24.4687722">
        <ele>32.8222656</ele>
        <time>2010-05-06T09:21:12Z</time>
      </trkpt>
      <trkpt lat="35.1717735" lon="24.4689130">
        <ele>32.8222656</ele>
        <time>2010-05-06T09:21:22Z</time>
      </trkpt>
      <trkpt lat="35.1717813" lon="24.4690437">
        <ele>31.3801270</ele>
        <time>2010-05-06T09:21:31Z</time>
      </trkpt>
      <trkpt lat="35.1717886" lon="24.4691976">
        <ele>30.4188232</ele>
        <time>2010-05-06T09:21:42Z</time>
      </trkpt>
      <trkpt lat="35.1717981" lon="24.4693105">
        <ele>29.4575195</ele>
        <time>2010-05-06T09:21:50Z</time>
      </trkpt>
      <trkpt lat="35.1717916" lon="24.4694872">
        <ele>29.4575195</ele>
        <time>2010-05-06T09:22:02Z</time>
      </trkpt>
      <trkpt lat="35.1717879" lon="24.4696456">
        <ele>30.4188232</ele>
        <time>2010-05-06T09:22:13Z</time>
      </trkpt>
      <trkpt lat="35.1717821" lon="24.4697994">
        <ele>30.4188232</ele>
        <time>2010-05-06T09:22:23Z</time>
      </trkpt>
      <trkpt lat="35.1717619" lon="24.4699703">
        <ele>30.8995361</ele>
        <time>2010-05-06T09:22:34Z</time>
      </trkpt>
      <trkpt lat="35.1717560" lon="24.4700987">
        <ele>30.4188232</ele>
        <time>2010-05-06T09:22:43Z</time>
      </trkpt>
      <trkpt lat="35.1717709" lon="24.4702268">
        <ele>29.9381104</ele>
        <time>2010-05-06T09:22:52Z</time>
      </trkpt>
      <trkpt lat="35.1718046" lon="24.4703648">
        <ele>29.4575195</ele>
        <time>2010-05-06T09:23:02Z</time>
      </trkpt>
      <trkpt lat="35.1718486" lon="24.4704984">
        <ele>28.9769287</ele>
        <time>2010-05-06T09:23:12Z</time>
      </trkpt>
      <trkpt lat="35.1719372" lon="24.4706655">
        <ele>28.9769287</ele>
        <time>2010-05-06T09:23:24Z</time>
      </trkpt>
      <trkpt lat="35.1720133" lon="24.4707997">
        <ele>28.9769287</ele>
        <time>2010-05-06T09:23:33Z</time>
      </trkpt>
      <trkpt lat="35.1720558" lon="24.4709375">
        <ele>28.9769287</ele>
        <time>2010-05-06T09:23:43Z</time>
      </trkpt>
      <trkpt lat="35.1720906" lon="24.4710744">
        <ele>28.4962158</ele>
        <time>2010-05-06T09:23:53Z</time>
      </trkpt>
      <trkpt lat="35.1721175" lon="24.4711866">
        <ele>28.4962158</ele>
        <time>2010-05-06T09:24:01Z</time>
      </trkpt>
      <trkpt lat="35.1721133" lon="24.4713124">
        <ele>27.5349121</ele>
        <time>2010-05-06T09:24:10Z</time>
      </trkpt>
      <trkpt lat="35.1720997" lon="24.4713432">
        <ele>28.0155029</ele>
        <time>2010-05-06T09:24:13Z</time>
      </trkpt>
      <trkpt lat="35.1720656" lon="24.4713664">
        <ele>28.0155029</ele>
        <time>2010-05-06T09:24:17Z</time>
      </trkpt>
      <trkpt lat="35.1720069" lon="24.4714069">
        <ele>27.5349121</ele>
        <time>2010-05-06T09:24:26Z</time>
      </trkpt>
      <trkpt lat="35.1719962" lon="24.4714158">
        <ele>28.0155029</ele>
        <time>2010-05-06T09:24:34Z</time>
      </trkpt>
      <trkpt lat="35.1719734" lon="24.4714155">
        <ele>29.4575195</ele>
        <time>2010-05-06T09:24:45Z</time>
      </trkpt>
      <trkpt lat="35.1719409" lon="24.4714276">
        <ele>29.9381104</ele>
        <time>2010-05-06T09:24:52Z</time>
      </trkpt>
      <trkpt lat="35.1719039" lon="24.4714456">
        <ele>29.4575195</ele>
        <time>2010-05-06T09:25:00Z</time>
      </trkpt>
      <trkpt lat="35.1718833" lon="24.4714494">
        <ele>28.9769287</ele>
        <time>2010-05-06T09:25:06Z</time>
      </trkpt>
      <trkpt lat="35.1718513" lon="24.4714468">
        <ele>29.4575195</ele>
        <time>2010-05-06T09:25:12Z</time>
      </trkpt>
      <trkpt lat="35.1717974" lon="24.4714199">
        <ele>28.9769287</ele>
        <time>2010-05-06T09:25:19Z</time>
      </trkpt>
      <trkpt lat="35.1717020" lon="24.4713613">
        <ele>28.0155029</ele>
        <time>2010-05-06T09:25:30Z</time>
      </trkpt>
      <trkpt lat="35.1716456" lon="24.4713337">
        <ele>28.0155029</ele>
        <time>2010-05-06T09:25:36Z</time>
      </trkpt>
      <trkpt lat="35.1715239" lon="24.4713079">
        <ele>27.0543213</ele>
        <time>2010-05-06T09:25:48Z</time>
      </trkpt>
      <trkpt lat="35.1713912" lon="24.4713111">
        <ele>25.6123047</ele>
        <time>2010-05-06T09:26:00Z</time>
      </trkpt>
      <trkpt lat="35.1713150" lon="24.4713132">
        <ele>26.0928955</ele>
        <time>2010-05-06T09:26:07Z</time>
      </trkpt>
      <trkpt lat="35.1712034" lon="24.4713052">
        <ele>25.6123047</ele>
        <time>2010-05-06T09:26:17Z</time>
      </trkpt>
      <trkpt lat="35.1710765" lon="24.4712924">
        <ele>26.0928955</ele>
        <time>2010-05-06T09:26:29Z</time>
      </trkpt>
      <trkpt lat="35.1709933" lon="24.4712953">
        <ele>26.5736084</ele>
        <time>2010-05-06T09:26:37Z</time>
      </trkpt>
      <trkpt lat="35.1708898" lon="24.4713220">
        <ele>27.5349121</ele>
        <time>2010-05-06T09:26:47Z</time>
      </trkpt>
      <trkpt lat="35.1707581" lon="24.4713748">
        <ele>32.3415527</ele>
        <time>2010-05-06T09:26:58Z</time>
      </trkpt>
      <trkpt lat="35.1706536" lon="24.4714207">
        <ele>32.8222656</ele>
        <time>2010-05-06T09:27:08Z</time>
      </trkpt>
      <trkpt lat="35.1705213" lon="24.4714492">
        <ele>32.3415527</ele>
        <time>2010-05-06T09:27:19Z</time>
      </trkpt>
      <trkpt lat="35.1704225" lon="24.4714344">
        <ele>31.8607178</ele>
        <time>2010-05-06T09:27:28Z</time>
      </trkpt>
      <trkpt lat="35.1703917" lon="24.4714286">
        <ele>31.3801270</ele>
        <time>2010-05-06T09:27:33Z</time>
      </trkpt>
      <trkpt lat="35.1703464" lon="24.4714236">
        <ele>30.8995361</ele>
        <time>2010-05-06T09:27:37Z</time>
      </trkpt>
      <trkpt lat="35.1701838" lon="24.4714432">
        <ele>30.8995361</ele>
        <time>2010-05-06T09:27:50Z</time>
      </trkpt>
      <trkpt lat="35.1700329" lon="24.4714868">
        <ele>30.8995361</ele>
        <time>2010-05-06T09:28:02Z</time>
      </trkpt>
      <trkpt lat="35.1699298" lon="24.4715199">
        <ele>32.8222656</ele>
        <time>2010-05-06T09:28:10Z</time>
      </trkpt>
      <trkpt lat="35.1698133" lon="24.4715445">
        <ele>33.7834473</ele>
        <time>2010-05-06T09:28:19Z</time>
      </trkpt>
      <trkpt lat="35.1697992" lon="24.4715483">
        <ele>34.2641602</ele>
        <time>2010-05-06T09:28:20Z</time>
      </trkpt>
      <trkpt lat="35.1696413" lon="24.4715685">
        <ele>39.0706787</ele>
        <time>2010-05-06T09:28:31Z</time>
      </trkpt>
      <trkpt lat="35.1694767" lon="24.4715650">
        <ele>39.5512695</ele>
        <time>2010-05-06T09:28:43Z</time>
      </trkpt>
      <trkpt lat="35.1693713" lon="24.4715535">
        <ele>41.4739990</ele>
        <time>2010-05-06T09:28:51Z</time>
      </trkpt>
      <trkpt lat="35.1692544" lon="24.4715262">
        <ele>42.4354248</ele>
        <time>2010-05-06T09:29:01Z</time>
      </trkpt>
      <trkpt lat="35.1691438" lon="24.4715451">
        <ele>43.8773193</ele>
        <time>2010-05-06T09:29:10Z</time>
      </trkpt>
      <trkpt lat="35.1690307" lon="24.4716205">
        <ele>44.8386230</ele>
        <time>2010-05-06T09:29:19Z</time>
      </trkpt>
      <trkpt lat="35.1689327" lon="24.4717104">
        <ele>46.2806396</ele>
        <time>2010-05-06T09:29:28Z</time>
      </trkpt>
      <trkpt lat="35.1688795" lon="24.4717460">
        <ele>48.2033691</ele>
        <time>2010-05-06T09:29:33Z</time>
      </trkpt>
      <trkpt lat="35.1688735" lon="24.4717517">
        <ele>48.2033691</ele>
        <time>2010-05-06T09:29:43Z</time>
      </trkpt>
      <trkpt lat="35.1688958" lon="24.4717181">
        <ele>48.2033691</ele>
        <time>2010-05-06T09:29:50Z</time>
      </trkpt>
      <trkpt lat="35.1689503" lon="24.4716596">
        <ele>47.7225342</ele>
        <time>2010-05-06T09:30:01Z</time>
      </trkpt>
      <trkpt lat="35.1689457" lon="24.4716652">
        <ele>50.6065674</ele>
        <time>2010-05-06T09:30:38Z</time>
      </trkpt>
      <trkpt lat="35.1689503" lon="24.4716821">
        <ele>51.0871582</ele>
        <time>2010-05-06T09:30:46Z</time>
      </trkpt>
      <trkpt lat="35.1688845" lon="24.4717337">
        <ele>51.5678711</ele>
        <time>2010-05-06T09:30:54Z</time>
      </trkpt>
      <trkpt lat="35.1688063" lon="24.4717846">
        <ele>52.0485840</ele>
        <time>2010-05-06T09:31:04Z</time>
      </trkpt>
      <trkpt lat="35.1687436" lon="24.4718093">
        <ele>53.0097656</ele>
        <time>2010-05-06T09:31:13Z</time>
      </trkpt>
      <trkpt lat="35.1686597" lon="24.4718504">
        <ele>54.4517822</ele>
        <time>2010-05-06T09:31:21Z</time>
      </trkpt>
      <trkpt lat="35.1685851" lon="24.4718970">
        <ele>54.9323730</ele>
        <time>2010-05-06T09:31:29Z</time>
      </trkpt>
      <trkpt lat="35.1685095" lon="24.4719452">
        <ele>54.9323730</ele>
        <time>2010-05-06T09:31:36Z</time>
      </trkpt>
      <trkpt lat="35.1684048" lon="24.4720207">
        <ele>54.9323730</ele>
        <time>2010-05-06T09:31:46Z</time>
      </trkpt>
      <trkpt lat="35.1683058" lon="24.4721192">
        <ele>53.9711914</ele>
        <time>2010-05-06T09:31:57Z</time>
      </trkpt>
      <trkpt lat="35.1682624" lon="24.4721711">
        <ele>54.4517822</ele>
        <time>2010-05-06T09:32:05Z</time>
      </trkpt>
      <trkpt lat="35.1682131" lon="24.4722445">
        <ele>54.9323730</ele>
        <time>2010-05-06T09:32:13Z</time>
      </trkpt>
      <trkpt lat="35.1681955" lon="24.4722796">
        <ele>54.9323730</ele>
        <time>2010-05-06T09:32:16Z</time>
      </trkpt>
      <trkpt lat="35.1681487" lon="24.4724186">
        <ele>54.4517822</ele>
        <time>2010-05-06T09:32:27Z</time>
      </trkpt>
      <trkpt lat="35.1681190" lon="24.4725253">
        <ele>54.4517822</ele>
        <time>2010-05-06T09:32:36Z</time>
      </trkpt>
      <trkpt lat="35.1680805" lon="24.4725720">
        <ele>54.4517822</ele>
        <time>2010-05-06T09:32:44Z</time>
      </trkpt>
      <trkpt lat="35.1680526" lon="24.4726387">
        <ele>53.4904785</ele>
        <time>2010-05-06T09:32:50Z</time>
      </trkpt>
      <trkpt lat="35.1680267" lon="24.4727832">
        <ele>52.5291748</ele>
        <time>2010-05-06T09:33:01Z</time>
      </trkpt>
      <trkpt lat="35.1680110" lon="24.4728890">
        <ele>52.0485840</ele>
        <time>2010-05-06T09:33:09Z</time>
      </trkpt>
      <trkpt lat="35.1679555" lon="24.4729257">
        <ele>51.0871582</ele>
        <time>2010-05-06T09:33:16Z</time>
      </trkpt>
      <trkpt lat="35.1678988" lon="24.4729226">
        <ele>49.6452637</ele>
        <time>2010-05-06T09:33:23Z</time>
      </trkpt>
      <trkpt lat="35.1678392" lon="24.4729180">
        <ele>48.2033691</ele>
        <time>2010-05-06T09:33:30Z</time>
      </trkpt>
      <trkpt lat="35.1677724" lon="24.4729036">
        <ele>45.3192139</ele>
        <time>2010-05-06T09:33:37Z</time>
      </trkpt>
      <trkpt lat="35.1677183" lon="24.4728852">
        <ele>43.3966064</ele>
        <time>2010-05-06T09:33:44Z</time>
      </trkpt>
      <trkpt lat="35.1676494" lon="24.4728781">
        <ele>41.4739990</ele>
        <time>2010-05-06T09:33:52Z</time>
      </trkpt>
      <trkpt lat="35.1675647" lon="24.4728796">
        <ele>40.5128174</ele>
        <time>2010-05-06T09:34:01Z</time>
      </trkpt>
      <trkpt lat="35.1675096" lon="24.4728725">
        <ele>39.5512695</ele>
        <time>2010-05-06T09:34:07Z</time>
      </trkpt>
      <trkpt lat="35.1674684" lon="24.4728799">
        <ele>38.5900879</ele>
        <time>2010-05-06T09:34:13Z</time>
      </trkpt>
      <trkpt lat="35.1674310" lon="24.4729148">
        <ele>37.6286621</ele>
        <time>2010-05-06T09:34:19Z</time>
      </trkpt>
      <trkpt lat="35.1674106" lon="24.4729315">
        <ele>37.6286621</ele>
        <time>2010-05-06T09:34:27Z</time>
      </trkpt>
      <trkpt lat="35.1674077" lon="24.4729589">
        <ele>36.6674805</ele>
        <time>2010-05-06T09:34:32Z</time>
      </trkpt>
      <trkpt lat="35.1673947" lon="24.4729654">
        <ele>36.1867676</ele>
        <time>2010-05-06T09:34:37Z</time>
      </trkpt>
      <trkpt lat="35.1673527" lon="24.4729660">
        <ele>35.7060547</ele>
        <time>2010-05-06T09:34:44Z</time>
      </trkpt>
      <trkpt lat="35.1673377" lon="24.4729698">
        <ele>35.2254639</ele>
        <time>2010-05-06T09:34:50Z</time>
      </trkpt>
      <trkpt lat="35.1673041" lon="24.4729968">
        <ele>34.7448730</ele>
        <time>2010-05-06T09:34:57Z</time>
      </trkpt>
      <trkpt lat="35.1672728" lon="24.4730540">
        <ele>35.2254639</ele>
        <time>2010-05-06T09:35:04Z</time>
      </trkpt>
      <trkpt lat="35.1672377" lon="24.4731121">
        <ele>32.8222656</ele>
        <time>2010-05-06T09:35:12Z</time>
      </trkpt>
      <trkpt lat="35.1672083" lon="24.4731731">
        <ele>31.8607178</ele>
        <time>2010-05-06T09:35:18Z</time>
      </trkpt>
      <trkpt lat="35.1671819" lon="24.4732099">
        <ele>30.4188232</ele>
        <time>2010-05-06T09:35:23Z</time>
      </trkpt>
      <trkpt lat="35.1671435" lon="24.4732603">
        <ele>29.4575195</ele>
        <time>2010-05-06T09:35:29Z</time>
      </trkpt>
      <trkpt lat="35.1670808" lon="24.4733171">
        <ele>27.5349121</ele>
        <time>2010-05-06T09:35:38Z</time>
      </trkpt>
      <trkpt lat="35.1670193" lon="24.4733381">
        <ele>26.5736084</ele>
        <time>2010-05-06T09:35:44Z</time>
      </trkpt>
      <trkpt lat="35.1669970" lon="24.4733343">
        <ele>26.0928955</ele>
        <time>2010-05-06T09:35:46Z</time>
      </trkpt>
      <trkpt lat="35.1669404" lon="24.4733422">
        <ele>25.1317139</ele>
        <time>2010-05-06T09:35:53Z</time>
      </trkpt>
      <trkpt lat="35.1669055" lon="24.4733444">
        <ele>23.2089844</ele>
        <time>2010-05-06T09:35:59Z</time>
      </trkpt>
      <trkpt lat="35.1668679" lon="24.4733635">
        <ele>23.2089844</ele>
        <time>2010-05-06T09:36:04Z</time>
      </trkpt>
      <trkpt lat="35.1668305" lon="24.4733707">
        <ele>22.7282715</ele>
        <time>2010-05-06T09:36:10Z</time>
      </trkpt>
      <trkpt lat="35.1668089" lon="24.4733693">
        <ele>24.6510010</ele>
        <time>2010-05-06T09:36:16Z</time>
      </trkpt>
      <trkpt lat="35.1667840" lon="24.4733712">
        <ele>24.6510010</ele>
        <time>2010-05-06T09:36:26Z</time>
      </trkpt>
      <trkpt lat="35.1667450" lon="24.4734024">
        <ele>24.6510010</ele>
        <time>2010-05-06T09:36:33Z</time>
      </trkpt>
      <trkpt lat="35.1666949" lon="24.4734425">
        <ele>26.5736084</ele>
        <time>2010-05-06T09:36:40Z</time>
      </trkpt>
      <trkpt lat="35.1666522" lon="24.4734722">
        <ele>27.5349121</ele>
        <time>2010-05-06T09:36:46Z</time>
      </trkpt>
      <trkpt lat="35.1666165" lon="24.4734837">
        <ele>33.7834473</ele>
        <time>2010-05-06T09:36:55Z</time>
      </trkpt>
      <trkpt lat="35.1665885" lon="24.4734852">
        <ele>35.7060547</ele>
        <time>2010-05-06T09:37:03Z</time>
      </trkpt>
      <trkpt lat="35.1665844" lon="24.4734796">
        <ele>32.3415527</ele>
        <time>2010-05-06T09:37:09Z</time>
      </trkpt>
      <trkpt lat="35.1665721" lon="24.4734658">
        <ele>31.3801270</ele>
        <time>2010-05-06T09:37:15Z</time>
      </trkpt>
      <trkpt lat="35.1665377" lon="24.4734690">
        <ele>33.3028564</ele>
        <time>2010-05-06T09:37:22Z</time>
      </trkpt>
      <trkpt lat="35.1665137" lon="24.4734703">
        <ele>34.2641602</ele>
        <time>2010-05-06T09:37:24Z</time>
      </trkpt>
      <trkpt lat="35.1664047" lon="24.4734754">
        <ele>40.5128174</ele>
        <time>2010-05-06T09:37:34Z</time>
      </trkpt>
      <trkpt lat="35.1663371" lon="24.4735052">
        <ele>45.3192139</ele>
        <time>2010-05-06T09:37:43Z</time>
      </trkpt>
      <trkpt lat="35.1662991" lon="24.4735246">
        <ele>46.7612305</ele>
        <time>2010-05-06T09:37:50Z</time>
      </trkpt>
      <trkpt lat="35.1662594" lon="24.4735188">
        <ele>50.1259766</ele>
        <time>2010-05-06T09:37:56Z</time>
      </trkpt>
      <trkpt lat="35.1662008" lon="24.4735213">
        <ele>53.4904785</ele>
        <time>2010-05-06T09:38:05Z</time>
      </trkpt>
      <trkpt lat="35.1661571" lon="24.4734829">
        <ele>50.6065674</ele>
        <time>2010-05-06T09:38:13Z</time>
      </trkpt>
      <trkpt lat="35.1660988" lon="24.4735107">
        <ele>49.6452637</ele>
        <time>2010-05-06T09:38:21Z</time>
      </trkpt>
      <trkpt lat="35.1660293" lon="24.4735691">
        <ele>47.2418213</ele>
        <time>2010-05-06T09:38:31Z</time>
      </trkpt>
      <trkpt lat="35.1660122" lon="24.4735919">
        <ele>46.2806396</ele>
        <time>2010-05-06T09:38:36Z</time>
      </trkpt>
      <trkpt lat="35.1659783" lon="24.4736309">
        <ele>45.7999268</ele>
        <time>2010-05-06T09:38:45Z</time>
      </trkpt>
      <trkpt lat="35.1659484" lon="24.4736766">
        <ele>45.7999268</ele>
        <time>2010-05-06T09:38:52Z</time>
      </trkpt>
      <trkpt lat="35.1659337" lon="24.4736982">
        <ele>46.2806396</ele>
        <time>2010-05-06T09:38:58Z</time>
      </trkpt>
      <trkpt lat="35.1659291" lon="24.4736999">
        <ele>46.2806396</ele>
        <time>2010-05-06T09:39:06Z</time>
      </trkpt>
      <trkpt lat="35.1659296" lon="24.4736909">
        <ele>45.7999268</ele>
        <time>2010-05-06T09:39:14Z</time>
      </trkpt>
      <trkpt lat="35.1659174" lon="24.4737074">
        <ele>45.7999268</ele>
        <time>2010-05-06T09:39:23Z</time>
      </trkpt>
      <trkpt lat="35.1658491" lon="24.4737182">
        <ele>46.7612305</ele>
        <time>2010-05-06T09:39:31Z</time>
      </trkpt>
      <trkpt lat="35.1657614" lon="24.4737214">
        <ele>45.7999268</ele>
        <time>2010-05-06T09:39:40Z</time>
      </trkpt>
      <trkpt lat="35.1657310" lon="24.4737120">
        <ele>45.7999268</ele>
        <time>2010-05-06T09:39:43Z</time>
      </trkpt>
      <trkpt lat="35.1656875" lon="24.4736913">
        <ele>45.3192139</ele>
        <time>2010-05-06T09:39:47Z</time>
      </trkpt>
      <trkpt lat="35.1655948" lon="24.4736478">
        <ele>45.3192139</ele>
        <time>2010-05-06T09:39:56Z</time>
      </trkpt>
      <trkpt lat="35.1655640" lon="24.4736307">
        <ele>45.7999268</ele>
        <time>2010-05-06T09:39:59Z</time>
      </trkpt>
      <trkpt lat="35.1654983" lon="24.4736162">
        <ele>46.7612305</ele>
        <time>2010-05-06T09:40:05Z</time>
      </trkpt>
      <trkpt lat="35.1654009" lon="24.4735772">
        <ele>42.4354248</ele>
        <time>2010-05-06T09:40:15Z</time>
      </trkpt>
      <trkpt lat="35.1653100" lon="24.4735634">
        <ele>40.9934082</ele>
        <time>2010-05-06T09:40:23Z</time>
      </trkpt>
      <trkpt lat="35.1651870" lon="24.4735264">
        <ele>39.0706787</ele>
        <time>2010-05-06T09:40:34Z</time>
      </trkpt>
      <trkpt lat="35.1650371" lon="24.4735041">
        <ele>36.6674805</ele>
        <time>2010-05-06T09:40:48Z</time>
      </trkpt>
      <trkpt lat="35.1649694" lon="24.4735373">
        <ele>35.2254639</ele>
        <time>2010-05-06T09:40:55Z</time>
      </trkpt>
      <trkpt lat="35.1648896" lon="24.4736314">
        <ele>33.3028564</ele>
        <time>2010-05-06T09:41:06Z</time>
      </trkpt>
      <trkpt lat="35.1648345" lon="24.4737077">
        <ele>31.8607178</ele>
        <time>2010-05-06T09:41:14Z</time>
      </trkpt>
      <trkpt lat="35.1648087" lon="24.4737509">
        <ele>30.4188232</ele>
        <time>2010-05-06T09:41:18Z</time>
      </trkpt>
      <trkpt lat="35.1647665" lon="24.4738637">
        <ele>30.4188232</ele>
        <time>2010-05-06T09:41:27Z</time>
      </trkpt>
      <trkpt lat="35.1647301" lon="24.4739456">
        <ele>29.4575195</ele>
        <time>2010-05-06T09:41:35Z</time>
      </trkpt>
      <trkpt lat="35.1646983" lon="24.4739902">
        <ele>29.9381104</ele>
        <time>2010-05-06T09:41:41Z</time>
      </trkpt>
      <trkpt lat="35.1646576" lon="24.4740466">
        <ele>29.4575195</ele>
        <time>2010-05-06T09:41:48Z</time>
      </trkpt>
      <trkpt lat="35.1645823" lon="24.4741366">
        <ele>29.4575195</ele>
        <time>2010-05-06T09:41:58Z</time>
      </trkpt>
      <trkpt lat="35.1645384" lon="24.4742176">
        <ele>29.4575195</ele>
        <time>2010-05-06T09:42:06Z</time>
      </trkpt>
      <trkpt lat="35.1645157" lon="24.4742881">
        <ele>29.4575195</ele>
        <time>2010-05-06T09:42:13Z</time>
      </trkpt>
      <trkpt lat="35.1645083" lon="24.4743109">
        <ele>29.4575195</ele>
        <time>2010-05-06T09:42:18Z</time>
      </trkpt>
      <trkpt lat="35.1644706" lon="24.4743756">
        <ele>29.9381104</ele>
        <time>2010-05-06T09:42:26Z</time>
      </trkpt>
      <trkpt lat="35.1644414" lon="24.4744383">
        <ele>29.9381104</ele>
        <time>2010-05-06T09:42:32Z</time>
      </trkpt>
      <trkpt lat="35.1644115" lon="24.4745065">
        <ele>29.9381104</ele>
        <time>2010-05-06T09:42:38Z</time>
      </trkpt>
      <trkpt lat="35.1643911" lon="24.4745456">
        <ele>29.4575195</ele>
        <time>2010-05-06T09:42:42Z</time>
      </trkpt>
      <trkpt lat="35.1643359" lon="24.4746177">
        <ele>29.4575195</ele>
        <time>2010-05-06T09:42:50Z</time>
      </trkpt>
      <trkpt lat="35.1642789" lon="24.4746950">
        <ele>29.4575195</ele>
        <time>2010-05-06T09:42:58Z</time>
      </trkpt>
      <trkpt lat="35.1642696" lon="24.4747042">
        <ele>29.9381104</ele>
        <time>2010-05-06T09:42:59Z</time>
      </trkpt>
      <trkpt lat="35.1642456" lon="24.4747293">
        <ele>29.4575195</ele>
        <time>2010-05-06T09:43:03Z</time>
      </trkpt>
      <trkpt lat="35.1641510" lon="24.4748486">
        <ele>28.0155029</ele>
        <time>2010-05-06T09:43:15Z</time>
      </trkpt>
      <trkpt lat="35.1640903" lon="24.4749423">
        <ele>27.0543213</ele>
        <time>2010-05-06T09:43:24Z</time>
      </trkpt>
      <trkpt lat="35.1640349" lon="24.4750377">
        <ele>26.5736084</ele>
        <time>2010-05-06T09:43:33Z</time>
      </trkpt>
      <trkpt lat="35.1639874" lon="24.4751350">
        <ele>26.5736084</ele>
        <time>2010-05-06T09:43:42Z</time>
      </trkpt>
      <trkpt lat="35.1639701" lon="24.4751536">
        <ele>26.5736084</ele>
        <time>2010-05-06T09:43:44Z</time>
      </trkpt>
      <trkpt lat="35.1639204" lon="24.4752200">
        <ele>25.1317139</ele>
        <time>2010-05-06T09:43:53Z</time>
      </trkpt>
      <trkpt lat="35.1639293" lon="24.4752200">
        <ele>23.2089844</ele>
        <time>2010-05-06T09:44:07Z</time>
      </trkpt>
      <trkpt lat="35.1638842" lon="24.4752381">
        <ele>27.0543213</ele>
        <time>2010-05-06T09:44:28Z</time>
      </trkpt>
      <trkpt lat="35.1638355" lon="24.4752712">
        <ele>25.6123047</ele>
        <time>2010-05-06T09:44:37Z</time>
      </trkpt>
      <trkpt lat="35.1637645" lon="24.4752878">
        <ele>25.1317139</ele>
        <time>2010-05-06T09:44:44Z</time>
      </trkpt>
      <trkpt lat="35.1637459" lon="24.4753003">
        <ele>25.1317139</ele>
        <time>2010-05-06T09:44:46Z</time>
      </trkpt>
      <trkpt lat="35.1636438" lon="24.4752754">
        <ele>25.1317139</ele>
        <time>2010-05-06T09:44:56Z</time>
      </trkpt>
      <trkpt lat="35.1635607" lon="24.4752726">
        <ele>25.1317139</ele>
        <time>2010-05-06T09:45:04Z</time>
      </trkpt>
      <trkpt lat="35.1634520" lon="24.4753027">
        <ele>25.6123047</ele>
        <time>2010-05-06T09:45:14Z</time>
      </trkpt>
      <trkpt lat="35.1633574" lon="24.4753073">
        <ele>25.6123047</ele>
        <time>2010-05-06T09:45:22Z</time>
      </trkpt>
      <trkpt lat="35.1632662" lon="24.4752957">
        <ele>25.1317139</ele>
        <time>2010-05-06T09:45:30Z</time>
      </trkpt>
      <trkpt lat="35.1631910" lon="24.4753521">
        <ele>24.1702881</ele>
        <time>2010-05-06T09:45:38Z</time>
      </trkpt>
      <trkpt lat="35.1631708" lon="24.4753878">
        <ele>24.6510010</ele>
        <time>2010-05-06T09:45:42Z</time>
      </trkpt>
      <trkpt lat="35.1631116" lon="24.4754763">
        <ele>24.6510010</ele>
        <time>2010-05-06T09:45:51Z</time>
      </trkpt>
      <trkpt lat="35.1630563" lon="24.4755053">
        <ele>24.1702881</ele>
        <time>2010-05-06T09:45:59Z</time>
      </trkpt>
      <trkpt lat="35.1630130" lon="24.4755361">
        <ele>24.6510010</ele>
        <time>2010-05-06T09:46:05Z</time>
      </trkpt>
      <trkpt lat="35.1629331" lon="24.4756133">
        <ele>25.6123047</ele>
        <time>2010-05-06T09:46:15Z</time>
      </trkpt>
      <trkpt lat="35.1628710" lon="24.4756617">
        <ele>26.0928955</ele>
        <time>2010-05-06T09:46:23Z</time>
      </trkpt>
      <trkpt lat="35.1628440" lon="24.4756675">
        <ele>27.5349121</ele>
        <time>2010-05-06T09:46:29Z</time>
      </trkpt>
      <trkpt lat="35.1628163" lon="24.4756985">
        <ele>28.4962158</ele>
        <time>2010-05-06T09:46:34Z</time>
      </trkpt>
      <trkpt lat="35.1627611" lon="24.4757339">
        <ele>29.9381104</ele>
        <time>2010-05-06T09:46:41Z</time>
      </trkpt>
      <trkpt lat="35.1626864" lon="24.4757660">
        <ele>31.8607178</ele>
        <time>2010-05-06T09:46:49Z</time>
      </trkpt>
      <trkpt lat="35.1626508" lon="24.4757749">
        <ele>32.3415527</ele>
        <time>2010-05-06T09:46:55Z</time>
      </trkpt>
      <trkpt lat="35.1626035" lon="24.4757982">
        <ele>32.8222656</ele>
        <time>2010-05-06T09:47:02Z</time>
      </trkpt>
      <trkpt lat="35.1625854" lon="24.4758032">
        <ele>31.8607178</ele>
        <time>2010-05-06T09:47:07Z</time>
      </trkpt>
      <trkpt lat="35.1625959" lon="24.4757976">
        <ele>30.8995361</ele>
        <time>2010-05-06T09:47:15Z</time>
      </trkpt>
      <trkpt lat="35.1625726" lon="24.4758108">
        <ele>31.3801270</ele>
        <time>2010-05-06T09:47:24Z</time>
      </trkpt>
      <trkpt lat="35.1625623" lon="24.4758171">
        <ele>31.8607178</ele>
        <time>2010-05-06T09:47:32Z</time>
      </trkpt>
      <trkpt lat="35.1625340" lon="24.4758349">
        <ele>32.3415527</ele>
        <time>2010-05-06T09:47:36Z</time>
      </trkpt>
      <trkpt lat="35.1624902" lon="24.4758431">
        <ele>33.3028564</ele>
        <time>2010-05-06T09:47:41Z</time>
      </trkpt>
      <trkpt lat="35.1624333" lon="24.4758557">
        <ele>35.2254639</ele>
        <time>2010-05-06T09:47:48Z</time>
      </trkpt>
      <trkpt lat="35.1623735" lon="24.4758790">
        <ele>36.1867676</ele>
        <time>2010-05-06T09:47:55Z</time>
      </trkpt>
      <trkpt lat="35.1623577" lon="24.4758737">
        <ele>36.6674805</ele>
        <time>2010-05-06T09:48:01Z</time>
      </trkpt>
      <trkpt lat="35.1623628" lon="24.4758896">
        <ele>35.7060547</ele>
        <time>2010-05-06T09:48:29Z</time>
      </trkpt>
      <trkpt lat="35.1623168" lon="24.4759161">
        <ele>36.6674805</ele>
        <time>2010-05-06T09:48:37Z</time>
      </trkpt>
      <trkpt lat="35.1622762" lon="24.4759328">
        <ele>37.6286621</ele>
        <time>2010-05-06T09:48:43Z</time>
      </trkpt>
      <trkpt lat="35.1622434" lon="24.4759417">
        <ele>38.5900879</ele>
        <time>2010-05-06T09:48:48Z</time>
      </trkpt>
      <trkpt lat="35.1622193" lon="24.4759540">
        <ele>39.5512695</ele>
        <time>2010-05-06T09:48:53Z</time>
      </trkpt>
      <trkpt lat="35.1621867" lon="24.4759494">
        <ele>40.5128174</ele>
        <time>2010-05-06T09:48:59Z</time>
      </trkpt>
      <trkpt lat="35.1621574" lon="24.4759468">
        <ele>40.9934082</ele>
        <time>2010-05-06T09:49:05Z</time>
      </trkpt>
      <trkpt lat="35.1621204" lon="24.4759478">
        <ele>41.9547119</ele>
        <time>2010-05-06T09:49:11Z</time>
      </trkpt>
      <trkpt lat="35.1620424" lon="24.4759471">
        <ele>41.9547119</ele>
        <time>2010-05-06T09:49:19Z</time>
      </trkpt>
      <trkpt lat="35.1620089" lon="24.4759362">
        <ele>41.9547119</ele>
        <time>2010-05-06T09:49:25Z</time>
      </trkpt>
      <trkpt lat="35.1619732" lon="24.4759058">
        <ele>40.5128174</ele>
        <time>2010-05-06T09:49:33Z</time>
      </trkpt>
      <trkpt lat="35.1619355" lon="24.4759163">
        <ele>39.5512695</ele>
        <time>2010-05-06T09:50:07Z</time>
      </trkpt>
      <trkpt lat="35.1619047" lon="24.4759151">
        <ele>40.0321045</ele>
        <time>2010-05-06T09:50:12Z</time>
      </trkpt>
      <trkpt lat="35.1619038" lon="24.4759062">
        <ele>40.5128174</ele>
        <time>2010-05-06T09:50:28Z</time>
      </trkpt>
      <trkpt lat="35.1619090" lon="24.4758939">
        <ele>41.4739990</ele>
        <time>2010-05-06T09:50:38Z</time>
      </trkpt>
      <trkpt lat="35.1619034" lon="24.4758868">
        <ele>42.4354248</ele>
        <time>2010-05-06T09:50:58Z</time>
      </trkpt>
      <trkpt lat="35.1619041" lon="24.4758830">
        <ele>42.9160156</ele>
        <time>2010-05-06T09:51:13Z</time>
      </trkpt>
      <trkpt lat="35.1619086" lon="24.4758727">
        <ele>40.9934082</ele>
        <time>2010-05-06T09:51:33Z</time>
      </trkpt>
      <trkpt lat="35.1619109" lon="24.4758722">
        <ele>40.0321045</ele>
        <time>2010-05-06T09:51:38Z</time>
      </trkpt>
      <trkpt lat="35.1619504" lon="24.4758856">
        <ele>28.9769287</ele>
        <time>2010-05-06T09:52:19Z</time>
      </trkpt>
      <trkpt lat="35.1619571" lon="24.4758805">
        <ele>28.0155029</ele>
        <time>2010-05-06T09:52:39Z</time>
      </trkpt>
      <trkpt lat="35.1619592" lon="24.4758818">
        <ele>27.0543213</ele>
        <time>2010-05-06T09:52:50Z</time>
      </trkpt>
      <trkpt lat="35.1619915" lon="24.4758963">
        <ele>25.1317139</ele>
        <time>2010-05-06T09:53:01Z</time>
      </trkpt>
      <trkpt lat="35.1620143" lon="24.4758977">
        <ele>25.1317139</ele>
        <time>2010-05-06T09:53:03Z</time>
      </trkpt>
      <trkpt lat="35.1620394" lon="24.4759153">
        <ele>26.0928955</ele>
        <time>2010-05-06T09:53:08Z</time>
      </trkpt>
      <trkpt lat="35.1620665" lon="24.4759316">
        <ele>27.5349121</ele>
        <time>2010-05-06T09:53:15Z</time>
      </trkpt>
      <trkpt lat="35.1621001" lon="24.4759491">
        <ele>28.4962158</ele>
        <time>2010-05-06T09:53:22Z</time>
      </trkpt>
      <trkpt lat="35.1620551" lon="24.4759523">
        <ele>34.7448730</ele>
        <time>2010-05-06T09:53:55Z</time>
      </trkpt>
      <trkpt lat="35.1620215" lon="24.4759412">
        <ele>35.2254639</ele>
        <time>2010-05-06T09:53:58Z</time>
      </trkpt>
      <trkpt lat="35.1619173" lon="24.4759105">
        <ele>35.7060547</ele>
        <time>2010-05-06T09:54:06Z</time>
      </trkpt>
      <trkpt lat="35.1618387" lon="24.4759347">
        <ele>37.6286621</ele>
        <time>2010-05-06T09:54:14Z</time>
      </trkpt>
      <trkpt lat="35.1618183" lon="24.4759329">
        <ele>38.5900879</ele>
        <time>2010-05-06T09:54:16Z</time>
      </trkpt>
      <trkpt lat="35.1617442" lon="24.4759130">
        <ele>41.4739990</ele>
        <time>2010-05-06T09:54:24Z</time>
      </trkpt>
      <trkpt lat="35.1616946" lon="24.4758996">
        <ele>41.9547119</ele>
        <time>2010-05-06T09:54:30Z</time>
      </trkpt>
      <trkpt lat="35.1616510" lon="24.4759023">
        <ele>42.9160156</ele>
        <time>2010-05-06T09:54:36Z</time>
      </trkpt>
      <trkpt lat="35.1615904" lon="24.4758740">
        <ele>43.8773193</ele>
        <time>2010-05-06T09:54:44Z</time>
      </trkpt>
      <trkpt lat="35.1615308" lon="24.4758357">
        <ele>44.3580322</ele>
        <time>2010-05-06T09:54:51Z</time>
      </trkpt>
      <trkpt lat="35.1614770" lon="24.4757994">
        <ele>45.7999268</ele>
        <time>2010-05-06T09:54:57Z</time>
      </trkpt>
      <trkpt lat="35.1614298" lon="24.4757681">
        <ele>46.7612305</ele>
        <time>2010-05-06T09:55:02Z</time>
      </trkpt>
      <trkpt lat="35.1613744" lon="24.4757337">
        <ele>47.2418213</ele>
        <time>2010-05-06T09:55:09Z</time>
      </trkpt>
      <trkpt lat="35.1613164" lon="24.4757052">
        <ele>48.2033691</ele>
        <time>2010-05-06T09:55:16Z</time>
      </trkpt>
      <trkpt lat="35.1612796" lon="24.4756826">
        <ele>49.1645508</ele>
        <time>2010-05-06T09:55:22Z</time>
      </trkpt>
      <trkpt lat="35.1612453" lon="24.4756701">
        <ele>49.1645508</ele>
        <time>2010-05-06T09:55:28Z</time>
      </trkpt>
      <trkpt lat="35.1612066" lon="24.4756386">
        <ele>49.6452637</ele>
        <time>2010-05-06T09:55:36Z</time>
      </trkpt>
      <trkpt lat="35.1611707" lon="24.4756199">
        <ele>49.6452637</ele>
        <time>2010-05-06T09:55:42Z</time>
      </trkpt>
      <trkpt lat="35.1611611" lon="24.4756054">
        <ele>49.1645508</ele>
        <time>2010-05-06T09:55:52Z</time>
      </trkpt>
      <trkpt lat="35.1611232" lon="24.4755940">
        <ele>50.1259766</ele>
        <time>2010-05-06T09:55:59Z</time>
      </trkpt>
      <trkpt lat="35.1611079" lon="24.4755869">
        <ele>50.1259766</ele>
        <time>2010-05-06T09:56:06Z</time>
      </trkpt>
      <trkpt lat="35.1610641" lon="24.4755996">
        <ele>50.6065674</ele>
        <time>2010-05-06T09:56:12Z</time>
      </trkpt>
      <trkpt lat="35.1610130" lon="24.4756148">
        <ele>51.5678711</ele>
        <time>2010-05-06T09:56:19Z</time>
      </trkpt>
      <trkpt lat="35.1609709" lon="24.4756293">
        <ele>52.0485840</ele>
        <time>2010-05-06T09:56:25Z</time>
      </trkpt>
      <trkpt lat="35.1609103" lon="24.4756332">
        <ele>52.5291748</ele>
        <time>2010-05-06T09:56:33Z</time>
      </trkpt>
      <trkpt lat="35.1608476" lon="24.4756104">
        <ele>53.0097656</ele>
        <time>2010-05-06T09:56:40Z</time>
      </trkpt>
      <trkpt lat="35.1607584" lon="24.4756172">
        <ele>53.0097656</ele>
        <time>2010-05-06T09:56:49Z</time>
      </trkpt>
      <trkpt lat="35.1607492" lon="24.4756235">
        <ele>53.0097656</ele>
        <time>2010-05-06T09:56:50Z</time>
      </trkpt>
      <trkpt lat="35.1607145" lon="24.4756494">
        <ele>53.4904785</ele>
        <time>2010-05-06T09:56:54Z</time>
      </trkpt>
      <trkpt lat="35.1606231" lon="24.4756876">
        <ele>53.9711914</ele>
        <time>2010-05-06T09:57:03Z</time>
      </trkpt>
      <trkpt lat="35.1605590" lon="24.4756795">
        <ele>53.9711914</ele>
        <time>2010-05-06T09:57:09Z</time>
      </trkpt>
      <trkpt lat="35.1604895" lon="24.4757151">
        <ele>53.9711914</ele>
        <time>2010-05-06T09:57:17Z</time>
      </trkpt>
      <trkpt lat="35.1604275" lon="24.4757846">
        <ele>54.9323730</ele>
        <time>2010-05-06T09:57:26Z</time>
      </trkpt>
      <trkpt lat="35.1603808" lon="24.4758287">
        <ele>54.9323730</ele>
        <time>2010-05-06T09:57:33Z</time>
      </trkpt>
      <trkpt lat="35.1603121" lon="24.4758554">
        <ele>55.8937988</ele>
        <time>2010-05-06T09:57:41Z</time>
      </trkpt>
      <trkpt lat="35.1602436" lon="24.4758389">
        <ele>55.4130859</ele>
        <time>2010-05-06T09:57:48Z</time>
      </trkpt>
      <trkpt lat="35.1602343" lon="24.4758306">
        <ele>55.4130859</ele>
        <time>2010-05-06T09:57:49Z</time>
      </trkpt>
      <trkpt lat="35.1601966" lon="24.4757598">
        <ele>54.4517822</ele>
        <time>2010-05-06T09:57:57Z</time>
      </trkpt>
      <trkpt lat="35.1601676" lon="24.4757003">
        <ele>54.9323730</ele>
        <time>2010-05-06T09:58:04Z</time>
      </trkpt>
      <trkpt lat="35.1601246" lon="24.4756754">
        <ele>55.8937988</ele>
        <time>2010-05-06T09:58:11Z</time>
      </trkpt>
      <trkpt lat="35.1600752" lon="24.4756648">
        <ele>56.3745117</ele>
        <time>2010-05-06T09:58:18Z</time>
      </trkpt>
      <trkpt lat="35.1600307" lon="24.4756492">
        <ele>57.8165283</ele>
        <time>2010-05-06T09:58:25Z</time>
      </trkpt>
      <trkpt lat="35.1600058" lon="24.4756107">
        <ele>58.2971191</ele>
        <time>2010-05-06T09:58:32Z</time>
      </trkpt>
      <trkpt lat="35.1599701" lon="24.4755891">
        <ele>59.7391357</ele>
        <time>2010-05-06T09:58:39Z</time>
      </trkpt>
      <trkpt lat="35.1599259" lon="24.4755598">
        <ele>61.1810303</ele>
        <time>2010-05-06T09:58:47Z</time>
      </trkpt>
      <trkpt lat="35.1598945" lon="24.4755168">
        <ele>61.1810303</ele>
        <time>2010-05-06T09:58:55Z</time>
      </trkpt>
      <trkpt lat="35.1598779" lon="24.4754909">
        <ele>61.1810303</ele>
        <time>2010-05-06T09:59:04Z</time>
      </trkpt>
      <trkpt lat="35.1598871" lon="24.4754763">
        <ele>61.1810303</ele>
        <time>2010-05-06T09:59:09Z</time>
      </trkpt>
      <trkpt lat="35.1598599" lon="24.4754899">
        <ele>60.7003174</ele>
        <time>2010-05-06T09:59:18Z</time>
      </trkpt>
      <trkpt lat="35.1598090" lon="24.4754957">
        <ele>61.6617432</ele>
        <time>2010-05-06T09:59:26Z</time>
      </trkpt>
      <trkpt lat="35.1597717" lon="24.4754992">
        <ele>62.1423340</ele>
        <time>2010-05-06T09:59:32Z</time>
      </trkpt>
      <trkpt lat="35.1597590" lon="24.4754924">
        <ele>62.1423340</ele>
        <time>2010-05-06T09:59:40Z</time>
      </trkpt>
      <trkpt lat="35.1597182" lon="24.4754897">
        <ele>62.6229248</ele>
        <time>2010-05-06T09:59:48Z</time>
      </trkpt>
      <trkpt lat="35.1596489" lon="24.4754731">
        <ele>63.1036377</ele>
        <time>2010-05-06T09:59:55Z</time>
      </trkpt>
      <trkpt lat="35.1595655" lon="24.4754453">
        <ele>64.0650635</ele>
        <time>2010-05-06T10:00:04Z</time>
      </trkpt>
      <trkpt lat="35.1594924" lon="24.4754488">
        <ele>65.5070801</ele>
        <time>2010-05-06T10:00:12Z</time>
      </trkpt>
      <trkpt lat="35.1594123" lon="24.4754371">
        <ele>66.9489746</ele>
        <time>2010-05-06T10:00:20Z</time>
      </trkpt>
      <trkpt lat="35.1593396" lon="24.4754490">
        <ele>68.8715820</ele>
        <time>2010-05-06T10:00:28Z</time>
      </trkpt>
      <trkpt lat="35.1592831" lon="24.4754531">
        <ele>70.7941895</ele>
        <time>2010-05-06T10:00:35Z</time>
      </trkpt>
      <trkpt lat="35.1592206" lon="24.4754489">
        <ele>72.7169189</ele>
        <time>2010-05-06T10:00:43Z</time>
      </trkpt>
      <trkpt lat="35.1591481" lon="24.4754451">
        <ele>74.1588135</ele>
        <time>2010-05-06T10:00:51Z</time>
      </trkpt>
      <trkpt lat="35.1590631" lon="24.4754508">
        <ele>75.1202393</ele>
        <time>2010-05-06T10:01:00Z</time>
      </trkpt>
      <trkpt lat="35.1589889" lon="24.4754598">
        <ele>76.0814209</ele>
        <time>2010-05-06T10:01:08Z</time>
      </trkpt>
      <trkpt lat="35.1589007" lon="24.4754448">
        <ele>76.5621338</ele>
        <time>2010-05-06T10:01:18Z</time>
      </trkpt>
      <trkpt lat="35.1588836" lon="24.4754213">
        <ele>75.6008301</ele>
        <time>2010-05-06T10:01:24Z</time>
      </trkpt>
      <trkpt lat="35.1588553" lon="24.4754188">
        <ele>75.6008301</ele>
        <time>2010-05-06T10:01:30Z</time>
      </trkpt>
      <trkpt lat="35.1588490" lon="24.4754442">
        <ele>75.6008301</ele>
        <time>2010-05-06T10:01:40Z</time>
      </trkpt>
      <trkpt lat="35.1587938" lon="24.4754633">
        <ele>76.5621338</ele>
        <time>2010-05-06T10:01:47Z</time>
      </trkpt>
      <trkpt lat="35.1587563" lon="24.4754697">
        <ele>76.5621338</ele>
        <time>2010-05-06T10:01:54Z</time>
      </trkpt>
      <trkpt lat="35.1587621" lon="24.4754587">
        <ele>76.0814209</ele>
        <time>2010-05-06T10:02:01Z</time>
      </trkpt>
      <trkpt lat="35.1587726" lon="24.4754252">
        <ele>70.3134766</ele>
        <time>2010-05-06T10:02:36Z</time>
      </trkpt>
      <trkpt lat="35.1587719" lon="24.4754285">
        <ele>70.7941895</ele>
        <time>2010-05-06T10:02:49Z</time>
      </trkpt>
      <trkpt lat="35.1587326" lon="24.4754613">
        <ele>71.7554932</ele>
        <time>2010-05-06T10:03:03Z</time>
      </trkpt>
      <trkpt lat="35.1586600" lon="24.4754990">
        <ele>73.6782227</ele>
        <time>2010-05-06T10:03:12Z</time>
      </trkpt>
      <trkpt lat="35.1585920" lon="24.4755184">
        <ele>75.6008301</ele>
        <time>2010-05-06T10:03:21Z</time>
      </trkpt>
      <trkpt lat="35.1585298" lon="24.4755396">
        <ele>77.5234375</ele>
        <time>2010-05-06T10:03:29Z</time>
      </trkpt>
      <trkpt lat="35.1584646" lon="24.4755433">
        <ele>78.9654541</ele>
        <time>2010-05-06T10:03:36Z</time>
      </trkpt>
      <trkpt lat="35.1583860" lon="24.4755406">
        <ele>80.4074707</ele>
        <time>2010-05-06T10:03:44Z</time>
      </trkpt>
      <trkpt lat="35.1583197" lon="24.4755619">
        <ele>82.3300781</ele>
        <time>2010-05-06T10:03:54Z</time>
      </trkpt>
      <trkpt lat="35.1582653" lon="24.4755671">
        <ele>84.2526855</ele>
        <time>2010-05-06T10:04:02Z</time>
      </trkpt>
      <trkpt lat="35.1581985" lon="24.4755400">
        <ele>85.6945801</ele>
        <time>2010-05-06T10:04:10Z</time>
      </trkpt>
      <trkpt lat="35.1581313" lon="24.4754981">
        <ele>86.6560059</ele>
        <time>2010-05-06T10:04:19Z</time>
      </trkpt>
      <trkpt lat="35.1580897" lon="24.4754650">
        <ele>87.6171875</ele>
        <time>2010-05-06T10:04:26Z</time>
      </trkpt>
      <trkpt lat="35.1580370" lon="24.4754220">
        <ele>88.5787354</ele>
        <time>2010-05-06T10:04:34Z</time>
      </trkpt>
      <trkpt lat="35.1579901" lon="24.4753731">
        <ele>89.5399170</ele>
        <time>2010-05-06T10:04:42Z</time>
      </trkpt>
      <trkpt lat="35.1579442" lon="24.4753420">
        <ele>89.5399170</ele>
        <time>2010-05-06T10:04:50Z</time>
      </trkpt>
      <trkpt lat="35.1579088" lon="24.4753412">
        <ele>89.5399170</ele>
        <time>2010-05-06T10:04:57Z</time>
      </trkpt>
      <trkpt lat="35.1578478" lon="24.4753156">
        <ele>90.5013428</ele>
        <time>2010-05-06T10:05:05Z</time>
      </trkpt>
      <trkpt lat="35.1578385" lon="24.4753039">
        <ele>90.5013428</ele>
        <time>2010-05-06T10:05:10Z</time>
      </trkpt>
      <trkpt lat="35.1578399" lon="24.4752982">
        <ele>91.4625244</ele>
        <time>2010-05-06T10:05:19Z</time>
      </trkpt>
      <trkpt lat="35.1578400" lon="24.4752908">
        <ele>91.9432373</ele>
        <time>2010-05-06T10:05:31Z</time>
      </trkpt>
      <trkpt lat="35.1578199" lon="24.4752929">
        <ele>91.9432373</ele>
        <time>2010-05-06T10:05:38Z</time>
      </trkpt>
      <trkpt lat="35.1577779" lon="24.4752957">
        <ele>91.4625244</ele>
        <time>2010-05-06T10:05:44Z</time>
      </trkpt>
      <trkpt lat="35.1577536" lon="24.4752806">
        <ele>90.5013428</ele>
        <time>2010-05-06T10:05:51Z</time>
      </trkpt>
      <trkpt lat="35.1577240" lon="24.4752847">
        <ele>90.0206299</ele>
        <time>2010-05-06T10:05:57Z</time>
      </trkpt>
      <trkpt lat="35.1576329" lon="24.4752635">
        <ele>89.0593262</ele>
        <time>2010-05-06T10:06:07Z</time>
      </trkpt>
      <trkpt lat="35.1575593" lon="24.4752245">
        <ele>88.5787354</ele>
        <time>2010-05-06T10:06:15Z</time>
      </trkpt>
      <trkpt lat="35.1575209" lon="24.4751584">
        <ele>88.5787354</ele>
        <time>2010-05-06T10:06:22Z</time>
      </trkpt>
      <trkpt lat="35.1574798" lon="24.4750945">
        <ele>89.5399170</ele>
        <time>2010-05-06T10:06:30Z</time>
      </trkpt>
      <trkpt lat="35.1574210" lon="24.4750776">
        <ele>90.5013428</ele>
        <time>2010-05-06T10:06:37Z</time>
      </trkpt>
      <trkpt lat="35.1573759" lon="24.4750173">
        <ele>90.9819336</ele>
        <time>2010-05-06T10:06:45Z</time>
      </trkpt>
      <trkpt lat="35.1573413" lon="24.4749865">
        <ele>90.9819336</ele>
        <time>2010-05-06T10:06:51Z</time>
      </trkpt>
      <trkpt lat="35.1572757" lon="24.4749764">
        <ele>91.4625244</ele>
        <time>2010-05-06T10:06:59Z</time>
      </trkpt>
      <trkpt lat="35.1572266" lon="24.4749879">
        <ele>92.4239502</ele>
        <time>2010-05-06T10:07:05Z</time>
      </trkpt>
      <trkpt lat="35.1571656" lon="24.4749418">
        <ele>91.4625244</ele>
        <time>2010-05-06T10:07:12Z</time>
      </trkpt>
      <trkpt lat="35.1571112" lon="24.4748489">
        <ele>91.9432373</ele>
        <time>2010-05-06T10:07:21Z</time>
      </trkpt>
      <trkpt lat="35.1570659" lon="24.4747757">
        <ele>92.4239502</ele>
        <time>2010-05-06T10:07:29Z</time>
      </trkpt>
      <trkpt lat="35.1570438" lon="24.4747070">
        <ele>92.9045410</ele>
        <time>2010-05-06T10:07:35Z</time>
      </trkpt>
      <trkpt lat="35.1570313" lon="24.4746461">
        <ele>93.3851318</ele>
        <time>2010-05-06T10:07:40Z</time>
      </trkpt>
      <trkpt lat="35.1569922" lon="24.4745371">
        <ele>93.3851318</ele>
        <time>2010-05-06T10:07:50Z</time>
      </trkpt>
      <trkpt lat="35.1569536" lon="24.4744652">
        <ele>94.3465576</ele>
        <time>2010-05-06T10:07:58Z</time>
      </trkpt>
      <trkpt lat="35.1568953" lon="24.4744062">
        <ele>95.7884521</ele>
        <time>2010-05-06T10:08:07Z</time>
      </trkpt>
      <trkpt lat="35.1568377" lon="24.4743478">
        <ele>96.2692871</ele>
        <time>2010-05-06T10:08:15Z</time>
      </trkpt>
      <trkpt lat="35.1567648" lon="24.4742647">
        <ele>96.7498779</ele>
        <time>2010-05-06T10:08:26Z</time>
      </trkpt>
      <trkpt lat="35.1566849" lon="24.4741876">
        <ele>96.7498779</ele>
        <time>2010-05-06T10:08:37Z</time>
      </trkpt>
      <trkpt lat="35.1566313" lon="24.4741083">
        <ele>96.2692871</ele>
        <time>2010-05-06T10:08:46Z</time>
      </trkpt>
      <trkpt lat="35.1565666" lon="24.4740458">
        <ele>96.2692871</ele>
        <time>2010-05-06T10:08:54Z</time>
      </trkpt>
      <trkpt lat="35.1565041" lon="24.4739854">
        <ele>96.7498779</ele>
        <time>2010-05-06T10:09:02Z</time>
      </trkpt>
      <trkpt lat="35.1564037" lon="24.4739009">
        <ele>96.7498779</ele>
        <time>2010-05-06T10:09:14Z</time>
      </trkpt>
      <trkpt lat="35.1563739" lon="24.4738897">
        <ele>96.7498779</ele>
        <time>2010-05-06T10:09:17Z</time>
      </trkpt>
      <trkpt lat="35.1562936" lon="24.4739016">
        <ele>97.2304688</ele>
        <time>2010-05-06T10:09:27Z</time>
      </trkpt>
      <trkpt lat="35.1562641" lon="24.4739260">
        <ele>97.2304688</ele>
        <time>2010-05-06T10:09:36Z</time>
      </trkpt>
      <trkpt lat="35.1562464" lon="24.4739145">
        <ele>97.2304688</ele>
        <time>2010-05-06T10:09:44Z</time>
      </trkpt>
      <trkpt lat="35.1562461" lon="24.4739059">
        <ele>97.2304688</ele>
        <time>2010-05-06T10:10:00Z</time>
      </trkpt>
      <trkpt lat="35.1562459" lon="24.4739059">
        <ele>96.2692871</ele>
        <time>2010-05-06T10:10:20Z</time>
      </trkpt>
      <trkpt lat="35.1562495" lon="24.4739066">
        <ele>95.7884521</ele>
        <time>2010-05-06T10:10:39Z</time>
      </trkpt>
      <trkpt lat="35.1562535" lon="24.4739110">
        <ele>95.3077393</ele>
        <time>2010-05-06T10:11:16Z</time>
      </trkpt>
      <trkpt lat="35.1562528" lon="24.4739080">
        <ele>95.3077393</ele>
        <time>2010-05-06T10:11:30Z</time>
      </trkpt>
      <trkpt lat="35.1562503" lon="24.4739084">
        <ele>95.7884521</ele>
        <time>2010-05-06T10:11:42Z</time>
      </trkpt>
      <trkpt lat="35.1562539" lon="24.4738974">
        <ele>97.2304688</ele>
        <time>2010-05-06T10:12:07Z</time>
      </trkpt>
      <trkpt lat="35.1562596" lon="24.4739015">
        <ele>98.1918945</ele>
        <time>2010-05-06T10:12:59Z</time>
      </trkpt>
      <trkpt lat="35.1562580" lon="24.4739084">
        <ele>98.6724854</ele>
        <time>2010-05-06T10:13:08Z</time>
      </trkpt>
      <trkpt lat="35.1562569" lon="24.4739110">
        <ele>99.1530762</ele>
        <time>2010-05-06T10:13:15Z</time>
      </trkpt>
      <trkpt lat="35.1562569" lon="24.4739372">
        <ele>99.6337891</ele>
        <time>2010-05-06T10:13:24Z</time>
      </trkpt>
      <trkpt lat="35.1562560" lon="24.4739623">
        <ele>99.1530762</ele>
        <time>2010-05-06T10:13:33Z</time>
      </trkpt>
      <trkpt lat="35.1562346" lon="24.4739874">
        <ele>98.1918945</ele>
        <time>2010-05-06T10:13:48Z</time>
      </trkpt>
      <trkpt lat="35.1561756" lon="24.4740297">
        <ele>99.1530762</ele>
        <time>2010-05-06T10:13:57Z</time>
      </trkpt>
      <trkpt lat="35.1561223" lon="24.4740605">
        <ele>100.5950928</ele>
        <time>2010-05-06T10:14:05Z</time>
      </trkpt>
      <trkpt lat="35.1560781" lon="24.4740954">
        <ele>101.5563965</ele>
        <time>2010-05-06T10:14:12Z</time>
      </trkpt>
      <trkpt lat="35.1560170" lon="24.4741180">
        <ele>101.0756836</ele>
        <time>2010-05-06T10:14:20Z</time>
      </trkpt>
      <trkpt lat="35.1559384" lon="24.4741682">
        <ele>100.5950928</ele>
        <time>2010-05-06T10:14:30Z</time>
      </trkpt>
      <trkpt lat="35.1558940" lon="24.4742545">
        <ele>99.6337891</ele>
        <time>2010-05-06T10:14:39Z</time>
      </trkpt>
      <trkpt lat="35.1558327" lon="24.4743438">
        <ele>100.5950928</ele>
        <time>2010-05-06T10:14:49Z</time>
      </trkpt>
      <trkpt lat="35.1557902" lon="24.4744132">
        <ele>101.5563965</ele>
        <time>2010-05-06T10:14:57Z</time>
      </trkpt>
      <trkpt lat="35.1557451" lon="24.4744555">
        <ele>102.9982910</ele>
        <time>2010-05-06T10:15:04Z</time>
      </trkpt>
      <trkpt lat="35.1556965" lon="24.4745041">
        <ele>104.9210205</ele>
        <time>2010-05-06T10:15:12Z</time>
      </trkpt>
      <trkpt lat="35.1556266" lon="24.4745461">
        <ele>107.8050537</ele>
        <time>2010-05-06T10:15:20Z</time>
      </trkpt>
      <trkpt lat="35.1555508" lon="24.4745703">
        <ele>109.7276611</ele>
        <time>2010-05-06T10:15:28Z</time>
      </trkpt>
      <trkpt lat="35.1554945" lon="24.4746179">
        <ele>110.6888428</ele>
        <time>2010-05-06T10:15:36Z</time>
      </trkpt>
      <trkpt lat="35.1554365" lon="24.4746688">
        <ele>112.1309814</ele>
        <time>2010-05-06T10:15:44Z</time>
      </trkpt>
      <trkpt lat="35.1553893" lon="24.4747349">
        <ele>112.6115723</ele>
        <time>2010-05-06T10:15:52Z</time>
      </trkpt>
      <trkpt lat="35.1553508" lon="24.4747875">
        <ele>112.6115723</ele>
        <time>2010-05-06T10:16:00Z</time>
      </trkpt>
      <trkpt lat="35.1553101" lon="24.4748178">
        <ele>112.1309814</ele>
        <time>2010-05-06T10:16:07Z</time>
      </trkpt>
      <trkpt lat="35.1552780" lon="24.4748154">
        <ele>111.6502686</ele>
        <time>2010-05-06T10:16:14Z</time>
      </trkpt>
      <trkpt lat="35.1552845" lon="24.4748206">
        <ele>111.6502686</ele>
        <time>2010-05-06T10:16:20Z</time>
      </trkpt>
      <trkpt lat="35.1552827" lon="24.4748222">
        <ele>112.1309814</ele>
        <time>2010-05-06T10:16:29Z</time>
      </trkpt>
      <trkpt lat="35.1552811" lon="24.4748225">
        <ele>112.6115723</ele>
        <time>2010-05-06T10:16:44Z</time>
      </trkpt>
      <trkpt lat="35.1552343" lon="24.4748258">
        <ele>110.6888428</ele>
        <time>2010-05-06T10:16:52Z</time>
      </trkpt>
      <trkpt lat="35.1552116" lon="24.4748294">
        <ele>110.2082520</ele>
        <time>2010-05-06T10:16:54Z</time>
      </trkpt>
      <trkpt lat="35.1551516" lon="24.4748745">
        <ele>109.2469482</ele>
        <time>2010-05-06T10:17:01Z</time>
      </trkpt>
      <trkpt lat="35.1550771" lon="24.4749725">
        <ele>109.7276611</ele>
        <time>2010-05-06T10:17:11Z</time>
      </trkpt>
      <trkpt lat="35.1550542" lon="24.4749977">
        <ele>110.6888428</ele>
        <time>2010-05-06T10:17:16Z</time>
      </trkpt>
      <trkpt lat="35.1550289" lon="24.4749947">
        <ele>111.1695557</ele>
        <time>2010-05-06T10:17:25Z</time>
      </trkpt>
      <trkpt lat="35.1550221" lon="24.4749952">
        <ele>111.6502686</ele>
        <time>2010-05-06T10:17:33Z</time>
      </trkpt>
      <trkpt lat="35.1550272" lon="24.4749885">
        <ele>111.6502686</ele>
        <time>2010-05-06T10:17:49Z</time>
      </trkpt>
      <trkpt lat="35.1550301" lon="24.4750179">
        <ele>111.1695557</ele>
        <time>2010-05-06T10:18:06Z</time>
      </trkpt>
      <trkpt lat="35.1550174" lon="24.4750686">
        <ele>111.1695557</ele>
        <time>2010-05-06T10:18:13Z</time>
      </trkpt>
      <trkpt lat="35.1550099" lon="24.4750633">
        <ele>111.1695557</ele>
        <time>2010-05-06T10:18:21Z</time>
      </trkpt>
      <trkpt lat="35.1550160" lon="24.4750515">
        <ele>111.6502686</ele>
        <time>2010-05-06T10:18:30Z</time>
      </trkpt>
      <trkpt lat="35.1550236" lon="24.4750025">
        <ele>111.6502686</ele>
        <time>2010-05-06T10:18:42Z</time>
      </trkpt>
      <trkpt lat="35.1550441" lon="24.4750000">
        <ele>111.6502686</ele>
        <time>2010-05-06T10:18:48Z</time>
      </trkpt>
      <trkpt lat="35.1550320" lon="24.4749946">
        <ele>112.1309814</ele>
        <time>2010-05-06T10:18:56Z</time>
      </trkpt>
      <trkpt lat="35.1550336" lon="24.4749910">
        <ele>112.1309814</ele>
        <time>2010-05-06T10:19:09Z</time>
      </trkpt>
      <trkpt lat="35.1550359" lon="24.4749920">
        <ele>112.1309814</ele>
        <time>2010-05-06T10:19:24Z</time>
      </trkpt>
      <trkpt lat="35.1550348" lon="24.4749848">
        <ele>111.6502686</ele>
        <time>2010-05-06T10:19:30Z</time>
      </trkpt>
      <trkpt lat="35.1550365" lon="24.4749893">
        <ele>113.0922852</ele>
        <time>2010-05-06T10:19:44Z</time>
      </trkpt>
      <trkpt lat="35.1550397" lon="24.4749916">
        <ele>113.0922852</ele>
        <time>2010-05-06T10:19:58Z</time>
      </trkpt>
      <trkpt lat="35.1550289" lon="24.4749999">
        <ele>112.6115723</ele>
        <time>2010-05-06T10:20:26Z</time>
      </trkpt>
      <trkpt lat="35.1550107" lon="24.4750098">
        <ele>115.4956055</ele>
        <time>2010-05-06T10:21:08Z</time>
      </trkpt>
      <trkpt lat="35.1550064" lon="24.4750152">
        <ele>115.9761963</ele>
        <time>2010-05-06T10:21:15Z</time>
      </trkpt>
      <trkpt lat="35.1550013" lon="24.4750263">
        <ele>115.4956055</ele>
        <time>2010-05-06T10:21:34Z</time>
      </trkpt>
      <trkpt lat="35.1549991" lon="24.4750288">
        <ele>115.4956055</ele>
        <time>2010-05-06T10:21:50Z</time>
      </trkpt>
      <trkpt lat="35.1550009" lon="24.4750283">
        <ele>115.4956055</ele>
        <time>2010-05-06T10:22:01Z</time>
      </trkpt>
      <trkpt lat="35.1550084" lon="24.4750167">
        <ele>114.5341797</ele>
        <time>2010-05-06T10:22:09Z</time>
      </trkpt>
      <trkpt lat="35.1550127" lon="24.4750097">
        <ele>114.5341797</ele>
        <time>2010-05-06T10:22:21Z</time>
      </trkpt>
      <trkpt lat="35.1550055" lon="24.4750133">
        <ele>115.0148926</ele>
        <time>2010-05-06T10:22:33Z</time>
      </trkpt>
      <trkpt lat="35.1549667" lon="24.4750147">
        <ele>114.0535889</ele>
        <time>2010-05-06T10:22:40Z</time>
      </trkpt>
      <trkpt lat="35.1549490" lon="24.4750309">
        <ele>113.0922852</ele>
        <time>2010-05-06T10:22:45Z</time>
      </trkpt>
      <trkpt lat="35.1549293" lon="24.4750698">
        <ele>111.6502686</ele>
        <time>2010-05-06T10:22:52Z</time>
      </trkpt>
      <trkpt lat="35.1549014" lon="24.4750699">
        <ele>110.2082520</ele>
        <time>2010-05-06T10:22:58Z</time>
      </trkpt>
      <trkpt lat="35.1548843" lon="24.4750863">
        <ele>109.7276611</ele>
        <time>2010-05-06T10:23:03Z</time>
      </trkpt>
      <trkpt lat="35.1548784" lon="24.4751141">
        <ele>108.7662354</ele>
        <time>2010-05-06T10:23:10Z</time>
      </trkpt>
      <trkpt lat="35.1548812" lon="24.4751554">
        <ele>107.8050537</ele>
        <time>2010-05-06T10:23:18Z</time>
      </trkpt>
      <trkpt lat="35.1548604" lon="24.4751806">
        <ele>106.8436279</ele>
        <time>2010-05-06T10:23:25Z</time>
      </trkpt>
      <trkpt lat="35.1548610" lon="24.4751892">
        <ele>105.8824463</ele>
        <time>2010-05-06T10:23:30Z</time>
      </trkpt>
      <trkpt lat="35.1548602" lon="24.4752060">
        <ele>104.9210205</ele>
        <time>2010-05-06T10:23:36Z</time>
      </trkpt>
      <trkpt lat="35.1548419" lon="24.4751976">
        <ele>103.9597168</ele>
        <time>2010-05-06T10:23:42Z</time>
      </trkpt>
      <trkpt lat="35.1548159" lon="24.4752044">
        <ele>102.5177002</ele>
        <time>2010-05-06T10:23:49Z</time>
      </trkpt>
      <trkpt lat="35.1548014" lon="24.4752319">
        <ele>101.5563965</ele>
        <time>2010-05-06T10:23:55Z</time>
      </trkpt>
      <trkpt lat="35.1548098" lon="24.4752442">
        <ele>101.0756836</ele>
        <time>2010-05-06T10:24:01Z</time>
      </trkpt>
      <trkpt lat="35.1547961" lon="24.4752776">
        <ele>99.6337891</ele>
        <time>2010-05-06T10:24:07Z</time>
      </trkpt>
      <trkpt lat="35.1547865" lon="24.4753204">
        <ele>97.7111816</ele>
        <time>2010-05-06T10:24:14Z</time>
      </trkpt>
      <trkpt lat="35.1547753" lon="24.4753522">
        <ele>96.2692871</ele>
        <time>2010-05-06T10:24:19Z</time>
      </trkpt>
      <trkpt lat="35.1547568" lon="24.4753767">
        <ele>94.8271484</ele>
        <time>2010-05-06T10:24:24Z</time>
      </trkpt>
      <trkpt lat="35.1547497" lon="24.4753832">
        <ele>94.3465576</ele>
        <time>2010-05-06T10:24:29Z</time>
      </trkpt>
      <trkpt lat="35.1547571" lon="24.4753837">
        <ele>93.8658447</ele>
        <time>2010-05-06T10:24:42Z</time>
      </trkpt>
      <trkpt lat="35.1547447" lon="24.4754042">
        <ele>92.9045410</ele>
        <time>2010-05-06T10:24:48Z</time>
      </trkpt>
      <trkpt lat="35.1547256" lon="24.4754539">
        <ele>90.5013428</ele>
        <time>2010-05-06T10:24:55Z</time>
      </trkpt>
      <trkpt lat="35.1547013" lon="24.4754846">
        <ele>89.0593262</ele>
        <time>2010-05-06T10:25:00Z</time>
      </trkpt>
      <trkpt lat="35.1546921" lon="24.4754873">
        <ele>88.5787354</ele>
        <time>2010-05-06T10:25:06Z</time>
      </trkpt>
      <trkpt lat="35.1546786" lon="24.4754636">
        <ele>89.0593262</ele>
        <time>2010-05-06T10:25:19Z</time>
      </trkpt>
      <trkpt lat="35.1546707" lon="24.4754583">
        <ele>91.9432373</ele>
        <time>2010-05-06T10:25:37Z</time>
      </trkpt>
      <trkpt lat="35.1546652" lon="24.4754943">
        <ele>90.0206299</ele>
        <time>2010-05-06T10:25:44Z</time>
      </trkpt>
      <trkpt lat="35.1546681" lon="24.4755208">
        <ele>89.0593262</ele>
        <time>2010-05-06T10:25:49Z</time>
      </trkpt>
      <trkpt lat="35.1546367" lon="24.4755834">
        <ele>87.6171875</ele>
        <time>2010-05-06T10:25:57Z</time>
      </trkpt>
      <trkpt lat="35.1545827" lon="24.4756226">
        <ele>86.6560059</ele>
        <time>2010-05-06T10:26:05Z</time>
      </trkpt>
      <trkpt lat="35.1545341" lon="24.4756681">
        <ele>85.6945801</ele>
        <time>2010-05-06T10:26:12Z</time>
      </trkpt>
      <trkpt lat="35.1544668" lon="24.4757287">
        <ele>84.7333984</ele>
        <time>2010-05-06T10:26:20Z</time>
      </trkpt>
      <trkpt lat="35.1544087" lon="24.4757195">
        <ele>83.7719727</ele>
        <time>2010-05-06T10:26:27Z</time>
      </trkpt>
      <trkpt lat="35.1543682" lon="24.4757335">
        <ele>82.3300781</ele>
        <time>2010-05-06T10:26:33Z</time>
      </trkpt>
      <trkpt lat="35.1543839" lon="24.4757954">
        <ele>82.3300781</ele>
        <time>2010-05-06T10:26:40Z</time>
      </trkpt>
      <trkpt lat="35.1544030" lon="24.4758648">
        <ele>80.8881836</ele>
        <time>2010-05-06T10:26:47Z</time>
      </trkpt>
      <trkpt lat="35.1544011" lon="24.4759653">
        <ele>79.9266357</ele>
        <time>2010-05-06T10:26:56Z</time>
      </trkpt>
      <trkpt lat="35.1544254" lon="24.4760394">
        <ele>78.9654541</ele>
        <time>2010-05-06T10:27:03Z</time>
      </trkpt>
      <trkpt lat="35.1544289" lon="24.4761043">
        <ele>78.4847412</ele>
        <time>2010-05-06T10:27:08Z</time>
      </trkpt>
      <trkpt lat="35.1544311" lon="24.4762149">
        <ele>78.0040283</ele>
        <time>2010-05-06T10:27:17Z</time>
      </trkpt>
      <trkpt lat="35.1544223" lon="24.4763147">
        <ele>77.5234375</ele>
        <time>2010-05-06T10:27:25Z</time>
      </trkpt>
      <trkpt lat="35.1544217" lon="24.4763766">
        <ele>76.5621338</ele>
        <time>2010-05-06T10:27:32Z</time>
      </trkpt>
      <trkpt lat="35.1544132" lon="24.4764332">
        <ele>75.1202393</ele>
        <time>2010-05-06T10:27:39Z</time>
      </trkpt>
      <trkpt lat="35.1543963" lon="24.4764820">
        <ele>73.6782227</ele>
        <time>2010-05-06T10:27:45Z</time>
      </trkpt>
      <trkpt lat="35.1543600" lon="24.4764755">
        <ele>73.1976318</ele>
        <time>2010-05-06T10:27:52Z</time>
      </trkpt>
      <trkpt lat="35.1543603" lon="24.4764721">
        <ele>72.7169189</ele>
        <time>2010-05-06T10:27:59Z</time>
      </trkpt>
      <trkpt lat="35.1543431" lon="24.4764958">
        <ele>72.7169189</ele>
        <time>2010-05-06T10:28:05Z</time>
      </trkpt>
      <trkpt lat="35.1543304" lon="24.4764973">
        <ele>73.1976318</ele>
        <time>2010-05-06T10:28:12Z</time>
      </trkpt>
      <trkpt lat="35.1543484" lon="24.4764757">
        <ele>73.1976318</ele>
        <time>2010-05-06T10:28:20Z</time>
      </trkpt>
      <trkpt lat="35.1543526" lon="24.4764626">
        <ele>74.1588135</ele>
        <time>2010-05-06T10:28:35Z</time>
      </trkpt>
      <trkpt lat="35.1543505" lon="24.4764632">
        <ele>74.1588135</ele>
        <time>2010-05-06T10:28:51Z</time>
      </trkpt>
      <trkpt lat="35.1543616" lon="24.4764591">
        <ele>76.0814209</ele>
        <time>2010-05-06T10:29:09Z</time>
      </trkpt>
      <trkpt lat="35.1543558" lon="24.4764457">
        <ele>75.6008301</ele>
        <time>2010-05-06T10:29:16Z</time>
      </trkpt>
      <trkpt lat="35.1543358" lon="24.4764342">
        <ele>74.6395264</ele>
        <time>2010-05-06T10:29:22Z</time>
      </trkpt>
      <trkpt lat="35.1543223" lon="24.4764275">
        <ele>73.6782227</ele>
        <time>2010-05-06T10:29:28Z</time>
      </trkpt>
      <trkpt lat="35.1542994" lon="24.4764363">
        <ele>72.2362061</ele>
        <time>2010-05-06T10:29:35Z</time>
      </trkpt>
      <trkpt lat="35.1542659" lon="24.4764542">
        <ele>70.7941895</ele>
        <time>2010-05-06T10:29:41Z</time>
      </trkpt>
      <trkpt lat="35.1542395" lon="24.4764943">
        <ele>69.8328857</ele>
        <time>2010-05-06T10:29:49Z</time>
      </trkpt>
      <trkpt lat="35.1542051" lon="24.4765254">
        <ele>68.3908691</ele>
        <time>2010-05-06T10:29:55Z</time>
      </trkpt>
      <trkpt lat="35.1541621" lon="24.4765673">
        <ele>65.9876709</ele>
        <time>2010-05-06T10:30:03Z</time>
      </trkpt>
      <trkpt lat="35.1541299" lon="24.4765576">
        <ele>64.0650635</ele>
        <time>2010-05-06T10:30:10Z</time>
      </trkpt>
      <trkpt lat="35.1541330" lon="24.4765511">
        <ele>64.5456543</ele>
        <time>2010-05-06T10:30:19Z</time>
      </trkpt>
      <trkpt lat="35.1541296" lon="24.4765436">
        <ele>65.0263672</ele>
        <time>2010-05-06T10:30:32Z</time>
      </trkpt>
      <trkpt lat="35.1541269" lon="24.4765487">
        <ele>64.5456543</ele>
        <time>2010-05-06T10:30:40Z</time>
      </trkpt>
      <trkpt lat="35.1541294" lon="24.4765497">
        <ele>64.5456543</ele>
        <time>2010-05-06T10:30:47Z</time>
      </trkpt>
      <trkpt lat="35.1541249" lon="24.4765218">
        <ele>64.0650635</ele>
        <time>2010-05-06T10:30:58Z</time>
      </trkpt>
      <trkpt lat="35.1541129" lon="24.4765041">
        <ele>63.1036377</ele>
        <time>2010-05-06T10:31:05Z</time>
      </trkpt>
      <trkpt lat="35.1540850" lon="24.4764617">
        <ele>61.6617432</ele>
        <time>2010-05-06T10:31:14Z</time>
      </trkpt>
      <trkpt lat="35.1540635" lon="24.4764503">
        <ele>60.7003174</ele>
        <time>2010-05-06T10:31:21Z</time>
      </trkpt>
      <trkpt lat="35.1540460" lon="24.4764268">
        <ele>60.2197266</ele>
        <time>2010-05-06T10:31:27Z</time>
      </trkpt>
      <trkpt lat="35.1540141" lon="24.4764065">
        <ele>58.7777100</ele>
        <time>2010-05-06T10:31:35Z</time>
      </trkpt>
      <trkpt lat="35.1539803" lon="24.4763798">
        <ele>57.3358154</ele>
        <time>2010-05-06T10:31:41Z</time>
      </trkpt>
      <trkpt lat="35.1539679" lon="24.4763380">
        <ele>55.8937988</ele>
        <time>2010-05-06T10:31:48Z</time>
      </trkpt>
      <trkpt lat="35.1539591" lon="24.4763245">
        <ele>55.4130859</ele>
        <time>2010-05-06T10:31:54Z</time>
      </trkpt>
      <trkpt lat="35.1539601" lon="24.4763253">
        <ele>56.3745117</ele>
        <time>2010-05-06T10:32:04Z</time>
      </trkpt>
      <trkpt lat="35.1539643" lon="24.4763186">
        <ele>55.4130859</ele>
        <time>2010-05-06T10:32:23Z</time>
      </trkpt>
      <trkpt lat="35.1539539" lon="24.4763048">
        <ele>54.4517822</ele>
        <time>2010-05-06T10:32:29Z</time>
      </trkpt>
      <trkpt lat="35.1539530" lon="24.4763074">
        <ele>54.9323730</ele>
        <time>2010-05-06T10:32:39Z</time>
      </trkpt>
      <trkpt lat="35.1539366" lon="24.4762922">
        <ele>53.9711914</ele>
        <time>2010-05-06T10:32:48Z</time>
      </trkpt>
      <trkpt lat="35.1539079" lon="24.4762529">
        <ele>52.0485840</ele>
        <time>2010-05-06T10:32:55Z</time>
      </trkpt>
      <trkpt lat="35.1538633" lon="24.4762107">
        <ele>50.1259766</ele>
        <time>2010-05-06T10:33:02Z</time>
      </trkpt>
      <trkpt lat="35.1538296" lon="24.4761617">
        <ele>49.1645508</ele>
        <time>2010-05-06T10:33:09Z</time>
      </trkpt>
      <trkpt lat="35.1537777" lon="24.4761087">
        <ele>47.2418213</ele>
        <time>2010-05-06T10:33:17Z</time>
      </trkpt>
      <trkpt lat="35.1537317" lon="24.4760662">
        <ele>46.2806396</ele>
        <time>2010-05-06T10:33:24Z</time>
      </trkpt>
      <trkpt lat="35.1537031" lon="24.4760566">
        <ele>45.3192139</ele>
        <time>2010-05-06T10:33:29Z</time>
      </trkpt>
      <trkpt lat="35.1536659" lon="24.4760419">
        <ele>44.3580322</ele>
        <time>2010-05-06T10:33:34Z</time>
      </trkpt>
      <trkpt lat="35.1536240" lon="24.4759903">
        <ele>43.3966064</ele>
        <time>2010-05-06T10:33:41Z</time>
      </trkpt>
      <trkpt lat="35.1536009" lon="24.4759737">
        <ele>42.9160156</ele>
        <time>2010-05-06T10:33:46Z</time>
      </trkpt>
      <trkpt lat="35.1535965" lon="24.4760080">
        <ele>41.4739990</ele>
        <time>2010-05-06T10:33:51Z</time>
      </trkpt>
      <trkpt lat="35.1535851" lon="24.4760442">
        <ele>40.5128174</ele>
        <time>2010-05-06T10:33:58Z</time>
      </trkpt>
      <trkpt lat="35.1535829" lon="24.4760427">
        <ele>40.0321045</ele>
        <time>2010-05-06T10:34:04Z</time>
      </trkpt>
      <trkpt lat="35.1535737" lon="24.4760241">
        <ele>40.0321045</ele>
        <time>2010-05-06T10:34:11Z</time>
      </trkpt>
      <trkpt lat="35.1535633" lon="24.4760191">
        <ele>39.5512695</ele>
        <time>2010-05-06T10:34:29Z</time>
      </trkpt>
      <trkpt lat="35.1535310" lon="24.4759842">
        <ele>38.5900879</ele>
        <time>2010-05-06T10:34:38Z</time>
      </trkpt>
      <trkpt lat="35.1535058" lon="24.4760001">
        <ele>37.6286621</ele>
        <time>2010-05-06T10:34:43Z</time>
      </trkpt>
      <trkpt lat="35.1534612" lon="24.4759901">
        <ele>36.1867676</ele>
        <time>2010-05-06T10:34:50Z</time>
      </trkpt>
      <trkpt lat="35.1534450" lon="24.4760087">
        <ele>34.2641602</ele>
        <time>2010-05-06T10:34:56Z</time>
      </trkpt>
      <trkpt lat="35.1534043" lon="24.4760074">
        <ele>32.3415527</ele>
        <time>2010-05-06T10:35:02Z</time>
      </trkpt>
      <trkpt lat="35.1533784" lon="24.4759925">
        <ele>30.8995361</ele>
        <time>2010-05-06T10:35:09Z</time>
      </trkpt>
      <trkpt lat="35.1533628" lon="24.4760075">
        <ele>29.4575195</ele>
        <time>2010-05-06T10:35:16Z</time>
      </trkpt>
      <trkpt lat="35.1533721" lon="24.4760027">
        <ele>29.9381104</ele>
        <time>2010-05-06T10:35:23Z</time>
      </trkpt>
      <trkpt lat="35.1533493" lon="24.4759959">
        <ele>29.4575195</ele>
        <time>2010-05-06T10:35:34Z</time>
      </trkpt>
      <trkpt lat="35.1532908" lon="24.4759846">
        <ele>28.0155029</ele>
        <time>2010-05-06T10:35:40Z</time>
      </trkpt>
      <trkpt lat="35.1532370" lon="24.4759678">
        <ele>26.5736084</ele>
        <time>2010-05-06T10:35:46Z</time>
      </trkpt>
      <trkpt lat="35.1532093" lon="24.4759664">
        <ele>25.6123047</ele>
        <time>2010-05-06T10:35:50Z</time>
      </trkpt>
      <trkpt lat="35.1531586" lon="24.4759820">
        <ele>24.1702881</ele>
        <time>2010-05-06T10:35:57Z</time>
      </trkpt>
      <trkpt lat="35.1531154" lon="24.4759694">
        <ele>23.2089844</ele>
        <time>2010-05-06T10:36:03Z</time>
      </trkpt>
      <trkpt lat="35.1530707" lon="24.4759310">
        <ele>22.7282715</ele>
        <time>2010-05-06T10:36:09Z</time>
      </trkpt>
      <trkpt lat="35.1530654" lon="24.4758689">
        <ele>21.7669678</ele>
        <time>2010-05-06T10:36:16Z</time>
      </trkpt>
      <trkpt lat="35.1530529" lon="24.4758540">
        <ele>21.7669678</ele>
        <time>2010-05-06T10:36:22Z</time>
      </trkpt>
      <trkpt lat="35.1530622" lon="24.4758497">
        <ele>22.2475586</ele>
        <time>2010-05-06T10:36:49Z</time>
      </trkpt>
      <trkpt lat="35.1530807" lon="24.4758177">
        <ele>22.2475586</ele>
        <time>2010-05-06T10:36:56Z</time>
      </trkpt>
      <trkpt lat="35.1530903" lon="24.4757711">
        <ele>22.2475586</ele>
        <time>2010-05-06T10:37:02Z</time>
      </trkpt>
      <trkpt lat="35.1530594" lon="24.4757064">
        <ele>22.2475586</ele>
        <time>2010-05-06T10:37:10Z</time>
      </trkpt>
      <trkpt lat="35.1530158" lon="24.4756670">
        <ele>21.7669678</ele>
        <time>2010-05-06T10:37:17Z</time>
      </trkpt>
      <trkpt lat="35.1529750" lon="24.4756040">
        <ele>21.2863770</ele>
        <time>2010-05-06T10:37:25Z</time>
      </trkpt>
      <trkpt lat="35.1529477" lon="24.4755281">
        <ele>20.8056641</ele>
        <time>2010-05-06T10:37:33Z</time>
      </trkpt>
      <trkpt lat="35.1529394" lon="24.4754286">
        <ele>20.8056641</ele>
        <time>2010-05-06T10:37:41Z</time>
      </trkpt>
      <trkpt lat="35.1529454" lon="24.4753563">
        <ele>21.2863770</ele>
        <time>2010-05-06T10:37:48Z</time>
      </trkpt>
      <trkpt lat="35.1529446" lon="24.4752583">
        <ele>22.2475586</ele>
        <time>2010-05-06T10:37:57Z</time>
      </trkpt>
      <trkpt lat="35.1529510" lon="24.4751972">
        <ele>22.7282715</ele>
        <time>2010-05-06T10:38:05Z</time>
      </trkpt>
      <trkpt lat="35.1529493" lon="24.4751642">
        <ele>23.6895752</ele>
        <time>2010-05-06T10:38:12Z</time>
      </trkpt>
      <trkpt lat="35.1529438" lon="24.4751517">
        <ele>24.1702881</ele>
        <time>2010-05-06T10:38:19Z</time>
      </trkpt>
      <trkpt lat="35.1529729" lon="24.4751260">
        <ele>24.6510010</ele>
        <time>2010-05-06T10:38:37Z</time>
      </trkpt>
      <trkpt lat="35.1529827" lon="24.4751044">
        <ele>25.1317139</ele>
        <time>2010-05-06T10:38:44Z</time>
      </trkpt>
      <trkpt lat="35.1530034" lon="24.4750944">
        <ele>25.6123047</ele>
        <time>2010-05-06T10:38:51Z</time>
      </trkpt>
      <trkpt lat="35.1530107" lon="24.4750527">
        <ele>23.6895752</ele>
        <time>2010-05-06T10:38:58Z</time>
      </trkpt>
      <trkpt lat="35.1530107" lon="24.4750118">
        <ele>22.2475586</ele>
        <time>2010-05-06T10:39:08Z</time>
      </trkpt>
      <trkpt lat="35.1530096" lon="24.4750175">
        <ele>22.2475586</ele>
        <time>2010-05-06T10:39:20Z</time>
      </trkpt>
      <trkpt lat="35.1530439" lon="24.4749878">
        <ele>21.7669678</ele>
        <time>2010-05-06T10:39:29Z</time>
      </trkpt>
      <trkpt lat="35.1530318" lon="24.4749744">
        <ele>19.8443604</ele>
        <time>2010-05-06T10:39:36Z</time>
      </trkpt>
      <trkpt lat="35.1529969" lon="24.4749981">
        <ele>17.9217529</ele>
        <time>2010-05-06T10:39:44Z</time>
      </trkpt>
      <trkpt lat="35.1529692" lon="24.4749781">
        <ele>15.9990234</ele>
        <time>2010-05-06T10:39:51Z</time>
      </trkpt>
      <trkpt lat="35.1529524" lon="24.4749810">
        <ele>14.5570068</ele>
        <time>2010-05-06T10:39:58Z</time>
      </trkpt>
      <trkpt lat="35.1529355" lon="24.4749948">
        <ele>13.5958252</ele>
        <time>2010-05-06T10:40:04Z</time>
      </trkpt>
      <trkpt lat="35.1529030" lon="24.4750252">
        <ele>12.6343994</ele>
        <time>2010-05-06T10:40:12Z</time>
      </trkpt>
      <trkpt lat="35.1528905" lon="24.4749780">
        <ele>11.1925049</ele>
        <time>2010-05-06T10:40:17Z</time>
      </trkpt>
      <trkpt lat="35.1528792" lon="24.4749075">
        <ele>8.7891846</ele>
        <time>2010-05-06T10:40:21Z</time>
      </trkpt>
      <trkpt lat="35.1528956" lon="24.4747993">
        <ele>5.9052734</ele>
        <time>2010-05-06T10:40:28Z</time>
      </trkpt>
      <trkpt lat="35.1529312" lon="24.4747334">
        <ele>4.4632568</ele>
        <time>2010-05-06T10:40:34Z</time>
      </trkpt>
      <trkpt lat="35.1529905" lon="24.4746491">
        <ele>2.5406494</ele>
        <time>2010-05-06T10:40:42Z</time>
      </trkpt>
      <trkpt lat="35.1530239" lon="24.4745726">
        <ele>1.0986328</ele>
        <time>2010-05-06T10:40:49Z</time>
      </trkpt>
      <trkpt lat="35.1530055" lon="24.4745306">
        <ele>-0.8240967</ele>
        <time>2010-05-06T10:40:57Z</time>
      </trkpt>
      <trkpt lat="35.1529940" lon="24.4745196">
        <ele>0.1374512</ele>
        <time>2010-05-06T10:41:15Z</time>
      </trkpt>
      <trkpt lat="35.1529925" lon="24.4745130">
        <ele>0.1374512</ele>
        <time>2010-05-06T10:41:23Z</time>
      </trkpt>
      <trkpt lat="35.1529924" lon="24.4745098">
        <ele>-0.3433838</ele>
        <time>2010-05-06T10:41:32Z</time>
      </trkpt>
      <trkpt lat="35.1529924" lon="24.4745053">
        <ele>-0.3433838</ele>
        <time>2010-05-06T10:41:36Z</time>
      </trkpt>
      <trkpt lat="35.1529935" lon="24.4744982">
        <ele>0.1374512</ele>
        <time>2010-05-06T10:42:22Z</time>
      </trkpt>
      <trkpt lat="35.1529936" lon="24.4744956">
        <ele>0.1374512</ele>
        <time>2010-05-06T10:42:23Z</time>
      </trkpt>
      <trkpt lat="35.1530013" lon="24.4744676">
        <ele>-1.7852783</ele>
        <time>2010-05-06T10:42:33Z</time>
      </trkpt>
      <trkpt lat="35.1530210" lon="24.4743807">
        <ele>-2.2659912</ele>
        <time>2010-05-06T10:42:41Z</time>
      </trkpt>
      <trkpt lat="35.1530360" lon="24.4743539">
        <ele>-3.2272949</ele>
        <time>2010-05-06T10:42:47Z</time>
      </trkpt>
      <trkpt lat="35.1530510" lon="24.4742962">
        <ele>-4.6693115</ele>
        <time>2010-05-06T10:42:53Z</time>
      </trkpt>
      <trkpt lat="35.1530441" lon="24.4742052">
        <ele>-5.1499023</ele>
        <time>2010-05-06T10:43:00Z</time>
      </trkpt>
      <trkpt lat="35.1530539" lon="24.4741525">
        <ele>-5.6304932</ele>
        <time>2010-05-06T10:43:04Z</time>
      </trkpt>
      <trkpt lat="35.1531220" lon="24.4740560">
        <ele>-5.6304932</ele>
        <time>2010-05-06T10:43:15Z</time>
      </trkpt>
      <trkpt lat="35.1531629" lon="24.4740217">
        <ele>-6.5919189</ele>
        <time>2010-05-06T10:43:24Z</time>
      </trkpt>
      <trkpt lat="35.1531959" lon="24.4739793">
        <ele>-2.2659912</ele>
        <time>2010-05-06T10:43:39Z</time>
      </trkpt>
      <trkpt lat="35.1532389" lon="24.4739580">
        <ele>-2.7467041</ele>
        <time>2010-05-06T10:43:45Z</time>
      </trkpt>
      <trkpt lat="35.1533479" lon="24.4739136">
        <ele>-2.2659912</ele>
        <time>2010-05-06T10:43:56Z</time>
      </trkpt>
      <trkpt lat="35.1534110" lon="24.4738468">
        <ele>1.0986328</ele>
        <time>2010-05-06T10:44:04Z</time>
      </trkpt>
      <trkpt lat="35.1534644" lon="24.4738363">
        <ele>-2.7467041</ele>
        <time>2010-05-06T10:44:12Z</time>
      </trkpt>
      <trkpt lat="35.1534945" lon="24.4737979">
        <ele>-6.1112061</ele>
        <time>2010-05-06T10:44:18Z</time>
      </trkpt>
      <trkpt lat="35.1535394" lon="24.4737806">
        <ele>-5.1499023</ele>
        <time>2010-05-06T10:44:23Z</time>
      </trkpt>
      <trkpt lat="35.1536031" lon="24.4737372">
        <ele>-2.7467041</ele>
        <time>2010-05-06T10:44:28Z</time>
      </trkpt>
      <trkpt lat="35.1536036" lon="24.4736867">
        <ele>-3.7078857</ele>
        <time>2010-05-06T10:44:35Z</time>
      </trkpt>
      <trkpt lat="35.1535964" lon="24.4736614">
        <ele>-5.1499023</ele>
        <time>2010-05-06T10:44:42Z</time>
      </trkpt>
      <trkpt lat="35.1536070" lon="24.4736811">
        <ele>-5.1499023</ele>
        <time>2010-05-06T10:44:53Z</time>
      </trkpt>
      <trkpt lat="35.1536079" lon="24.4736884">
        <ele>-5.1499023</ele>
        <time>2010-05-06T10:45:05Z</time>
      </trkpt>
      <trkpt lat="35.1536048" lon="24.4736768">
        <ele>-5.6304932</ele>
        <time>2010-05-06T10:45:17Z</time>
      </trkpt>
      <trkpt lat="35.1536132" lon="24.4736643">
        <ele>-4.1885986</ele>
        <time>2010-05-06T10:45:23Z</time>
      </trkpt>
      <trkpt lat="35.1536095" lon="24.4736655">
        <ele>-3.7078857</ele>
        <time>2010-05-06T10:45:36Z</time>
      </trkpt>
      <trkpt lat="35.1536147" lon="24.4736839">
        <ele>-6.1112061</ele>
        <time>2010-05-06T10:45:57Z</time>
      </trkpt>
      <trkpt lat="35.1536146" lon="24.4736951">
        <ele>-8.0339355</ele>
        <time>2010-05-06T10:46:13Z</time>
      </trkpt>
      <trkpt lat="35.1536548" lon="24.4737433">
        <ele>-8.0339355</ele>
        <time>2010-05-06T10:46:20Z</time>
      </trkpt>
      <trkpt lat="35.1537052" lon="24.4737101">
        <ele>-6.1112061</ele>
        <time>2010-05-06T10:46:27Z</time>
      </trkpt>
      <trkpt lat="35.1537347" lon="24.4736596">
        <ele>-5.1499023</ele>
        <time>2010-05-06T10:46:35Z</time>
      </trkpt>
      <trkpt lat="35.1537685" lon="24.4736077">
        <ele>-4.1885986</ele>
        <time>2010-05-06T10:46:42Z</time>
      </trkpt>
      <trkpt lat="35.1538187" lon="24.4735795">
        <ele>-4.1885986</ele>
        <time>2010-05-06T10:46:49Z</time>
      </trkpt>
      <trkpt lat="35.1538393" lon="24.4735334">
        <ele>-4.6693115</ele>
        <time>2010-05-06T10:46:55Z</time>
      </trkpt>
      <trkpt lat="35.1538905" lon="24.4735055">
        <ele>-3.2272949</ele>
        <time>2010-05-06T10:47:01Z</time>
      </trkpt>
      <trkpt lat="35.1539311" lon="24.4735297">
        <ele>-2.2659912</ele>
        <time>2010-05-06T10:47:07Z</time>
      </trkpt>
      <trkpt lat="35.1539786" lon="24.4735145">
        <ele>-1.3046875</ele>
        <time>2010-05-06T10:47:13Z</time>
      </trkpt>
      <trkpt lat="35.1540367" lon="24.4735184">
        <ele>-1.3046875</ele>
        <time>2010-05-06T10:47:20Z</time>
      </trkpt>
      <trkpt lat="35.1540825" lon="24.4734904">
        <ele>-2.7467041</ele>
        <time>2010-05-06T10:47:27Z</time>
      </trkpt>
      <trkpt lat="35.1540859" lon="24.4734638">
        <ele>-5.1499023</ele>
        <time>2010-05-06T10:47:34Z</time>
      </trkpt>
      <trkpt lat="35.1541177" lon="24.4734361">
        <ele>-6.1112061</ele>
        <time>2010-05-06T10:47:38Z</time>
      </trkpt>
      <trkpt lat="35.1541272" lon="24.4734375">
        <ele>-5.6304932</ele>
        <time>2010-05-06T10:47:39Z</time>
      </trkpt>
      <trkpt lat="35.1541983" lon="24.4734826">
        <ele>-4.6693115</ele>
        <time>2010-05-06T10:47:47Z</time>
      </trkpt>
      <trkpt lat="35.1542233" lon="24.4734790">
        <ele>-5.6304932</ele>
        <time>2010-05-06T10:47:52Z</time>
      </trkpt>
      <trkpt lat="35.1542321" lon="24.4734324">
        <ele>-7.5531006</ele>
        <time>2010-05-06T10:48:01Z</time>
      </trkpt>
      <trkpt lat="35.1542233" lon="24.4734220">
        <ele>-8.0339355</ele>
        <time>2010-05-06T10:48:16Z</time>
      </trkpt>
      <trkpt lat="35.1541785" lon="24.4733914">
        <ele>-9.9565430</ele>
        <time>2010-05-06T10:48:40Z</time>
      </trkpt>
      <trkpt lat="35.1542161" lon="24.4733627">
        <ele>-8.9952393</ele>
        <time>2010-05-06T10:48:52Z</time>
      </trkpt>
      <trkpt lat="35.1542734" lon="24.4733530">
        <ele>-8.9952393</ele>
        <time>2010-05-06T10:48:59Z</time>
      </trkpt>
      <trkpt lat="35.1543327" lon="24.4733612">
        <ele>-4.1885986</ele>
        <time>2010-05-06T10:49:07Z</time>
      </trkpt>
      <trkpt lat="35.1543557" lon="24.4733726">
        <ele>-0.3433838</ele>
        <time>2010-05-06T10:49:13Z</time>
      </trkpt>
      <trkpt lat="35.1543658" lon="24.4733843">
        <ele>-1.7852783</ele>
        <time>2010-05-06T10:49:32Z</time>
      </trkpt>
      <trkpt lat="35.1544377" lon="24.4733717">
        <ele>-3.7078857</ele>
        <time>2010-05-06T10:49:41Z</time>
      </trkpt>
      <trkpt lat="35.1545235" lon="24.4733382">
        <ele>-1.7852783</ele>
        <time>2010-05-06T10:49:49Z</time>
      </trkpt>
      <trkpt lat="35.1546020" lon="24.4732861">
        <ele>0.6180420</ele>
        <time>2010-05-06T10:49:58Z</time>
      </trkpt>
      <trkpt lat="35.1546777" lon="24.4732526">
        <ele>4.4632568</ele>
        <time>2010-05-06T10:50:07Z</time>
      </trkpt>
      <trkpt lat="35.1547134" lon="24.4732365">
        <ele>3.9826660</ele>
        <time>2010-05-06T10:50:13Z</time>
      </trkpt>
      <trkpt lat="35.1547179" lon="24.4731737">
        <ele>1.0986328</ele>
        <time>2010-05-06T10:50:21Z</time>
      </trkpt>
      <trkpt lat="35.1547626" lon="24.4731042">
        <ele>-1.3046875</ele>
        <time>2010-05-06T10:50:27Z</time>
      </trkpt>
      <trkpt lat="35.1547860" lon="24.4730987">
        <ele>-2.2659912</ele>
        <time>2010-05-06T10:50:29Z</time>
      </trkpt>
      <trkpt lat="35.1548459" lon="24.4730615">
        <ele>-4.1885986</ele>
        <time>2010-05-06T10:50:37Z</time>
      </trkpt>
      <trkpt lat="35.1548937" lon="24.4731075">
        <ele>0.1374512</ele>
        <time>2010-05-06T10:50:50Z</time>
      </trkpt>
      <trkpt lat="35.1549243" lon="24.4731560">
        <ele>-3.7078857</ele>
        <time>2010-05-06T10:51:05Z</time>
      </trkpt>
      <trkpt lat="35.1549558" lon="24.4731360">
        <ele>-6.5919189</ele>
        <time>2010-05-06T10:51:09Z</time>
      </trkpt>
      <trkpt lat="35.1550423" lon="24.4730638">
        <ele>-5.6304932</ele>
        <time>2010-05-06T10:51:18Z</time>
      </trkpt>
      <trkpt lat="35.1551557" lon="24.4730027">
        <ele>-0.8240967</ele>
        <time>2010-05-06T10:51:26Z</time>
      </trkpt>
      <trkpt lat="35.1552096" lon="24.4730194">
        <ele>-2.2659912</ele>
        <time>2010-05-06T10:51:34Z</time>
      </trkpt>
      <trkpt lat="35.1552874" lon="24.4729801">
        <ele>3.5019531</ele>
        <time>2010-05-06T10:51:41Z</time>
      </trkpt>
      <trkpt lat="35.1553068" lon="24.4729962">
        <ele>3.9826660</ele>
        <time>2010-05-06T10:51:48Z</time>
      </trkpt>
      <trkpt lat="35.1553415" lon="24.4729564">
        <ele>2.0600586</ele>
        <time>2010-05-06T10:51:56Z</time>
      </trkpt>
      <trkpt lat="35.1554033" lon="24.4728668">
        <ele>6.8664551</ele>
        <time>2010-05-06T10:52:02Z</time>
      </trkpt>
      <trkpt lat="35.1554732" lon="24.4728594">
        <ele>3.5019531</ele>
        <time>2010-05-06T10:52:09Z</time>
      </trkpt>
      <trkpt lat="35.1555257" lon="24.4728309">
        <ele>-2.7467041</ele>
        <time>2010-05-06T10:52:17Z</time>
      </trkpt>
      <trkpt lat="35.1555971" lon="24.4728278">
        <ele>-0.3433838</ele>
        <time>2010-05-06T10:52:23Z</time>
      </trkpt>
      <trkpt lat="35.1556186" lon="24.4728105">
        <ele>2.5406494</ele>
        <time>2010-05-06T10:52:27Z</time>
      </trkpt>
      <trkpt lat="35.1556526" lon="24.4727826">
        <ele>3.5019531</ele>
        <time>2010-05-06T10:52:30Z</time>
      </trkpt>
      <trkpt lat="35.1557032" lon="24.4727703">
        <ele>6.8664551</ele>
        <time>2010-05-06T10:52:34Z</time>
      </trkpt>
      <trkpt lat="35.1557286" lon="24.4728079">
        <ele>7.3471680</ele>
        <time>2010-05-06T10:52:39Z</time>
      </trkpt>
      <trkpt lat="35.1557763" lon="24.4728102">
        <ele>12.6343994</ele>
        <time>2010-05-06T10:52:45Z</time>
      </trkpt>
      <trkpt lat="35.1557971" lon="24.4727931">
        <ele>15.5184326</ele>
        <time>2010-05-06T10:52:49Z</time>
      </trkpt>
      <trkpt lat="35.1558312" lon="24.4727983">
        <ele>14.5570068</ele>
        <time>2010-05-06T10:52:54Z</time>
      </trkpt>
      <trkpt lat="35.1558584" lon="24.4728548">
        <ele>11.6732178</ele>
        <time>2010-05-06T10:53:05Z</time>
      </trkpt>
      <trkpt lat="35.1558742" lon="24.4728624">
        <ele>7.3471680</ele>
        <time>2010-05-06T10:53:11Z</time>
      </trkpt>
      <trkpt lat="35.1558935" lon="24.4728502">
        <ele>3.9826660</ele>
        <time>2010-05-06T10:53:18Z</time>
      </trkpt>
      <trkpt lat="35.1559031" lon="24.4728183">
        <ele>1.0986328</ele>
        <time>2010-05-06T10:53:25Z</time>
      </trkpt>
      <trkpt lat="35.1559338" lon="24.4727926">
        <ele>1.0986328</ele>
        <time>2010-05-06T10:53:31Z</time>
      </trkpt>
      <trkpt lat="35.1560425" lon="24.4727491">
        <ele>3.9826660</ele>
        <time>2010-05-06T10:53:50Z</time>
      </trkpt>
      <trkpt lat="35.1560400" lon="24.4727857">
        <ele>5.4245605</ele>
        <time>2010-05-06T10:53:59Z</time>
      </trkpt>
      <trkpt lat="35.1561233" lon="24.4726895">
        <ele>12.1538086</ele>
        <time>2010-05-06T10:54:04Z</time>
      </trkpt>
      <trkpt lat="35.1561351" lon="24.4727035">
        <ele>10.7117920</ele>
        <time>2010-05-06T10:54:09Z</time>
      </trkpt>
      <trkpt lat="35.1561418" lon="24.4727061">
        <ele>8.3085938</ele>
        <time>2010-05-06T10:54:15Z</time>
      </trkpt>
      <trkpt lat="35.1563196" lon="24.4726391">
        <ele>-5.1499023</ele>
        <time>2010-05-06T10:55:34Z</time>
      </trkpt>
      <trkpt lat="35.1564031" lon="24.4725408">
        <ele>17.4411621</ele>
        <time>2010-05-06T10:56:15Z</time>
      </trkpt>
      <trkpt lat="35.1564399" lon="24.4725248">
        <ele>19.8443604</ele>
        <time>2010-05-06T10:56:19Z</time>
      </trkpt>
      <trkpt lat="35.1564979" lon="24.4725056">
        <ele>24.6510010</ele>
        <time>2010-05-06T10:56:25Z</time>
      </trkpt>
      <trkpt lat="35.1565366" lon="24.4725098">
        <ele>27.0543213</ele>
        <time>2010-05-06T10:56:30Z</time>
      </trkpt>
      <trkpt lat="35.1565653" lon="24.4725541">
        <ele>24.1702881</ele>
        <time>2010-05-06T10:56:46Z</time>
      </trkpt>
      <trkpt lat="35.1566351" lon="24.4725800">
        <ele>24.6510010</ele>
        <time>2010-05-06T10:57:08Z</time>
      </trkpt>
      <trkpt lat="35.1566310" lon="24.4727350">
        <ele>7.3471680</ele>
        <time>2010-05-06T10:57:57Z</time>
      </trkpt>
      <trkpt lat="35.1566143" lon="24.4727810">
        <ele>3.0212402</ele>
        <time>2010-05-06T10:58:12Z</time>
      </trkpt>
      <trkpt lat="35.1566179" lon="24.4728268">
        <ele>1.0986328</ele>
        <time>2010-05-06T10:58:21Z</time>
      </trkpt>
      <trkpt lat="35.1566570" lon="24.4728252">
        <ele>-0.3433838</ele>
        <time>2010-05-06T10:58:28Z</time>
      </trkpt>
      <trkpt lat="35.1566805" lon="24.4728222">
        <ele>-1.3046875</ele>
        <time>2010-05-06T10:58:32Z</time>
      </trkpt>
      <trkpt lat="35.1567081" lon="24.4728506">
        <ele>-2.2659912</ele>
        <time>2010-05-06T10:58:38Z</time>
      </trkpt>
      <trkpt lat="35.1566993" lon="24.4729027">
        <ele>-7.0725098</ele>
        <time>2010-05-06T10:59:10Z</time>
      </trkpt>
      <trkpt lat="35.1567154" lon="24.4728925">
        <ele>-1.3046875</ele>
        <time>2010-05-06T10:59:42Z</time>
      </trkpt>
      <trkpt lat="35.1567305" lon="24.4728599">
        <ele>-3.2272949</ele>
        <time>2010-05-06T11:01:03Z</time>
      </trkpt>
      <trkpt lat="35.1567030" lon="24.4728913">
        <ele>-1.3046875</ele>
        <time>2010-05-06T11:01:58Z</time>
      </trkpt>
      <trkpt lat="35.1567387" lon="24.4729136">
        <ele>-3.2272949</ele>
        <time>2010-05-06T11:02:11Z</time>
      </trkpt>
      <trkpt lat="35.1567705" lon="24.4729222">
        <ele>-3.7078857</ele>
        <time>2010-05-06T11:02:20Z</time>
      </trkpt>
      <trkpt lat="35.1567986" lon="24.4728864">
        <ele>-5.6304932</ele>
        <time>2010-05-06T11:03:00Z</time>
      </trkpt>
      <trkpt lat="35.1567966" lon="24.4728882">
        <ele>-6.1112061</ele>
        <time>2010-05-06T11:03:09Z</time>
      </trkpt>
      <trkpt lat="35.1568246" lon="24.4728936">
        <ele>-8.0339355</ele>
        <time>2010-05-06T11:03:28Z</time>
      </trkpt>
      <trkpt lat="35.1567557" lon="24.4728595">
        <ele>-9.4758301</ele>
        <time>2010-05-06T11:03:47Z</time>
      </trkpt>
      <trkpt lat="35.1567225" lon="24.4728753">
        <ele>-7.0725098</ele>
        <time>2010-05-06T11:03:50Z</time>
      </trkpt>
      <trkpt lat="35.1566797" lon="24.4728554">
        <ele>-3.7078857</ele>
        <time>2010-05-06T11:03:55Z</time>
      </trkpt>
      <trkpt lat="35.1565802" lon="24.4729017">
        <ele>3.9826660</ele>
        <time>2010-05-06T11:04:01Z</time>
      </trkpt>
      <trkpt lat="35.1565595" lon="24.4728994">
        <ele>5.4245605</ele>
        <time>2010-05-06T11:04:04Z</time>
      </trkpt>
      <trkpt lat="35.1565082" lon="24.4728598">
        <ele>5.9052734</ele>
        <time>2010-05-06T11:04:12Z</time>
      </trkpt>
      <trkpt lat="35.1564606" lon="24.4728356">
        <ele>7.3471680</ele>
        <time>2010-05-06T11:04:18Z</time>
      </trkpt>
      <trkpt lat="35.1563373" lon="24.4728593">
        <ele>23.2089844</ele>
        <time>2010-05-06T11:04:30Z</time>
      </trkpt>
      <trkpt lat="35.1562164" lon="24.4728901">
        <ele>31.3801270</ele>
        <time>2010-05-06T11:04:38Z</time>
      </trkpt>
      <trkpt lat="35.1561819" lon="24.4728967">
        <ele>34.2641602</ele>
        <time>2010-05-06T11:04:42Z</time>
      </trkpt>
      <trkpt lat="35.1562000" lon="24.4727470">
        <ele>31.8607178</ele>
        <time>2010-05-06T11:04:49Z</time>
      </trkpt>
      <trkpt lat="35.1561969" lon="24.4727341">
        <ele>30.8995361</ele>
        <time>2010-05-06T11:04:50Z</time>
      </trkpt>
      <trkpt lat="35.1562136" lon="24.4726051">
        <ele>16.9604492</ele>
        <time>2010-05-06T11:04:57Z</time>
      </trkpt>
      <trkpt lat="35.1562067" lon="24.4726007">
        <ele>15.9990234</ele>
        <time>2010-05-06T11:04:58Z</time>
      </trkpt>
      <trkpt lat="35.1561627" lon="24.4725650">
        <ele>10.7117920</ele>
        <time>2010-05-06T11:05:05Z</time>
      </trkpt>
      <trkpt lat="35.1561437" lon="24.4724762">
        <ele>-5.1499023</ele>
        <time>2010-05-06T11:05:16Z</time>
      </trkpt>
      <trkpt lat="35.1561462" lon="24.4724439">
        <ele>-11.3984375</ele>
        <time>2010-05-06T11:05:22Z</time>
      </trkpt>
      <trkpt lat="35.1561218" lon="24.4724272">
        <ele>-12.8404541</ele>
        <time>2010-05-06T11:05:29Z</time>
      </trkpt>
      <trkpt lat="35.1561006" lon="24.4724207">
        <ele>-10.9178467</ele>
        <time>2010-05-06T11:05:36Z</time>
      </trkpt>
      <trkpt lat="35.1560576" lon="24.4724568">
        <ele>-4.1885986</ele>
        <time>2010-05-06T11:05:41Z</time>
      </trkpt>
      <trkpt lat="35.1559887" lon="24.4724917">
        <ele>4.4632568</ele>
        <time>2010-05-06T11:05:47Z</time>
      </trkpt>
      <trkpt lat="35.1558927" lon="24.4725299">
        <ele>11.1925049</ele>
        <time>2010-05-06T11:05:55Z</time>
      </trkpt>
      <trkpt lat="35.1558212" lon="24.4725520">
        <ele>15.5184326</ele>
        <time>2010-05-06T11:06:02Z</time>
      </trkpt>
      <trkpt lat="35.1557828" lon="24.4725296">
        <ele>22.7282715</ele>
        <time>2010-05-06T11:06:08Z</time>
      </trkpt>
      <trkpt lat="35.1557412" lon="24.4725370">
        <ele>27.0543213</ele>
        <time>2010-05-06T11:06:17Z</time>
      </trkpt>
      <trkpt lat="35.1556823" lon="24.4725030">
        <ele>21.2863770</ele>
        <time>2010-05-06T11:06:24Z</time>
      </trkpt>
      <trkpt lat="35.1556259" lon="24.4724743">
        <ele>15.5184326</ele>
        <time>2010-05-06T11:06:33Z</time>
      </trkpt>
      <trkpt lat="35.1556027" lon="24.4724560">
        <ele>6.3858643</ele>
        <time>2010-05-06T11:06:38Z</time>
      </trkpt>
      <trkpt lat="35.1555824" lon="24.4724982">
        <ele>3.5019531</ele>
        <time>2010-05-06T11:06:43Z</time>
      </trkpt>
      <trkpt lat="35.1554954" lon="24.4725733">
        <ele>6.8664551</ele>
        <time>2010-05-06T11:06:52Z</time>
      </trkpt>
      <trkpt lat="35.1554338" lon="24.4726394">
        <ele>11.1925049</ele>
        <time>2010-05-06T11:06:58Z</time>
      </trkpt>
      <trkpt lat="35.1553692" lon="24.4726754">
        <ele>13.5958252</ele>
        <time>2010-05-06T11:07:04Z</time>
      </trkpt>
      <trkpt lat="35.1553176" lon="24.4726780">
        <ele>15.0377197</ele>
        <time>2010-05-06T11:07:10Z</time>
      </trkpt>
      <trkpt lat="35.1552661" lon="24.4727024">
        <ele>15.5184326</ele>
        <time>2010-05-06T11:07:17Z</time>
      </trkpt>
      <trkpt lat="35.1551403" lon="24.4728531">
        <ele>23.6895752</ele>
        <time>2010-05-06T11:07:36Z</time>
      </trkpt>
      <trkpt lat="35.1551293" lon="24.4728708">
        <ele>25.1317139</ele>
        <time>2010-05-06T11:07:37Z</time>
      </trkpt>
      <trkpt lat="35.1551080" lon="24.4728911">
        <ele>27.0543213</ele>
        <time>2010-05-06T11:07:39Z</time>
      </trkpt>
      <trkpt lat="35.1550584" lon="24.4728810">
        <ele>26.0928955</ele>
        <time>2010-05-06T11:07:44Z</time>
      </trkpt>
      <trkpt lat="35.1550332" lon="24.4728708">
        <ele>26.5736084</ele>
        <time>2010-05-06T11:07:48Z</time>
      </trkpt>
      <trkpt lat="35.1550090" lon="24.4728086">
        <ele>22.2475586</ele>
        <time>2010-05-06T11:07:56Z</time>
      </trkpt>
      <trkpt lat="35.1549740" lon="24.4727199">
        <ele>8.7891846</ele>
        <time>2010-05-06T11:08:03Z</time>
      </trkpt>
      <trkpt lat="35.1549536" lon="24.4727109">
        <ele>3.9826660</ele>
        <time>2010-05-06T11:08:07Z</time>
      </trkpt>
      <trkpt lat="35.1549216" lon="24.4727020">
        <ele>0.6180420</ele>
        <time>2010-05-06T11:08:12Z</time>
      </trkpt>
      <trkpt lat="35.1548750" lon="24.4727188">
        <ele>2.5406494</ele>
        <time>2010-05-06T11:08:16Z</time>
      </trkpt>
      <trkpt lat="35.1548085" lon="24.4727605">
        <ele>2.0600586</ele>
        <time>2010-05-06T11:08:23Z</time>
      </trkpt>
      <trkpt lat="35.1547716" lon="24.4727921">
        <ele>2.5406494</ele>
        <time>2010-05-06T11:08:26Z</time>
      </trkpt>
      <trkpt lat="35.1546998" lon="24.4727932">
        <ele>1.0986328</ele>
        <time>2010-05-06T11:08:35Z</time>
      </trkpt>
      <trkpt lat="35.1546802" lon="24.4728028">
        <ele>1.5793457</ele>
        <time>2010-05-06T11:08:37Z</time>
      </trkpt>
      <trkpt lat="35.1546362" lon="24.4728247">
        <ele>0.6180420</ele>
        <time>2010-05-06T11:08:42Z</time>
      </trkpt>
      <trkpt lat="35.1545813" lon="24.4728506">
        <ele>-3.2272949</ele>
        <time>2010-05-06T11:08:50Z</time>
      </trkpt>
      <trkpt lat="35.1545284" lon="24.4728340">
        <ele>-6.5919189</ele>
        <time>2010-05-06T11:08:57Z</time>
      </trkpt>
      <trkpt lat="35.1544889" lon="24.4728509">
        <ele>-8.9952393</ele>
        <time>2010-05-06T11:09:04Z</time>
      </trkpt>
      <trkpt lat="35.1544315" lon="24.4728692">
        <ele>-8.0339355</ele>
        <time>2010-05-06T11:09:15Z</time>
      </trkpt>
      <trkpt lat="35.1544045" lon="24.4728765">
        <ele>-5.6304932</ele>
        <time>2010-05-06T11:09:17Z</time>
      </trkpt>
      <trkpt lat="35.1543730" lon="24.4729092">
        <ele>-4.6693115</ele>
        <time>2010-05-06T11:09:21Z</time>
      </trkpt>
      <trkpt lat="35.1542842" lon="24.4729672">
        <ele>-2.7467041</ele>
        <time>2010-05-06T11:09:30Z</time>
      </trkpt>
      <trkpt lat="35.1542383" lon="24.4730283">
        <ele>-0.8240967</ele>
        <time>2010-05-06T11:09:38Z</time>
      </trkpt>
      <trkpt lat="35.1542071" lon="24.4730159">
        <ele>-1.7852783</ele>
        <time>2010-05-06T11:09:44Z</time>
      </trkpt>
      <trkpt lat="35.1541663" lon="24.4730304">
        <ele>-3.2272949</ele>
        <time>2010-05-06T11:09:51Z</time>
      </trkpt>
      <trkpt lat="35.1541224" lon="24.4730804">
        <ele>-5.1499023</ele>
        <time>2010-05-06T11:09:57Z</time>
      </trkpt>
      <trkpt lat="35.1540683" lon="24.4730972">
        <ele>-7.0725098</ele>
        <time>2010-05-06T11:10:04Z</time>
      </trkpt>
      <trkpt lat="35.1540468" lon="24.4730960">
        <ele>-7.0725098</ele>
        <time>2010-05-06T11:10:06Z</time>
      </trkpt>
      <trkpt lat="35.1539981" lon="24.4731070">
        <ele>-8.5146484</ele>
        <time>2010-05-06T11:10:11Z</time>
      </trkpt>
      <trkpt lat="35.1539605" lon="24.4731433">
        <ele>-7.5531006</ele>
        <time>2010-05-06T11:10:17Z</time>
      </trkpt>
      <trkpt lat="35.1539176" lon="24.4731224">
        <ele>-7.0725098</ele>
        <time>2010-05-06T11:10:22Z</time>
      </trkpt>
      <trkpt lat="35.1538942" lon="24.4731044">
        <ele>-8.0339355</ele>
        <time>2010-05-06T11:10:24Z</time>
      </trkpt>
      <trkpt lat="35.1538173" lon="24.4731520">
        <ele>-8.0339355</ele>
        <time>2010-05-06T11:10:34Z</time>
      </trkpt>
      <trkpt lat="35.1537229" lon="24.4731814">
        <ele>-6.5919189</ele>
        <time>2010-05-06T11:10:42Z</time>
      </trkpt>
      <trkpt lat="35.1537110" lon="24.4731816">
        <ele>-6.5919189</ele>
        <time>2010-05-06T11:10:43Z</time>
      </trkpt>
      <trkpt lat="35.1536253" lon="24.4731790">
        <ele>-9.4758301</ele>
        <time>2010-05-06T11:10:53Z</time>
      </trkpt>
      <trkpt lat="35.1535743" lon="24.4732117">
        <ele>-9.9565430</ele>
        <time>2010-05-06T11:10:59Z</time>
      </trkpt>
      <trkpt lat="35.1535010" lon="24.4731893">
        <ele>-11.8791504</ele>
        <time>2010-05-06T11:11:07Z</time>
      </trkpt>
      <trkpt lat="35.1534798" lon="24.4731919">
        <ele>-12.3598633</ele>
        <time>2010-05-06T11:11:09Z</time>
      </trkpt>
      <trkpt lat="35.1533680" lon="24.4732671">
        <ele>-11.3984375</ele>
        <time>2010-05-06T11:11:18Z</time>
      </trkpt>
      <trkpt lat="35.1532971" lon="24.4732330">
        <ele>-12.3598633</ele>
        <time>2010-05-06T11:11:25Z</time>
      </trkpt>
      <trkpt lat="35.1532712" lon="24.4731923">
        <ele>-12.8404541</ele>
        <time>2010-05-06T11:11:29Z</time>
      </trkpt>
      <trkpt lat="35.1532395" lon="24.4731854">
        <ele>-12.8404541</ele>
        <time>2010-05-06T11:11:32Z</time>
      </trkpt>
      <trkpt lat="35.1531660" lon="24.4732368">
        <ele>-12.8404541</ele>
        <time>2010-05-06T11:11:42Z</time>
      </trkpt>
      <trkpt lat="35.1531278" lon="24.4732775">
        <ele>-11.8791504</ele>
        <time>2010-05-06T11:11:47Z</time>
      </trkpt>
      <trkpt lat="35.1530686" lon="24.4732345">
        <ele>-11.8791504</ele>
        <time>2010-05-06T11:11:53Z</time>
      </trkpt>
      <trkpt lat="35.1530283" lon="24.4732118">
        <ele>-10.9178467</ele>
        <time>2010-05-06T11:11:59Z</time>
      </trkpt>
      <trkpt lat="35.1529548" lon="24.4732215">
        <ele>-9.4758301</ele>
        <time>2010-05-06T11:12:06Z</time>
      </trkpt>
      <trkpt lat="35.1528816" lon="24.4732396">
        <ele>-9.9565430</ele>
        <time>2010-05-06T11:12:14Z</time>
      </trkpt>
      <trkpt lat="35.1528159" lon="24.4732727">
        <ele>-10.9178467</ele>
        <time>2010-05-06T11:12:22Z</time>
      </trkpt>
      <trkpt lat="35.1527509" lon="24.4732526">
        <ele>-12.3598633</ele>
        <time>2010-05-06T11:12:30Z</time>
      </trkpt>
      <trkpt lat="35.1527111" lon="24.4732205">
        <ele>-11.3984375</ele>
        <time>2010-05-06T11:12:37Z</time>
      </trkpt>
      <trkpt lat="35.1527069" lon="24.4732260">
        <ele>-8.5146484</ele>
        <time>2010-05-06T11:12:52Z</time>
      </trkpt>
      <trkpt lat="35.1526765" lon="24.4731916">
        <ele>-8.9952393</ele>
        <time>2010-05-06T11:12:59Z</time>
      </trkpt>
      <trkpt lat="35.1526418" lon="24.4731402">
        <ele>-9.4758301</ele>
        <time>2010-05-06T11:13:07Z</time>
      </trkpt>
      <trkpt lat="35.1526194" lon="24.4731054">
        <ele>-8.9952393</ele>
        <time>2010-05-06T11:13:14Z</time>
      </trkpt>
      <trkpt lat="35.1525883" lon="24.4730717">
        <ele>-9.9565430</ele>
        <time>2010-05-06T11:13:20Z</time>
      </trkpt>
      <trkpt lat="35.1525570" lon="24.4730330">
        <ele>-10.4372559</ele>
        <time>2010-05-06T11:13:28Z</time>
      </trkpt>
      <trkpt lat="35.1525276" lon="24.4730402">
        <ele>-7.5531006</ele>
        <time>2010-05-06T11:13:34Z</time>
      </trkpt>
      <trkpt lat="35.1525180" lon="24.4730437">
        <ele>-6.5919189</ele>
        <time>2010-05-06T11:13:41Z</time>
      </trkpt>
      <trkpt lat="35.1525039" lon="24.4730390">
        <ele>-5.1499023</ele>
        <time>2010-05-06T11:13:52Z</time>
      </trkpt>
      <trkpt lat="35.1525040" lon="24.4730185">
        <ele>-6.5919189</ele>
        <time>2010-05-06T11:14:00Z</time>
      </trkpt>
      <trkpt lat="35.1525069" lon="24.4730096">
        <ele>-6.1112061</ele>
        <time>2010-05-06T11:14:05Z</time>
      </trkpt>
      <trkpt lat="35.1525131" lon="24.4730008">
        <ele>-6.5919189</ele>
        <time>2010-05-06T11:14:16Z</time>
      </trkpt>
      <trkpt lat="35.1525256" lon="24.4730010">
        <ele>-1.7852783</ele>
        <time>2010-05-06T11:14:32Z</time>
      </trkpt>
      <trkpt lat="35.1525324" lon="24.4730117">
        <ele>-6.1112061</ele>
        <time>2010-05-06T11:14:44Z</time>
      </trkpt>
      <trkpt lat="35.1525423" lon="24.4730141">
        <ele>-6.1112061</ele>
        <time>2010-05-06T11:14:50Z</time>
      </trkpt>
      <trkpt lat="35.1525342" lon="24.4730327">
        <ele>-4.6693115</ele>
        <time>2010-05-06T11:14:56Z</time>
      </trkpt>
      <trkpt lat="35.1524950" lon="24.4730086">
        <ele>-4.6693115</ele>
        <time>2010-05-06T11:15:01Z</time>
      </trkpt>
      <trkpt lat="35.1524593" lon="24.4729372">
        <ele>-6.1112061</ele>
        <time>2010-05-06T11:15:08Z</time>
      </trkpt>
      <trkpt lat="35.1524248" lon="24.4729137">
        <ele>-7.0725098</ele>
        <time>2010-05-06T11:15:15Z</time>
      </trkpt>
      <trkpt lat="35.1523920" lon="24.4729113">
        <ele>-9.9565430</ele>
        <time>2010-05-06T11:15:31Z</time>
      </trkpt>
      <trkpt lat="35.1524051" lon="24.4729069">
        <ele>-9.4758301</ele>
        <time>2010-05-06T11:15:36Z</time>
      </trkpt>
      <trkpt lat="35.1524139" lon="24.4728988">
        <ele>-9.9565430</ele>
        <time>2010-05-06T11:15:46Z</time>
      </trkpt>
      <trkpt lat="35.1523973" lon="24.4729204">
        <ele>-3.7078857</ele>
        <time>2010-05-06T11:16:05Z</time>
      </trkpt>
      <trkpt lat="35.1524144" lon="24.4729238">
        <ele>-1.7852783</ele>
        <time>2010-05-06T11:17:05Z</time>
      </trkpt>
      <trkpt lat="35.1524330" lon="24.4728884">
        <ele>-2.7467041</ele>
        <time>2010-05-06T11:17:10Z</time>
      </trkpt>
      <trkpt lat="35.1524103" lon="24.4728463">
        <ele>-1.7852783</ele>
        <time>2010-05-06T11:17:17Z</time>
      </trkpt>
      <trkpt lat="35.1523977" lon="24.4728487">
        <ele>0.6180420</ele>
        <time>2010-05-06T11:17:24Z</time>
      </trkpt>
      <trkpt lat="35.1523948" lon="24.4728060">
        <ele>0.1374512</ele>
        <time>2010-05-06T11:17:41Z</time>
      </trkpt>
      <trkpt lat="35.1524553" lon="24.4727903">
        <ele>-8.9952393</ele>
        <time>2010-05-06T11:18:30Z</time>
      </trkpt>
      <trkpt lat="35.1524645" lon="24.4727795">
        <ele>-11.8791504</ele>
        <time>2010-05-06T11:18:37Z</time>
      </trkpt>
      <trkpt lat="35.1525064" lon="24.4727289">
        <ele>-12.3598633</ele>
        <time>2010-05-06T11:18:55Z</time>
      </trkpt>
      <trkpt lat="35.1524284" lon="24.4727963">
        <ele>-8.9952393</ele>
        <time>2010-05-06T11:19:03Z</time>
      </trkpt>
      <trkpt lat="35.1524186" lon="24.4728071">
        <ele>1.0986328</ele>
        <time>2010-05-06T11:19:53Z</time>
      </trkpt>
      <trkpt lat="35.1523389" lon="24.4727671">
        <ele>8.3085938</ele>
        <time>2010-05-06T11:20:09Z</time>
      </trkpt>
      <trkpt lat="35.1523712" lon="24.4728185">
        <ele>2.5406494</ele>
        <time>2010-05-06T11:20:25Z</time>
      </trkpt>
      <trkpt lat="35.1524088" lon="24.4728818">
        <ele>-5.1499023</ele>
        <time>2010-05-06T11:20:42Z</time>
      </trkpt>
      <trkpt lat="35.1523935" lon="24.4728993">
        <ele>-4.1885986</ele>
        <time>2010-05-06T11:20:49Z</time>
      </trkpt>
      <trkpt lat="35.1523956" lon="24.4728966">
        <ele>-2.7467041</ele>
        <time>2010-05-06T11:20:59Z</time>
      </trkpt>
      <trkpt lat="35.1524103" lon="24.4728962">
        <ele>-5.6304932</ele>
        <time>2010-05-06T11:21:13Z</time>
      </trkpt>
      <trkpt lat="35.1524103" lon="24.4729282">
        <ele>-1.3046875</ele>
        <time>2010-05-06T11:21:31Z</time>
      </trkpt>
      <trkpt lat="35.1524057" lon="24.4729340">
        <ele>-0.8240967</ele>
        <time>2010-05-06T11:21:40Z</time>
      </trkpt>
      <trkpt lat="35.1524114" lon="24.4729315">
        <ele>-1.3046875</ele>
        <time>2010-05-06T11:21:53Z</time>
      </trkpt>
      <trkpt lat="35.1524209" lon="24.4729199">
        <ele>-3.7078857</ele>
        <time>2010-05-06T11:22:15Z</time>
      </trkpt>
      <trkpt lat="35.1524289" lon="24.4729071">
        <ele>-4.6693115</ele>
        <time>2010-05-06T11:22:37Z</time>
      </trkpt>
      <trkpt lat="35.1524235" lon="24.4729126">
        <ele>-4.1885986</ele>
        <time>2010-05-06T11:22:44Z</time>
      </trkpt>
      <trkpt lat="35.1524152" lon="24.4729247">
        <ele>-1.7852783</ele>
        <time>2010-05-06T11:22:57Z</time>
      </trkpt>
      <trkpt lat="35.1524041" lon="24.4729361">
        <ele>2.5406494</ele>
        <time>2010-05-06T11:23:14Z</time>
      </trkpt>
      <trkpt lat="35.1524108" lon="24.4729346">
        <ele>0.6180420</ele>
        <time>2010-05-06T11:23:33Z</time>
      </trkpt>
      <trkpt lat="35.1524092" lon="24.4729268">
        <ele>-0.3433838</ele>
        <time>2010-05-06T11:23:41Z</time>
      </trkpt>
      <trkpt lat="35.1524211" lon="24.4729071">
        <ele>-3.7078857</ele>
        <time>2010-05-06T11:23:53Z</time>
      </trkpt>
      <trkpt lat="35.1524144" lon="24.4729220">
        <ele>-2.2659912</ele>
        <time>2010-05-06T11:24:19Z</time>
      </trkpt>
      <trkpt lat="35.1524035" lon="24.4729444">
        <ele>1.0986328</ele>
        <time>2010-05-06T11:24:41Z</time>
      </trkpt>
      <trkpt lat="35.1523777" lon="24.4729641">
        <ele>3.5019531</ele>
        <time>2010-05-06T11:24:50Z</time>
      </trkpt>
      <trkpt lat="35.1523693" lon="24.4729645">
        <ele>3.0212402</ele>
        <time>2010-05-06T11:24:56Z</time>
      </trkpt>
      <trkpt lat="35.1524029" lon="24.4729484">
        <ele>2.5406494</ele>
        <time>2010-05-06T11:25:02Z</time>
      </trkpt>
      <trkpt lat="35.1524051" lon="24.4729469">
        <ele>2.0600586</ele>
        <time>2010-05-06T11:25:03Z</time>
      </trkpt>
      <trkpt lat="35.1523844" lon="24.4729506">
        <ele>-11.3984375</ele>
        <time>2010-05-06T12:37:12Z</time>
      </trkpt>
      <trkpt lat="35.1523790" lon="24.4729505">
        <ele>-11.3984375</ele>
        <time>2010-05-06T12:37:13Z</time>
      </trkpt>
      <trkpt lat="35.1523423" lon="24.4729326">
        <ele>-13.8017578</ele>
        <time>2010-05-06T12:37:18Z</time>
      </trkpt>
      <trkpt lat="35.1522943" lon="24.4729062">
        <ele>-14.7630615</ele>
        <time>2010-05-06T12:37:25Z</time>
      </trkpt>
      <trkpt lat="35.1522409" lon="24.4728495">
        <ele>-15.7243652</ele>
        <time>2010-05-06T12:37:34Z</time>
      </trkpt>
      <trkpt lat="35.1521849" lon="24.4727947">
        <ele>-17.1663818</ele>
        <time>2010-05-06T12:37:43Z</time>
      </trkpt>
      <trkpt lat="35.1521528" lon="24.4727481">
        <ele>-18.1278076</ele>
        <time>2010-05-06T12:37:51Z</time>
      </trkpt>
      <trkpt lat="35.1521267" lon="24.4727579">
        <ele>-17.6470947</ele>
        <time>2010-05-06T12:37:59Z</time>
      </trkpt>
      <trkpt lat="35.1520839" lon="24.4727965">
        <ele>-15.7243652</ele>
        <time>2010-05-06T12:38:06Z</time>
      </trkpt>
      <trkpt lat="35.1520636" lon="24.4728409">
        <ele>-11.8791504</ele>
        <time>2010-05-06T12:38:13Z</time>
      </trkpt>
      <trkpt lat="35.1520395" lon="24.4728719">
        <ele>-11.3984375</ele>
        <time>2010-05-06T12:38:18Z</time>
      </trkpt>
      <trkpt lat="35.1519850" lon="24.4729004">
        <ele>-11.3984375</ele>
        <time>2010-05-06T12:38:27Z</time>
      </trkpt>
      <trkpt lat="35.1519606" lon="24.4729226">
        <ele>-10.4372559</ele>
        <time>2010-05-06T12:38:33Z</time>
      </trkpt>
      <trkpt lat="35.1519385" lon="24.4729331">
        <ele>-10.9178467</ele>
        <time>2010-05-06T12:38:37Z</time>
      </trkpt>
      <trkpt lat="35.1519004" lon="24.4729128">
        <ele>-9.9565430</ele>
        <time>2010-05-06T12:38:43Z</time>
      </trkpt>
      <trkpt lat="35.1518576" lon="24.4729247">
        <ele>-7.5531006</ele>
        <time>2010-05-06T12:38:50Z</time>
      </trkpt>
      <trkpt lat="35.1518380" lon="24.4729014">
        <ele>-6.1112061</ele>
        <time>2010-05-06T12:38:56Z</time>
      </trkpt>
      <trkpt lat="35.1518363" lon="24.4728975">
        <ele>-5.1499023</ele>
        <time>2010-05-06T12:39:06Z</time>
      </trkpt>
      <trkpt lat="35.1518323" lon="24.4728790">
        <ele>-4.6693115</ele>
        <time>2010-05-06T12:39:13Z</time>
      </trkpt>
      <trkpt lat="35.1518124" lon="24.4728277">
        <ele>-6.1112061</ele>
        <time>2010-05-06T12:39:19Z</time>
      </trkpt>
      <trkpt lat="35.1517944" lon="24.4727686">
        <ele>-7.0725098</ele>
        <time>2010-05-06T12:39:26Z</time>
      </trkpt>
      <trkpt lat="35.1517734" lon="24.4727126">
        <ele>-6.1112061</ele>
        <time>2010-05-06T12:39:34Z</time>
      </trkpt>
      <trkpt lat="35.1517186" lon="24.4726841">
        <ele>-3.2272949</ele>
        <time>2010-05-06T12:39:43Z</time>
      </trkpt>
      <trkpt lat="35.1516981" lon="24.4726315">
        <ele>-2.7467041</ele>
        <time>2010-05-06T12:39:51Z</time>
      </trkpt>
      <trkpt lat="35.1517016" lon="24.4725647">
        <ele>-0.8240967</ele>
        <time>2010-05-06T12:39:59Z</time>
      </trkpt>
      <trkpt lat="35.1517393" lon="24.4725129">
        <ele>1.0986328</ele>
        <time>2010-05-06T12:40:07Z</time>
      </trkpt>
      <trkpt lat="35.1517833" lon="24.4724866">
        <ele>3.5019531</ele>
        <time>2010-05-06T12:40:15Z</time>
      </trkpt>
      <trkpt lat="35.1518342" lon="24.4724631">
        <ele>5.4245605</ele>
        <time>2010-05-06T12:40:23Z</time>
      </trkpt>
      <trkpt lat="35.1518737" lon="24.4724016">
        <ele>6.8664551</ele>
        <time>2010-05-06T12:40:32Z</time>
      </trkpt>
      <trkpt lat="35.1519068" lon="24.4723408">
        <ele>8.3085938</ele>
        <time>2010-05-06T12:40:40Z</time>
      </trkpt>
      <trkpt lat="35.1519285" lon="24.4723552">
        <ele>8.7891846</ele>
        <time>2010-05-06T12:40:46Z</time>
      </trkpt>
      <trkpt lat="35.1519646" lon="24.4723171">
        <ele>10.2312012</ele>
        <time>2010-05-06T12:40:53Z</time>
      </trkpt>
      <trkpt lat="35.1519851" lon="24.4722508">
        <ele>12.6343994</ele>
        <time>2010-05-06T12:41:01Z</time>
      </trkpt>
      <trkpt lat="35.1519735" lon="24.4721812">
        <ele>15.0377197</ele>
        <time>2010-05-06T12:41:08Z</time>
      </trkpt>
      <trkpt lat="35.1519720" lon="24.4721606">
        <ele>15.0377197</ele>
        <time>2010-05-06T12:41:13Z</time>
      </trkpt>
      <trkpt lat="35.1519534" lon="24.4721364">
        <ele>16.4797363</ele>
        <time>2010-05-06T12:41:25Z</time>
      </trkpt>
      <trkpt lat="35.1519403" lon="24.4720570">
        <ele>19.3637695</ele>
        <time>2010-05-06T12:41:33Z</time>
      </trkpt>
      <trkpt lat="35.1519469" lon="24.4719944">
        <ele>21.7669678</ele>
        <time>2010-05-06T12:41:40Z</time>
      </trkpt>
      <trkpt lat="35.1520101" lon="24.4719972">
        <ele>23.6895752</ele>
        <time>2010-05-06T12:41:49Z</time>
      </trkpt>
      <trkpt lat="35.1520651" lon="24.4719959">
        <ele>25.6123047</ele>
        <time>2010-05-06T12:41:57Z</time>
      </trkpt>
      <trkpt lat="35.1520601" lon="24.4719356">
        <ele>28.4962158</ele>
        <time>2010-05-06T12:42:04Z</time>
      </trkpt>
      <trkpt lat="35.1520580" lon="24.4718714">
        <ele>31.8607178</ele>
        <time>2010-05-06T12:42:12Z</time>
      </trkpt>
      <trkpt lat="35.1520290" lon="24.4718156">
        <ele>33.3028564</ele>
        <time>2010-05-06T12:42:19Z</time>
      </trkpt>
      <trkpt lat="35.1520391" lon="24.4717732">
        <ele>34.7448730</ele>
        <time>2010-05-06T12:42:26Z</time>
      </trkpt>
      <trkpt lat="35.1520817" lon="24.4717757">
        <ele>36.1867676</ele>
        <time>2010-05-06T12:42:33Z</time>
      </trkpt>
      <trkpt lat="35.1521203" lon="24.4717732">
        <ele>38.5900879</ele>
        <time>2010-05-06T12:42:41Z</time>
      </trkpt>
      <trkpt lat="35.1520963" lon="24.4717237">
        <ele>40.0321045</ele>
        <time>2010-05-06T12:42:47Z</time>
      </trkpt>
      <trkpt lat="35.1521106" lon="24.4717146">
        <ele>40.5128174</ele>
        <time>2010-05-06T12:42:53Z</time>
      </trkpt>
      <trkpt lat="35.1521082" lon="24.4717175">
        <ele>40.9934082</ele>
        <time>2010-05-06T12:43:12Z</time>
      </trkpt>
      <trkpt lat="35.1521280" lon="24.4717254">
        <ele>41.4739990</ele>
        <time>2010-05-06T12:43:22Z</time>
      </trkpt>
      <trkpt lat="35.1521289" lon="24.4717022">
        <ele>43.8773193</ele>
        <time>2010-05-06T12:43:28Z</time>
      </trkpt>
      <trkpt lat="35.1521124" lon="24.4716591">
        <ele>46.2806396</ele>
        <time>2010-05-06T12:43:34Z</time>
      </trkpt>
      <trkpt lat="35.1521339" lon="24.4716373">
        <ele>47.2418213</ele>
        <time>2010-05-06T12:43:40Z</time>
      </trkpt>
      <trkpt lat="35.1521897" lon="24.4716462">
        <ele>49.1645508</ele>
        <time>2010-05-06T12:43:47Z</time>
      </trkpt>
      <trkpt lat="35.1522067" lon="24.4716074">
        <ele>51.0871582</ele>
        <time>2010-05-06T12:43:53Z</time>
      </trkpt>
      <trkpt lat="35.1522275" lon="24.4715410">
        <ele>54.4517822</ele>
        <time>2010-05-06T12:44:02Z</time>
      </trkpt>
      <trkpt lat="35.1522360" lon="24.4715461">
        <ele>53.0097656</ele>
        <time>2010-05-06T12:44:05Z</time>
      </trkpt>
      <trkpt lat="35.1522772" lon="24.4716096">
        <ele>54.9323730</ele>
        <time>2010-05-06T12:44:13Z</time>
      </trkpt>
      <trkpt lat="35.1523085" lon="24.4716917">
        <ele>55.8937988</ele>
        <time>2010-05-06T12:44:20Z</time>
      </trkpt>
      <trkpt lat="35.1523774" lon="24.4717269">
        <ele>57.3358154</ele>
        <time>2010-05-06T12:44:27Z</time>
      </trkpt>
      <trkpt lat="35.1524651" lon="24.4717426">
        <ele>58.7777100</ele>
        <time>2010-05-06T12:44:34Z</time>
      </trkpt>
      <trkpt lat="35.1525505" lon="24.4717437">
        <ele>61.1810303</ele>
        <time>2010-05-06T12:44:42Z</time>
      </trkpt>
      <trkpt lat="35.1526122" lon="24.4717303">
        <ele>62.1423340</ele>
        <time>2010-05-06T12:44:49Z</time>
      </trkpt>
      <trkpt lat="35.1526763" lon="24.4717357">
        <ele>63.1036377</ele>
        <time>2010-05-06T12:44:56Z</time>
      </trkpt>
      <trkpt lat="35.1527286" lon="24.4717219">
        <ele>65.5070801</ele>
        <time>2010-05-06T12:45:01Z</time>
      </trkpt>
      <trkpt lat="35.1527730" lon="24.4717089">
        <ele>67.9102783</ele>
        <time>2010-05-06T12:45:07Z</time>
      </trkpt>
      <trkpt lat="35.1528004" lon="24.4716417">
        <ele>70.7941895</ele>
        <time>2010-05-06T12:45:16Z</time>
      </trkpt>
      <trkpt lat="35.1527946" lon="24.4715669">
        <ele>74.1588135</ele>
        <time>2010-05-06T12:45:24Z</time>
      </trkpt>
      <trkpt lat="35.1527661" lon="24.4714875">
        <ele>78.0040283</ele>
        <time>2010-05-06T12:45:32Z</time>
      </trkpt>
      <trkpt lat="35.1527361" lon="24.4714181">
        <ele>80.4074707</ele>
        <time>2010-05-06T12:45:39Z</time>
      </trkpt>
      <trkpt lat="35.1527098" lon="24.4713509">
        <ele>81.8493652</ele>
        <time>2010-05-06T12:45:45Z</time>
      </trkpt>
      <trkpt lat="35.1526687" lon="24.4712879">
        <ele>83.2913818</ele>
        <time>2010-05-06T12:45:52Z</time>
      </trkpt>
      <trkpt lat="35.1526585" lon="24.4712349">
        <ele>84.7333984</ele>
        <time>2010-05-06T12:45:57Z</time>
      </trkpt>
      <trkpt lat="35.1526279" lon="24.4711845">
        <ele>86.1752930</ele>
        <time>2010-05-06T12:46:03Z</time>
      </trkpt>
      <trkpt lat="35.1526313" lon="24.4711355">
        <ele>87.1365967</ele>
        <time>2010-05-06T12:46:08Z</time>
      </trkpt>
      <trkpt lat="35.1526654" lon="24.4710786">
        <ele>87.6171875</ele>
        <time>2010-05-06T12:46:14Z</time>
      </trkpt>
      <trkpt lat="35.1526953" lon="24.4710251">
        <ele>88.0980225</ele>
        <time>2010-05-06T12:46:21Z</time>
      </trkpt>
      <trkpt lat="35.1526889" lon="24.4710096">
        <ele>88.5787354</ele>
        <time>2010-05-06T12:46:26Z</time>
      </trkpt>
      <trkpt lat="35.1526365" lon="24.4710444">
        <ele>90.0206299</ele>
        <time>2010-05-06T12:46:33Z</time>
      </trkpt>
      <trkpt lat="35.1526216" lon="24.4710457">
        <ele>90.9819336</ele>
        <time>2010-05-06T12:46:39Z</time>
      </trkpt>
      <trkpt lat="35.1526039" lon="24.4710480">
        <ele>91.9432373</ele>
        <time>2010-05-06T12:46:44Z</time>
      </trkpt>
      <trkpt lat="35.1526067" lon="24.4710493">
        <ele>91.4625244</ele>
        <time>2010-05-06T12:46:50Z</time>
      </trkpt>
      <trkpt lat="35.1526048" lon="24.4710453">
        <ele>90.9819336</ele>
        <time>2010-05-06T12:47:01Z</time>
      </trkpt>
      <trkpt lat="35.1526055" lon="24.4710429">
        <ele>90.9819336</ele>
        <time>2010-05-06T12:47:22Z</time>
      </trkpt>
      <trkpt lat="35.1526082" lon="24.4710366">
        <ele>90.9819336</ele>
        <time>2010-05-06T12:47:48Z</time>
      </trkpt>
      <trkpt lat="35.1526113" lon="24.4710340">
        <ele>90.9819336</ele>
        <time>2010-05-06T12:48:19Z</time>
      </trkpt>
      <trkpt lat="35.1526112" lon="24.4710276">
        <ele>91.4625244</ele>
        <time>2010-05-06T12:48:37Z</time>
      </trkpt>
      <trkpt lat="35.1526145" lon="24.4710397">
        <ele>91.4625244</ele>
        <time>2010-05-06T12:48:44Z</time>
      </trkpt>
      <trkpt lat="35.1526069" lon="24.4710469">
        <ele>91.4625244</ele>
        <time>2010-05-06T12:49:08Z</time>
      </trkpt>
      <trkpt lat="35.1526194" lon="24.4710265">
        <ele>89.5399170</ele>
        <time>2010-05-06T12:49:43Z</time>
      </trkpt>
      <trkpt lat="35.1526164" lon="24.4710208">
        <ele>89.5399170</ele>
        <time>2010-05-06T12:50:02Z</time>
      </trkpt>
      <trkpt lat="35.1526126" lon="24.4710213">
        <ele>90.0206299</ele>
        <time>2010-05-06T12:50:24Z</time>
      </trkpt>
      <trkpt lat="35.1526055" lon="24.4710365">
        <ele>90.9819336</ele>
        <time>2010-05-06T12:50:36Z</time>
      </trkpt>
      <trkpt lat="35.1525982" lon="24.4710275">
        <ele>91.9432373</ele>
        <time>2010-05-06T12:50:46Z</time>
      </trkpt>
      <trkpt lat="35.1526127" lon="24.4710335">
        <ele>90.0206299</ele>
        <time>2010-05-06T12:52:33Z</time>
      </trkpt>
      <trkpt lat="35.1526076" lon="24.4710063">
        <ele>87.6171875</ele>
        <time>2010-05-06T12:53:06Z</time>
      </trkpt>
      <trkpt lat="35.1526159" lon="24.4709997">
        <ele>87.1365967</ele>
        <time>2010-05-06T12:53:13Z</time>
      </trkpt>
      <trkpt lat="35.1526219" lon="24.4710025">
        <ele>85.6945801</ele>
        <time>2010-05-06T12:53:30Z</time>
      </trkpt>
    </trkseg>
  </trk>

</gpx>
